<?xml version="1.0" encoding="UTF-8" standalone="no" ?>
<gpx xmlns="http://www.topografix.com/GPX/1/1" creator="BaseCamp 2.0.9" version="1.1" xmlns:xsi="http://www.w3.org/2001/XMLSchema-instance" xsi:schemaLocation="http://www.topografix.com/GPX/1/1 http://www.topografix.com/GPX/1/1/gpx.xsd">

  <metadata>
    <link href="http://www.garmin.com">
      <text>Garmin International</text>
    </link>
    <time>2010-05-16T17:08:53Z</time>
    <bounds maxlat="44.4767533" maxlon="5.8690899" minlat="44.3134399" minlon="5.7308359"/>
  </metadata>

  
  <trk>
    <name>ACTIVE LOG</name>
    <extensions>
      <gpxx:TrackExtension xmlns:gpxx="http://www.garmin.com/xmlschemas/GpxExtensions/v3">
        <gpxx:DisplayColor>Black</gpxx:DisplayColor>
      </gpxx:TrackExtension>
    </extensions>
    <trkseg>      
      <trkpt lat="44.4546759" lon="5.8389279">
        <ele>1096.0402832</ele>
        <time>2010-05-16T09:07:29Z</time>
      </trkpt>
      <trkpt lat="44.4546718" lon="5.8389394">
        <ele>1096.0402832</ele>
        <time>2010-05-16T09:07:30Z</time>
      </trkpt>
      <trkpt lat="44.4546598" lon="5.8390339">
        <ele>1097.0014648</ele>
        <time>2010-05-16T09:07:33Z</time>
      </trkpt>
      <trkpt lat="44.4546404" lon="5.8390666">
        <ele>1096.5209961</ele>
        <time>2010-05-16T09:07:35Z</time>
      </trkpt>
      <trkpt lat="44.4546214" lon="5.8391556">
        <ele>1097.4821777</ele>
        <time>2010-05-16T09:07:38Z</time>
      </trkpt>
      <trkpt lat="44.4546075" lon="5.8391601">
        <ele>1098.4433594</ele>
        <time>2010-05-16T09:07:40Z</time>
      </trkpt>
      <trkpt lat="44.4545504" lon="5.8392756">
        <ele>1098.9240723</ele>
        <time>2010-05-16T09:07:45Z</time>
      </trkpt>
      <trkpt lat="44.4545405" lon="5.8392853">
        <ele>1099.8854980</ele>
        <time>2010-05-16T09:07:46Z</time>
      </trkpt>
      <trkpt lat="44.4545183" lon="5.8392858">
        <ele>1098.9240723</ele>
        <time>2010-05-16T09:07:48Z</time>
      </trkpt>
      <trkpt lat="44.4544805" lon="5.8393006">
        <ele>1097.9628906</ele>
        <time>2010-05-16T09:07:50Z</time>
      </trkpt>
      <trkpt lat="44.4544248" lon="5.8393327">
        <ele>1097.9628906</ele>
        <time>2010-05-16T09:07:52Z</time>
      </trkpt>
      <trkpt lat="44.4543917" lon="5.8393373">
        <ele>1096.0402832</ele>
        <time>2010-05-16T09:07:53Z</time>
      </trkpt>
      <trkpt lat="44.4542985" lon="5.8393735">
        <ele>1096.0402832</ele>
        <time>2010-05-16T09:07:56Z</time>
      </trkpt>
      <trkpt lat="44.4542737" lon="5.8393839">
        <ele>1095.5595703</ele>
        <time>2010-05-16T09:07:57Z</time>
      </trkpt>
      <trkpt lat="44.4542528" lon="5.8393852">
        <ele>1096.0402832</ele>
        <time>2010-05-16T09:07:58Z</time>
      </trkpt>
      <trkpt lat="44.4542218" lon="5.8393767">
        <ele>1096.0402832</ele>
        <time>2010-05-16T09:08:00Z</time>
      </trkpt>
      <trkpt lat="44.4541360" lon="5.8395087">
        <ele>1096.0402832</ele>
        <time>2010-05-16T09:08:06Z</time>
      </trkpt>
      <trkpt lat="44.4540737" lon="5.8396481">
        <ele>1096.0402832</ele>
        <time>2010-05-16T09:08:12Z</time>
      </trkpt>
      <trkpt lat="44.4540489" lon="5.8396803">
        <ele>1095.5595703</ele>
        <time>2010-05-16T09:08:14Z</time>
      </trkpt>
      <trkpt lat="44.4539768" lon="5.8398262">
        <ele>1096.0402832</ele>
        <time>2010-05-16T09:08:23Z</time>
      </trkpt>
      <trkpt lat="44.4531956" lon="5.8415338">
        <ele>1095.5595703</ele>
        <time>2010-05-16T09:08:35Z</time>
      </trkpt>
      <trkpt lat="44.4527116" lon="5.8426282">
        <ele>1097.4821777</ele>
        <time>2010-05-16T09:08:43Z</time>
      </trkpt>
      <trkpt lat="44.4526995" lon="5.8426857">
        <ele>1098.4433594</ele>
        <time>2010-05-16T09:08:46Z</time>
      </trkpt>
      <trkpt lat="44.4526900" lon="5.8427389">
        <ele>1102.2888184</ele>
        <time>2010-05-16T09:08:54Z</time>
      </trkpt>
      <trkpt lat="44.4526761" lon="5.8427623">
        <ele>1105.1728516</ele>
        <time>2010-05-16T09:09:08Z</time>
      </trkpt>
      <trkpt lat="44.4526336" lon="5.8428312">
        <ele>1106.6147461</ele>
        <time>2010-05-16T09:09:12Z</time>
      </trkpt>
      <trkpt lat="44.4525836" lon="5.8428828">
        <ele>1107.5761719</ele>
        <time>2010-05-16T09:09:16Z</time>
      </trkpt>
      <trkpt lat="44.4525323" lon="5.8429153">
        <ele>1108.0568848</ele>
        <time>2010-05-16T09:09:20Z</time>
      </trkpt>
      <trkpt lat="44.4523177" lon="5.8429576">
        <ele>1109.9792480</ele>
        <time>2010-05-16T09:09:36Z</time>
      </trkpt>
      <trkpt lat="44.4521249" lon="5.8429913">
        <ele>1112.3825684</ele>
        <time>2010-05-16T09:09:50Z</time>
      </trkpt>
      <trkpt lat="44.4519509" lon="5.8430670">
        <ele>1114.3051758</ele>
        <time>2010-05-16T09:10:04Z</time>
      </trkpt>
      <trkpt lat="44.4518816" lon="5.8431206">
        <ele>1114.7858887</ele>
        <time>2010-05-16T09:10:10Z</time>
      </trkpt>
      <trkpt lat="44.4517857" lon="5.8431951">
        <ele>1114.7858887</ele>
        <time>2010-05-16T09:10:18Z</time>
      </trkpt>
      <trkpt lat="44.4517349" lon="5.8432448">
        <ele>1115.7473145</ele>
        <time>2010-05-16T09:10:22Z</time>
      </trkpt>
      <trkpt lat="44.4516939" lon="5.8433483">
        <ele>1114.7858887</ele>
        <time>2010-05-16T09:10:28Z</time>
      </trkpt>
      <trkpt lat="44.4516802" lon="5.8434126">
        <ele>1114.3051758</ele>
        <time>2010-05-16T09:10:32Z</time>
      </trkpt>
      <trkpt lat="44.4515702" lon="5.8434976">
        <ele>1116.2280273</ele>
        <time>2010-05-16T09:10:43Z</time>
      </trkpt>
      <trkpt lat="44.4514874" lon="5.8435204">
        <ele>1115.7473145</ele>
        <time>2010-05-16T09:10:51Z</time>
      </trkpt>
      <trkpt lat="44.4513916" lon="5.8435319">
        <ele>1115.2666016</ele>
        <time>2010-05-16T09:10:58Z</time>
      </trkpt>
      <trkpt lat="44.4513128" lon="5.8435683">
        <ele>1116.2280273</ele>
        <time>2010-05-16T09:11:10Z</time>
      </trkpt>
      <trkpt lat="44.4513091" lon="5.8435865">
        <ele>1115.7473145</ele>
        <time>2010-05-16T09:11:34Z</time>
      </trkpt>
      <trkpt lat="44.4512877" lon="5.8436536">
        <ele>1115.7473145</ele>
        <time>2010-05-16T09:11:46Z</time>
      </trkpt>
      <trkpt lat="44.4512536" lon="5.8437145">
        <ele>1116.7087402</ele>
        <time>2010-05-16T09:11:54Z</time>
      </trkpt>
      <trkpt lat="44.4512396" lon="5.8437502">
        <ele>1118.1506348</ele>
        <time>2010-05-16T09:11:57Z</time>
      </trkpt>
      <trkpt lat="44.4512346" lon="5.8437637">
        <ele>1118.1506348</ele>
        <time>2010-05-16T09:11:58Z</time>
      </trkpt>
      <trkpt lat="44.4512295" lon="5.8437942">
        <ele>1118.6313477</ele>
        <time>2010-05-16T09:12:00Z</time>
      </trkpt>
      <trkpt lat="44.4511339" lon="5.8439672">
        <ele>1119.5927734</ele>
        <time>2010-05-16T09:12:15Z</time>
      </trkpt>
      <trkpt lat="44.4511205" lon="5.8440094">
        <ele>1119.5927734</ele>
        <time>2010-05-16T09:12:22Z</time>
      </trkpt>
      <trkpt lat="44.4510331" lon="5.8441424">
        <ele>1121.0346680</ele>
        <time>2010-05-16T09:12:34Z</time>
      </trkpt>
      <trkpt lat="44.4509984" lon="5.8441993">
        <ele>1121.9958496</ele>
        <time>2010-05-16T09:12:44Z</time>
      </trkpt>
      <trkpt lat="44.4509764" lon="5.8442040">
        <ele>1122.9572754</ele>
        <time>2010-05-16T09:12:47Z</time>
      </trkpt>
      <trkpt lat="44.4509431" lon="5.8442299">
        <ele>1123.4379883</ele>
        <time>2010-05-16T09:12:51Z</time>
      </trkpt>
      <trkpt lat="44.4509278" lon="5.8442350">
        <ele>1123.9184570</ele>
        <time>2010-05-16T09:12:53Z</time>
      </trkpt>
      <trkpt lat="44.4509088" lon="5.8442397">
        <ele>1124.3991699</ele>
        <time>2010-05-16T09:12:55Z</time>
      </trkpt>
      <trkpt lat="44.4508926" lon="5.8442324">
        <ele>1124.8798828</ele>
        <time>2010-05-16T09:12:57Z</time>
      </trkpt>
      <trkpt lat="44.4508854" lon="5.8441452">
        <ele>1126.3217773</ele>
        <time>2010-05-16T09:13:10Z</time>
      </trkpt>
      <trkpt lat="44.4508715" lon="5.8440089">
        <ele>1128.2443848</ele>
        <time>2010-05-16T09:13:20Z</time>
      </trkpt>
      <trkpt lat="44.4508641" lon="5.8439834">
        <ele>1128.2443848</ele>
        <time>2010-05-16T09:13:22Z</time>
      </trkpt>
      <trkpt lat="44.4508213" lon="5.8438486">
        <ele>1129.6862793</ele>
        <time>2010-05-16T09:13:31Z</time>
      </trkpt>
      <trkpt lat="44.4508066" lon="5.8436993">
        <ele>1130.1669922</ele>
        <time>2010-05-16T09:13:42Z</time>
      </trkpt>
      <trkpt lat="44.4507964" lon="5.8436210">
        <ele>1131.6088867</ele>
        <time>2010-05-16T09:13:49Z</time>
      </trkpt>
      <trkpt lat="44.4507794" lon="5.8435378">
        <ele>1132.5705566</ele>
        <time>2010-05-16T09:13:56Z</time>
      </trkpt>
      <trkpt lat="44.4507513" lon="5.8433591">
        <ele>1134.0124512</ele>
        <time>2010-05-16T09:14:09Z</time>
      </trkpt>
      <trkpt lat="44.4507413" lon="5.8432141">
        <ele>1135.9350586</ele>
        <time>2010-05-16T09:14:20Z</time>
      </trkpt>
      <trkpt lat="44.4507261" lon="5.8431804">
        <ele>1136.4157715</ele>
        <time>2010-05-16T09:14:23Z</time>
      </trkpt>
      <trkpt lat="44.4506991" lon="5.8430594">
        <ele>1137.3769531</ele>
        <time>2010-05-16T09:14:34Z</time>
      </trkpt>
      <trkpt lat="44.4506391" lon="5.8429324">
        <ele>1138.8190918</ele>
        <time>2010-05-16T09:14:44Z</time>
      </trkpt>
      <trkpt lat="44.4505712" lon="5.8428077">
        <ele>1140.2609863</ele>
        <time>2010-05-16T09:14:54Z</time>
      </trkpt>
      <trkpt lat="44.4505435" lon="5.8427294">
        <ele>1141.7028809</ele>
        <time>2010-05-16T09:15:03Z</time>
      </trkpt>
      <trkpt lat="44.4504228" lon="5.8425995">
        <ele>1143.1447754</ele>
        <time>2010-05-16T09:15:16Z</time>
      </trkpt>
      <trkpt lat="44.4503011" lon="5.8424390">
        <ele>1144.1062012</ele>
        <time>2010-05-16T09:15:30Z</time>
      </trkpt>
      <trkpt lat="44.4501991" lon="5.8423234">
        <ele>1146.0288086</ele>
        <time>2010-05-16T09:15:42Z</time>
      </trkpt>
      <trkpt lat="44.4500982" lon="5.8422187">
        <ele>1146.5095215</ele>
        <time>2010-05-16T09:15:53Z</time>
      </trkpt>
      <trkpt lat="44.4500658" lon="5.8421975">
        <ele>1146.9899902</ele>
        <time>2010-05-16T09:15:56Z</time>
      </trkpt>
      <trkpt lat="44.4500526" lon="5.8421682">
        <ele>1147.4707031</ele>
        <time>2010-05-16T09:15:58Z</time>
      </trkpt>
      <trkpt lat="44.4500285" lon="5.8421464">
        <ele>1147.9514160</ele>
        <time>2010-05-16T09:16:01Z</time>
      </trkpt>
      <trkpt lat="44.4500062" lon="5.8420946">
        <ele>1147.9514160</ele>
        <time>2010-05-16T09:16:05Z</time>
      </trkpt>
      <trkpt lat="44.4499714" lon="5.8420491">
        <ele>1148.4321289</ele>
        <time>2010-05-16T09:16:09Z</time>
      </trkpt>
      <trkpt lat="44.4498443" lon="5.8419003">
        <ele>1150.3549805</ele>
        <time>2010-05-16T09:16:23Z</time>
      </trkpt>
      <trkpt lat="44.4497706" lon="5.8417279">
        <ele>1152.2773438</ele>
        <time>2010-05-16T09:16:36Z</time>
      </trkpt>
      <trkpt lat="44.4497294" lon="5.8416515">
        <ele>1152.7580566</ele>
        <time>2010-05-16T09:16:42Z</time>
      </trkpt>
      <trkpt lat="44.4496562" lon="5.8415135">
        <ele>1154.6806641</ele>
        <time>2010-05-16T09:16:54Z</time>
      </trkpt>
      <trkpt lat="44.4496250" lon="5.8414533">
        <ele>1155.6420898</ele>
        <time>2010-05-16T09:16:59Z</time>
      </trkpt>
      <trkpt lat="44.4495458" lon="5.8412931">
        <ele>1157.5646973</ele>
        <time>2010-05-16T09:17:12Z</time>
      </trkpt>
      <trkpt lat="44.4494818" lon="5.8411779">
        <ele>1159.9677734</ele>
        <time>2010-05-16T09:17:22Z</time>
      </trkpt>
      <trkpt lat="44.4494715" lon="5.8411687">
        <ele>1159.9677734</ele>
        <time>2010-05-16T09:17:23Z</time>
      </trkpt>
      <trkpt lat="44.4494183" lon="5.8410591">
        <ele>1160.9291992</ele>
        <time>2010-05-16T09:17:32Z</time>
      </trkpt>
      <trkpt lat="44.4493661" lon="5.8409835">
        <ele>1161.8906250</ele>
        <time>2010-05-16T09:17:39Z</time>
      </trkpt>
      <trkpt lat="44.4492952" lon="5.8409431">
        <ele>1162.8518066</ele>
        <time>2010-05-16T09:17:46Z</time>
      </trkpt>
      <trkpt lat="44.4491826" lon="5.8409568">
        <ele>1163.3325195</ele>
        <time>2010-05-16T09:17:55Z</time>
      </trkpt>
      <trkpt lat="44.4490588" lon="5.8410275">
        <ele>1163.3325195</ele>
        <time>2010-05-16T09:18:07Z</time>
      </trkpt>
      <trkpt lat="44.4490160" lon="5.8410151">
        <ele>1163.3325195</ele>
        <time>2010-05-16T09:18:12Z</time>
      </trkpt>
      <trkpt lat="44.4489665" lon="5.8409792">
        <ele>1163.8129883</ele>
        <time>2010-05-16T09:18:17Z</time>
      </trkpt>
      <trkpt lat="44.4488626" lon="5.8407986">
        <ele>1166.6972656</ele>
        <time>2010-05-16T09:18:32Z</time>
      </trkpt>
      <trkpt lat="44.4488082" lon="5.8407963">
        <ele>1166.6972656</ele>
        <time>2010-05-16T09:18:44Z</time>
      </trkpt>
      <trkpt lat="44.4488067" lon="5.8408003">
        <ele>1166.6972656</ele>
        <time>2010-05-16T09:19:04Z</time>
      </trkpt>
      <trkpt lat="44.4488072" lon="5.8408022">
        <ele>1167.6584473</ele>
        <time>2010-05-16T09:19:54Z</time>
      </trkpt>
      <trkpt lat="44.4488066" lon="5.8408050">
        <ele>1167.1779785</ele>
        <time>2010-05-16T09:20:17Z</time>
      </trkpt>
      <trkpt lat="44.4488027" lon="5.8408904">
        <ele>1167.6584473</ele>
        <time>2010-05-16T09:20:25Z</time>
      </trkpt>
      <trkpt lat="44.4488139" lon="5.8409170">
        <ele>1168.1391602</ele>
        <time>2010-05-16T09:20:27Z</time>
      </trkpt>
      <trkpt lat="44.4488169" lon="5.8409893">
        <ele>1167.6584473</ele>
        <time>2010-05-16T09:20:32Z</time>
      </trkpt>
      <trkpt lat="44.4488276" lon="5.8410314">
        <ele>1167.6584473</ele>
        <time>2010-05-16T09:20:35Z</time>
      </trkpt>
      <trkpt lat="44.4488360" lon="5.8410567">
        <ele>1167.6584473</ele>
        <time>2010-05-16T09:20:37Z</time>
      </trkpt>
      <trkpt lat="44.4488361" lon="5.8410866">
        <ele>1168.1391602</ele>
        <time>2010-05-16T09:20:39Z</time>
      </trkpt>
      <trkpt lat="44.4488601" lon="5.8411895">
        <ele>1168.6198730</ele>
        <time>2010-05-16T09:20:46Z</time>
      </trkpt>
      <trkpt lat="44.4488780" lon="5.8412269">
        <ele>1169.1005859</ele>
        <time>2010-05-16T09:20:49Z</time>
      </trkpt>
      <trkpt lat="44.4489409" lon="5.8413726">
        <ele>1170.5424805</ele>
        <time>2010-05-16T09:21:01Z</time>
      </trkpt>
      <trkpt lat="44.4490172" lon="5.8414780">
        <ele>1171.9843750</ele>
        <time>2010-05-16T09:21:10Z</time>
      </trkpt>
      <trkpt lat="44.4490373" lon="5.8415052">
        <ele>1172.4650879</ele>
        <time>2010-05-16T09:21:13Z</time>
      </trkpt>
      <trkpt lat="44.4491457" lon="5.8416504">
        <ele>1173.9069824</ele>
        <time>2010-05-16T09:21:26Z</time>
      </trkpt>
      <trkpt lat="44.4492075" lon="5.8417898">
        <ele>1175.8295898</ele>
        <time>2010-05-16T09:21:37Z</time>
      </trkpt>
      <trkpt lat="44.4492195" lon="5.8418857">
        <ele>1176.7910156</ele>
        <time>2010-05-16T09:21:43Z</time>
      </trkpt>
      <trkpt lat="44.4492292" lon="5.8420395">
        <ele>1177.7521973</ele>
        <time>2010-05-16T09:21:53Z</time>
      </trkpt>
      <trkpt lat="44.4492285" lon="5.8423060">
        <ele>1180.1557617</ele>
        <time>2010-05-16T09:22:09Z</time>
      </trkpt>
      <trkpt lat="44.4492621" lon="5.8424827">
        <ele>1181.5976563</ele>
        <time>2010-05-16T09:22:20Z</time>
      </trkpt>
      <trkpt lat="44.4492841" lon="5.8426585">
        <ele>1183.0395508</ele>
        <time>2010-05-16T09:22:32Z</time>
      </trkpt>
      <trkpt lat="44.4492975" lon="5.8428271">
        <ele>1183.5202637</ele>
        <time>2010-05-16T09:22:45Z</time>
      </trkpt>
      <trkpt lat="44.4492562" lon="5.8430312">
        <ele>1185.9235840</ele>
        <time>2010-05-16T09:23:01Z</time>
      </trkpt>
      <trkpt lat="44.4492483" lon="5.8431104">
        <ele>1186.4042969</ele>
        <time>2010-05-16T09:23:06Z</time>
      </trkpt>
      <trkpt lat="44.4492292" lon="5.8432291">
        <ele>1188.3269043</ele>
        <time>2010-05-16T09:23:14Z</time>
      </trkpt>
      <trkpt lat="44.4492083" lon="5.8433378">
        <ele>1188.8076172</ele>
        <time>2010-05-16T09:23:22Z</time>
      </trkpt>
      <trkpt lat="44.4491717" lon="5.8434886">
        <ele>1189.7687988</ele>
        <time>2010-05-16T09:23:33Z</time>
      </trkpt>
      <trkpt lat="44.4491174" lon="5.8437052">
        <ele>1191.6914063</ele>
        <time>2010-05-16T09:23:48Z</time>
      </trkpt>
      <trkpt lat="44.4490972" lon="5.8438111">
        <ele>1192.6528320</ele>
        <time>2010-05-16T09:23:56Z</time>
      </trkpt>
      <trkpt lat="44.4490811" lon="5.8438770">
        <ele>1193.1333008</ele>
        <time>2010-05-16T09:24:01Z</time>
      </trkpt>
      <trkpt lat="44.4490731" lon="5.8439060">
        <ele>1193.1333008</ele>
        <time>2010-05-16T09:24:03Z</time>
      </trkpt>
      <trkpt lat="44.4490687" lon="5.8439703">
        <ele>1192.6528320</ele>
        <time>2010-05-16T09:24:14Z</time>
      </trkpt>
      <trkpt lat="44.4490706" lon="5.8439703">
        <ele>1192.6528320</ele>
        <time>2010-05-16T09:24:40Z</time>
      </trkpt>
      <trkpt lat="44.4490706" lon="5.8439703">
        <ele>1192.6528320</ele>
        <time>2010-05-16T09:24:42Z</time>
      </trkpt>
      <trkpt lat="44.4490623" lon="5.8439720">
        <ele>1192.6528320</ele>
        <time>2010-05-16T09:24:49Z</time>
      </trkpt>
      <trkpt lat="44.4490247" lon="5.8440917">
        <ele>1194.0947266</ele>
        <time>2010-05-16T09:24:57Z</time>
      </trkpt>
      <trkpt lat="44.4489986" lon="5.8441946">
        <ele>1196.0175781</ele>
        <time>2010-05-16T09:25:05Z</time>
      </trkpt>
      <trkpt lat="44.4489773" lon="5.8443249">
        <ele>1196.4982910</ele>
        <time>2010-05-16T09:25:14Z</time>
      </trkpt>
      <trkpt lat="44.4489148" lon="5.8445325">
        <ele>1198.9013672</ele>
        <time>2010-05-16T09:25:29Z</time>
      </trkpt>
      <trkpt lat="44.4488928" lon="5.8445979">
        <ele>1199.8627930</ele>
        <time>2010-05-16T09:25:34Z</time>
      </trkpt>
      <trkpt lat="44.4487898" lon="5.8447063">
        <ele>1201.3046875</ele>
        <time>2010-05-16T09:25:47Z</time>
      </trkpt>
      <trkpt lat="44.4487745" lon="5.8447166">
        <ele>1201.3046875</ele>
        <time>2010-05-16T09:25:49Z</time>
      </trkpt>
      <trkpt lat="44.4486289" lon="5.8448258">
        <ele>1202.7465820</ele>
        <time>2010-05-16T09:26:03Z</time>
      </trkpt>
      <trkpt lat="44.4485008" lon="5.8449572">
        <ele>1204.6691895</ele>
        <time>2010-05-16T09:26:18Z</time>
      </trkpt>
      <trkpt lat="44.4483981" lon="5.8451082">
        <ele>1205.6306152</ele>
        <time>2010-05-16T09:26:32Z</time>
      </trkpt>
      <trkpt lat="44.4483935" lon="5.8451213">
        <ele>1205.6306152</ele>
        <time>2010-05-16T09:26:33Z</time>
      </trkpt>
      <trkpt lat="44.4483199" lon="5.8453052">
        <ele>1206.5917969</ele>
        <time>2010-05-16T09:26:47Z</time>
      </trkpt>
      <trkpt lat="44.4482953" lon="5.8454441">
        <ele>1208.0339355</ele>
        <time>2010-05-16T09:26:57Z</time>
      </trkpt>
      <trkpt lat="44.4482610" lon="5.8456839">
        <ele>1209.9562988</ele>
        <time>2010-05-16T09:27:14Z</time>
      </trkpt>
      <trkpt lat="44.4482388" lon="5.8458931">
        <ele>1211.8791504</ele>
        <time>2010-05-16T09:27:28Z</time>
      </trkpt>
      <trkpt lat="44.4482290" lon="5.8460082">
        <ele>1212.8405762</ele>
        <time>2010-05-16T09:27:36Z</time>
      </trkpt>
      <trkpt lat="44.4482378" lon="5.8461936">
        <ele>1213.8017578</ele>
        <time>2010-05-16T09:27:50Z</time>
      </trkpt>
      <trkpt lat="44.4482547" lon="5.8463371">
        <ele>1215.2438965</ele>
        <time>2010-05-16T09:28:00Z</time>
      </trkpt>
      <trkpt lat="44.4482751" lon="5.8464640">
        <ele>1216.2050781</ele>
        <time>2010-05-16T09:28:09Z</time>
      </trkpt>
      <trkpt lat="44.4482940" lon="5.8465191">
        <ele>1216.6857910</ele>
        <time>2010-05-16T09:28:13Z</time>
      </trkpt>
      <trkpt lat="44.4483430" lon="5.8466580">
        <ele>1217.1665039</ele>
        <time>2010-05-16T09:28:23Z</time>
      </trkpt>
      <trkpt lat="44.4483525" lon="5.8466813">
        <ele>1217.6469727</ele>
        <time>2010-05-16T09:28:25Z</time>
      </trkpt>
      <trkpt lat="44.4483853" lon="5.8467873">
        <ele>1218.1276855</ele>
        <time>2010-05-16T09:28:33Z</time>
      </trkpt>
      <trkpt lat="44.4484061" lon="5.8468532">
        <ele>1219.0891113</ele>
        <time>2010-05-16T09:28:38Z</time>
      </trkpt>
      <trkpt lat="44.4484659" lon="5.8469813">
        <ele>1220.5310059</ele>
        <time>2010-05-16T09:28:49Z</time>
      </trkpt>
      <trkpt lat="44.4484865" lon="5.8470579">
        <ele>1221.4921875</ele>
        <time>2010-05-16T09:28:54Z</time>
      </trkpt>
      <trkpt lat="44.4484908" lon="5.8470882">
        <ele>1221.4921875</ele>
        <time>2010-05-16T09:28:56Z</time>
      </trkpt>
      <trkpt lat="44.4484712" lon="5.8471456">
        <ele>1221.9729004</ele>
        <time>2010-05-16T09:29:01Z</time>
      </trkpt>
      <trkpt lat="44.4484120" lon="5.8471166">
        <ele>1222.9343262</ele>
        <time>2010-05-16T09:29:09Z</time>
      </trkpt>
      <trkpt lat="44.4483424" lon="5.8469352">
        <ele>1223.4150391</ele>
        <time>2010-05-16T09:29:24Z</time>
      </trkpt>
      <trkpt lat="44.4482888" lon="5.8468472">
        <ele>1224.3762207</ele>
        <time>2010-05-16T09:29:32Z</time>
      </trkpt>
      <trkpt lat="44.4482531" lon="5.8468004">
        <ele>1224.8569336</ele>
        <time>2010-05-16T09:29:36Z</time>
      </trkpt>
      <trkpt lat="44.4481546" lon="5.8466707">
        <ele>1225.3374023</ele>
        <time>2010-05-16T09:29:50Z</time>
      </trkpt>
      <trkpt lat="44.4481252" lon="5.8466308">
        <ele>1226.2988281</ele>
        <time>2010-05-16T09:29:54Z</time>
      </trkpt>
      <trkpt lat="44.4480236" lon="5.8465029">
        <ele>1227.7407227</ele>
        <time>2010-05-16T09:30:07Z</time>
      </trkpt>
      <trkpt lat="44.4480045" lon="5.8464835">
        <ele>1227.7407227</ele>
        <time>2010-05-16T09:30:09Z</time>
      </trkpt>
      <trkpt lat="44.4479086" lon="5.8463332">
        <ele>1229.6635742</ele>
        <time>2010-05-16T09:30:23Z</time>
      </trkpt>
      <trkpt lat="44.4478938" lon="5.8462737">
        <ele>1230.6250000</ele>
        <time>2010-05-16T09:30:27Z</time>
      </trkpt>
      <trkpt lat="44.4478075" lon="5.8461046">
        <ele>1232.0668945</ele>
        <time>2010-05-16T09:30:42Z</time>
      </trkpt>
      <trkpt lat="44.4477924" lon="5.8460716">
        <ele>1232.5476074</ele>
        <time>2010-05-16T09:30:45Z</time>
      </trkpt>
      <trkpt lat="44.4477322" lon="5.8458763">
        <ele>1233.9895020</ele>
        <time>2010-05-16T09:30:59Z</time>
      </trkpt>
      <trkpt lat="44.4476617" lon="5.8456274">
        <ele>1236.3928223</ele>
        <time>2010-05-16T09:31:16Z</time>
      </trkpt>
      <trkpt lat="44.4476125" lon="5.8454368">
        <ele>1237.8347168</ele>
        <time>2010-05-16T09:31:30Z</time>
      </trkpt>
      <trkpt lat="44.4475708" lon="5.8453134">
        <ele>1238.7961426</ele>
        <time>2010-05-16T09:31:39Z</time>
      </trkpt>
      <trkpt lat="44.4475543" lon="5.8452775">
        <ele>1239.2766113</ele>
        <time>2010-05-16T09:31:42Z</time>
      </trkpt>
      <trkpt lat="44.4474953" lon="5.8450467">
        <ele>1241.6799316</ele>
        <time>2010-05-16T09:31:59Z</time>
      </trkpt>
      <trkpt lat="44.4474473" lon="5.8448718">
        <ele>1243.6025391</ele>
        <time>2010-05-16T09:32:13Z</time>
      </trkpt>
      <trkpt lat="44.4474266" lon="5.8448038">
        <ele>1244.0834961</ele>
        <time>2010-05-16T09:32:18Z</time>
      </trkpt>
      <trkpt lat="44.4474109" lon="5.8447814">
        <ele>1244.0834961</ele>
        <time>2010-05-16T09:32:20Z</time>
      </trkpt>
      <trkpt lat="44.4473556" lon="5.8445974">
        <ele>1245.5253906</ele>
        <time>2010-05-16T09:32:33Z</time>
      </trkpt>
      <trkpt lat="44.4473454" lon="5.8445708">
        <ele>1246.0061035</ele>
        <time>2010-05-16T09:32:35Z</time>
      </trkpt>
      <trkpt lat="44.4473339" lon="5.8445158">
        <ele>1246.4868164</ele>
        <time>2010-05-16T09:32:39Z</time>
      </trkpt>
      <trkpt lat="44.4473399" lon="5.8443013">
        <ele>1248.8898926</ele>
        <time>2010-05-16T09:32:54Z</time>
      </trkpt>
      <trkpt lat="44.4473647" lon="5.8441345">
        <ele>1250.3320313</ele>
        <time>2010-05-16T09:33:07Z</time>
      </trkpt>
      <trkpt lat="44.4473674" lon="5.8438843">
        <ele>1252.7351074</ele>
        <time>2010-05-16T09:33:23Z</time>
      </trkpt>
      <trkpt lat="44.4473504" lon="5.8438020">
        <ele>1252.7351074</ele>
        <time>2010-05-16T09:33:29Z</time>
      </trkpt>
      <trkpt lat="44.4472556" lon="5.8435897">
        <ele>1254.6577148</ele>
        <time>2010-05-16T09:33:46Z</time>
      </trkpt>
      <trkpt lat="44.4471780" lon="5.8434657">
        <ele>1256.0996094</ele>
        <time>2010-05-16T09:33:58Z</time>
      </trkpt>
      <trkpt lat="44.4470462" lon="5.8433295">
        <ele>1257.5417480</ele>
        <time>2010-05-16T09:34:14Z</time>
      </trkpt>
      <trkpt lat="44.4469304" lon="5.8432042">
        <ele>1258.9836426</ele>
        <time>2010-05-16T09:34:28Z</time>
      </trkpt>
      <trkpt lat="44.4468389" lon="5.8430661">
        <ele>1260.4257813</ele>
        <time>2010-05-16T09:34:41Z</time>
      </trkpt>
      <trkpt lat="44.4467552" lon="5.8428967">
        <ele>1261.3872070</ele>
        <time>2010-05-16T09:34:56Z</time>
      </trkpt>
      <trkpt lat="44.4467057" lon="5.8428329">
        <ele>1261.8679199</ele>
        <time>2010-05-16T09:35:03Z</time>
      </trkpt>
      <trkpt lat="44.4466537" lon="5.8427787">
        <ele>1262.3483887</ele>
        <time>2010-05-16T09:35:12Z</time>
      </trkpt>
      <trkpt lat="44.4466424" lon="5.8427438">
        <ele>1263.7902832</ele>
        <time>2010-05-16T09:35:15Z</time>
      </trkpt>
      <trkpt lat="44.4465212" lon="5.8425815">
        <ele>1264.7517090</ele>
        <time>2010-05-16T09:35:29Z</time>
      </trkpt>
      <trkpt lat="44.4464542" lon="5.8424793">
        <ele>1265.2324219</ele>
        <time>2010-05-16T09:35:42Z</time>
      </trkpt>
      <trkpt lat="44.4464503" lon="5.8424662">
        <ele>1265.2324219</ele>
        <time>2010-05-16T09:36:00Z</time>
      </trkpt>
      <trkpt lat="44.4464273" lon="5.8424275">
        <ele>1265.2324219</ele>
        <time>2010-05-16T09:36:18Z</time>
      </trkpt>
      <trkpt lat="44.4463903" lon="5.8423494">
        <ele>1265.7131348</ele>
        <time>2010-05-16T09:36:30Z</time>
      </trkpt>
      <trkpt lat="44.4463303" lon="5.8421739">
        <ele>1267.6354980</ele>
        <time>2010-05-16T09:36:43Z</time>
      </trkpt>
      <trkpt lat="44.4463246" lon="5.8421597">
        <ele>1267.6354980</ele>
        <time>2010-05-16T09:36:44Z</time>
      </trkpt>
      <trkpt lat="44.4462400" lon="5.8419335">
        <ele>1268.5969238</ele>
        <time>2010-05-16T09:36:59Z</time>
      </trkpt>
      <trkpt lat="44.4461205" lon="5.8417409">
        <ele>1271.0002441</ele>
        <time>2010-05-16T09:37:15Z</time>
      </trkpt>
      <trkpt lat="44.4460077" lon="5.8415948">
        <ele>1272.4421387</ele>
        <time>2010-05-16T09:37:28Z</time>
      </trkpt>
      <trkpt lat="44.4458848" lon="5.8414087">
        <ele>1273.8840332</ele>
        <time>2010-05-16T09:37:43Z</time>
      </trkpt>
      <trkpt lat="44.4457765" lon="5.8412270">
        <ele>1276.2875977</ele>
        <time>2010-05-16T09:37:58Z</time>
      </trkpt>
      <trkpt lat="44.4457645" lon="5.8412052">
        <ele>1276.2875977</ele>
        <time>2010-05-16T09:38:00Z</time>
      </trkpt>
      <trkpt lat="44.4456899" lon="5.8410699">
        <ele>1277.7294922</ele>
        <time>2010-05-16T09:38:11Z</time>
      </trkpt>
      <trkpt lat="44.4455716" lon="5.8408970">
        <ele>1279.6520996</ele>
        <time>2010-05-16T09:38:26Z</time>
      </trkpt>
      <trkpt lat="44.4455306" lon="5.8407868">
        <ele>1280.6135254</ele>
        <time>2010-05-16T09:38:34Z</time>
      </trkpt>
      <trkpt lat="44.4455446" lon="5.8405718">
        <ele>1282.0554199</ele>
        <time>2010-05-16T09:38:46Z</time>
      </trkpt>
      <trkpt lat="44.4454710" lon="5.8403562">
        <ele>1284.4587402</ele>
        <time>2010-05-16T09:39:01Z</time>
      </trkpt>
      <trkpt lat="44.4453657" lon="5.8401728">
        <ele>1286.8618164</ele>
        <time>2010-05-16T09:39:15Z</time>
      </trkpt>
      <trkpt lat="44.4452332" lon="5.8399995">
        <ele>1288.7846680</ele>
        <time>2010-05-16T09:39:31Z</time>
      </trkpt>
      <trkpt lat="44.4451101" lon="5.8398285">
        <ele>1290.7070313</ele>
        <time>2010-05-16T09:39:46Z</time>
      </trkpt>
      <trkpt lat="44.4450290" lon="5.8396028">
        <ele>1293.1105957</ele>
        <time>2010-05-16T09:40:03Z</time>
      </trkpt>
      <trkpt lat="44.4450148" lon="5.8394409">
        <ele>1294.5524902</ele>
        <time>2010-05-16T09:40:15Z</time>
      </trkpt>
      <trkpt lat="44.4450059" lon="5.8392468">
        <ele>1296.4753418</ele>
        <time>2010-05-16T09:40:27Z</time>
      </trkpt>
      <trkpt lat="44.4450006" lon="5.8392134">
        <ele>1295.9946289</ele>
        <time>2010-05-16T09:40:29Z</time>
      </trkpt>
      <trkpt lat="44.4449724" lon="5.8390651">
        <ele>1296.9558105</ele>
        <time>2010-05-16T09:40:39Z</time>
      </trkpt>
      <trkpt lat="44.4449544" lon="5.8390093">
        <ele>1297.9172363</ele>
        <time>2010-05-16T09:40:43Z</time>
      </trkpt>
      <trkpt lat="44.4449234" lon="5.8389258">
        <ele>1298.3977051</ele>
        <time>2010-05-16T09:40:49Z</time>
      </trkpt>
      <trkpt lat="44.4448905" lon="5.8388435">
        <ele>1298.8784180</ele>
        <time>2010-05-16T09:40:55Z</time>
      </trkpt>
      <trkpt lat="44.4448805" lon="5.8388167">
        <ele>1299.3591309</ele>
        <time>2010-05-16T09:40:57Z</time>
      </trkpt>
      <trkpt lat="44.4447667" lon="5.8386077">
        <ele>1301.2817383</ele>
        <time>2010-05-16T09:41:14Z</time>
      </trkpt>
      <trkpt lat="44.4446994" lon="5.8384983">
        <ele>1301.7624512</ele>
        <time>2010-05-16T09:41:24Z</time>
      </trkpt>
      <trkpt lat="44.4446754" lon="5.8384680">
        <ele>1302.2429199</ele>
        <time>2010-05-16T09:41:27Z</time>
      </trkpt>
      <trkpt lat="44.4445423" lon="5.8382888">
        <ele>1303.6850586</ele>
        <time>2010-05-16T09:41:43Z</time>
      </trkpt>
      <trkpt lat="44.4445164" lon="5.8382564">
        <ele>1304.1657715</ele>
        <time>2010-05-16T09:41:46Z</time>
      </trkpt>
      <trkpt lat="44.4444750" lon="5.8380592">
        <ele>1304.6462402</ele>
        <time>2010-05-16T09:42:00Z</time>
      </trkpt>
      <trkpt lat="44.4444368" lon="5.8379349">
        <ele>1306.0881348</ele>
        <time>2010-05-16T09:42:11Z</time>
      </trkpt>
      <trkpt lat="44.4444252" lon="5.8378722">
        <ele>1305.6076660</ele>
        <time>2010-05-16T09:42:15Z</time>
      </trkpt>
      <trkpt lat="44.4444113" lon="5.8378316">
        <ele>1305.1269531</ele>
        <time>2010-05-16T09:42:18Z</time>
      </trkpt>
      <trkpt lat="44.4443830" lon="5.8376414">
        <ele>1305.6076660</ele>
        <time>2010-05-16T09:42:31Z</time>
      </trkpt>
      <trkpt lat="44.4443693" lon="5.8375846">
        <ele>1305.6076660</ele>
        <time>2010-05-16T09:42:35Z</time>
      </trkpt>
      <trkpt lat="44.4443580" lon="5.8375456">
        <ele>1306.0881348</ele>
        <time>2010-05-16T09:42:38Z</time>
      </trkpt>
      <trkpt lat="44.4443398" lon="5.8374976">
        <ele>1306.5688477</ele>
        <time>2010-05-16T09:42:42Z</time>
      </trkpt>
      <trkpt lat="44.4443542" lon="5.8373467">
        <ele>1307.5302734</ele>
        <time>2010-05-16T09:42:54Z</time>
      </trkpt>
      <trkpt lat="44.4443558" lon="5.8373168">
        <ele>1307.5302734</ele>
        <time>2010-05-16T09:42:56Z</time>
      </trkpt>
      <trkpt lat="44.4443608" lon="5.8372856">
        <ele>1307.5302734</ele>
        <time>2010-05-16T09:42:58Z</time>
      </trkpt>
      <trkpt lat="44.4443636" lon="5.8372549">
        <ele>1308.0112305</ele>
        <time>2010-05-16T09:43:00Z</time>
      </trkpt>
      <trkpt lat="44.4443997" lon="5.8370317">
        <ele>1310.4143066</ele>
        <time>2010-05-16T09:43:17Z</time>
      </trkpt>
      <trkpt lat="44.4444012" lon="5.8370200">
        <ele>1310.8950195</ele>
        <time>2010-05-16T09:43:18Z</time>
      </trkpt>
      <trkpt lat="44.4444550" lon="5.8368152">
        <ele>1311.3757324</ele>
        <time>2010-05-16T09:43:33Z</time>
      </trkpt>
      <trkpt lat="44.4444879" lon="5.8366404">
        <ele>1311.8564453</ele>
        <time>2010-05-16T09:43:47Z</time>
      </trkpt>
      <trkpt lat="44.4445086" lon="5.8364192">
        <ele>1314.2595215</ele>
        <time>2010-05-16T09:44:03Z</time>
      </trkpt>
      <trkpt lat="44.4445265" lon="5.8362689">
        <ele>1316.1821289</ele>
        <time>2010-05-16T09:44:16Z</time>
      </trkpt>
      <trkpt lat="44.4445238" lon="5.8361916">
        <ele>1316.6628418</ele>
        <time>2010-05-16T09:44:30Z</time>
      </trkpt>
      <trkpt lat="44.4445228" lon="5.8361914">
        <ele>1316.1821289</ele>
        <time>2010-05-16T09:45:13Z</time>
      </trkpt>
      <trkpt lat="44.4445235" lon="5.8361975">
        <ele>1315.2209473</ele>
        <time>2010-05-16T09:45:54Z</time>
      </trkpt>
      <trkpt lat="44.4445233" lon="5.8361975">
        <ele>1316.1821289</ele>
        <time>2010-05-16T09:47:09Z</time>
      </trkpt>
      <trkpt lat="44.4445205" lon="5.8362041">
        <ele>1315.2209473</ele>
        <time>2010-05-16T09:47:55Z</time>
      </trkpt>
      <trkpt lat="44.4445153" lon="5.8360339">
        <ele>1317.1435547</ele>
        <time>2010-05-16T09:48:17Z</time>
      </trkpt>
      <trkpt lat="44.4445018" lon="5.8358382">
        <ele>1317.6240234</ele>
        <time>2010-05-16T09:48:30Z</time>
      </trkpt>
      <trkpt lat="44.4444577" lon="5.8355734">
        <ele>1318.1047363</ele>
        <time>2010-05-16T09:48:47Z</time>
      </trkpt>
      <trkpt lat="44.4443993" lon="5.8352938">
        <ele>1319.0661621</ele>
        <time>2010-05-16T09:49:05Z</time>
      </trkpt>
      <trkpt lat="44.4443837" lon="5.8350543">
        <ele>1319.5468750</ele>
        <time>2010-05-16T09:49:20Z</time>
      </trkpt>
      <trkpt lat="44.4443759" lon="5.8348641">
        <ele>1320.0273438</ele>
        <time>2010-05-16T09:49:31Z</time>
      </trkpt>
      <trkpt lat="44.4443660" lon="5.8346632">
        <ele>1320.0273438</ele>
        <time>2010-05-16T09:49:43Z</time>
      </trkpt>
      <trkpt lat="44.4443340" lon="5.8344661">
        <ele>1320.5080566</ele>
        <time>2010-05-16T09:49:55Z</time>
      </trkpt>
      <trkpt lat="44.4443436" lon="5.8342399">
        <ele>1321.4692383</ele>
        <time>2010-05-16T09:50:08Z</time>
      </trkpt>
      <trkpt lat="44.4443493" lon="5.8341143">
        <ele>1321.9499512</ele>
        <time>2010-05-16T09:50:17Z</time>
      </trkpt>
      <trkpt lat="44.4443602" lon="5.8338833">
        <ele>1323.8725586</ele>
        <time>2010-05-16T09:50:32Z</time>
      </trkpt>
      <trkpt lat="44.4443620" lon="5.8337854">
        <ele>1324.3535156</ele>
        <time>2010-05-16T09:50:38Z</time>
      </trkpt>
      <trkpt lat="44.4443386" lon="5.8336179">
        <ele>1325.7954102</ele>
        <time>2010-05-16T09:50:50Z</time>
      </trkpt>
      <trkpt lat="44.4443359" lon="5.8335868">
        <ele>1326.2761230</ele>
        <time>2010-05-16T09:50:52Z</time>
      </trkpt>
      <trkpt lat="44.4443223" lon="5.8335049">
        <ele>1327.2375488</ele>
        <time>2010-05-16T09:50:58Z</time>
      </trkpt>
      <trkpt lat="44.4442771" lon="5.8333566">
        <ele>1328.6794434</ele>
        <time>2010-05-16T09:51:08Z</time>
      </trkpt>
      <trkpt lat="44.4442408" lon="5.8332370">
        <ele>1329.6406250</ele>
        <time>2010-05-16T09:51:17Z</time>
      </trkpt>
      <trkpt lat="44.4441960" lon="5.8331641">
        <ele>1330.1213379</ele>
        <time>2010-05-16T09:51:23Z</time>
      </trkpt>
      <trkpt lat="44.4441665" lon="5.8331155">
        <ele>1330.6020508</ele>
        <time>2010-05-16T09:51:27Z</time>
      </trkpt>
      <trkpt lat="44.4441345" lon="5.8330714">
        <ele>1331.0827637</ele>
        <time>2010-05-16T09:51:31Z</time>
      </trkpt>
      <trkpt lat="44.4440223" lon="5.8328967">
        <ele>1332.0439453</ele>
        <time>2010-05-16T09:51:45Z</time>
      </trkpt>
      <trkpt lat="44.4439197" lon="5.8327157">
        <ele>1333.0051270</ele>
        <time>2010-05-16T09:51:59Z</time>
      </trkpt>
      <trkpt lat="44.4438136" lon="5.8325011">
        <ele>1334.4472656</ele>
        <time>2010-05-16T09:52:15Z</time>
      </trkpt>
      <trkpt lat="44.4437567" lon="5.8324029">
        <ele>1334.4472656</ele>
        <time>2010-05-16T09:52:23Z</time>
      </trkpt>
      <trkpt lat="44.4437121" lon="5.8322767">
        <ele>1335.4084473</ele>
        <time>2010-05-16T09:52:32Z</time>
      </trkpt>
      <trkpt lat="44.4437438" lon="5.8320375">
        <ele>1335.4084473</ele>
        <time>2010-05-16T09:52:45Z</time>
      </trkpt>
      <trkpt lat="44.4437337" lon="5.8318069">
        <ele>1336.8503418</ele>
        <time>2010-05-16T09:52:59Z</time>
      </trkpt>
      <trkpt lat="44.4436798" lon="5.8316247">
        <ele>1336.8503418</ele>
        <time>2010-05-16T09:53:11Z</time>
      </trkpt>
      <trkpt lat="44.4436264" lon="5.8314449">
        <ele>1338.7731934</ele>
        <time>2010-05-16T09:53:22Z</time>
      </trkpt>
      <trkpt lat="44.4436300" lon="5.8312524">
        <ele>1339.2536621</ele>
        <time>2010-05-16T09:53:33Z</time>
      </trkpt>
      <trkpt lat="44.4436378" lon="5.8310841">
        <ele>1340.6958008</ele>
        <time>2010-05-16T09:53:42Z</time>
      </trkpt>
      <trkpt lat="44.4436112" lon="5.8309660">
        <ele>1341.6572266</ele>
        <time>2010-05-16T09:53:52Z</time>
      </trkpt>
      <trkpt lat="44.4435937" lon="5.8308683">
        <ele>1343.0991211</ele>
        <time>2010-05-16T09:53:59Z</time>
      </trkpt>
      <trkpt lat="44.4435804" lon="5.8306920">
        <ele>1344.0605469</ele>
        <time>2010-05-16T09:54:10Z</time>
      </trkpt>
      <trkpt lat="44.4435805" lon="5.8306734">
        <ele>1344.0605469</ele>
        <time>2010-05-16T09:54:11Z</time>
      </trkpt>
      <trkpt lat="44.4435601" lon="5.8303986">
        <ele>1345.9831543</ele>
        <time>2010-05-16T09:54:26Z</time>
      </trkpt>
      <trkpt lat="44.4435580" lon="5.8303818">
        <ele>1345.9831543</ele>
        <time>2010-05-16T09:54:27Z</time>
      </trkpt>
      <trkpt lat="44.4435503" lon="5.8302188">
        <ele>1347.9057617</ele>
        <time>2010-05-16T09:54:38Z</time>
      </trkpt>
      <trkpt lat="44.4435095" lon="5.8300346">
        <ele>1348.8669434</ele>
        <time>2010-05-16T09:54:51Z</time>
      </trkpt>
      <trkpt lat="44.4435013" lon="5.8299234">
        <ele>1349.3476563</ele>
        <time>2010-05-16T09:54:59Z</time>
      </trkpt>
      <trkpt lat="44.4434941" lon="5.8298644">
        <ele>1350.7895508</ele>
        <time>2010-05-16T09:55:03Z</time>
      </trkpt>
      <trkpt lat="44.4434490" lon="5.8295924">
        <ele>1352.2314453</ele>
        <time>2010-05-16T09:55:20Z</time>
      </trkpt>
      <trkpt lat="44.4434391" lon="5.8295524">
        <ele>1352.7121582</ele>
        <time>2010-05-16T09:55:23Z</time>
      </trkpt>
      <trkpt lat="44.4434306" lon="5.8294482">
        <ele>1352.7121582</ele>
        <time>2010-05-16T09:55:30Z</time>
      </trkpt>
      <trkpt lat="44.4434130" lon="5.8293598">
        <ele>1353.1928711</ele>
        <time>2010-05-16T09:55:37Z</time>
      </trkpt>
      <trkpt lat="44.4434263" lon="5.8291913">
        <ele>1354.1542969</ele>
        <time>2010-05-16T09:55:47Z</time>
      </trkpt>
      <trkpt lat="44.4434430" lon="5.8290916">
        <ele>1354.6347656</ele>
        <time>2010-05-16T09:55:52Z</time>
      </trkpt>
      <trkpt lat="44.4434472" lon="5.8290346">
        <ele>1354.6347656</ele>
        <time>2010-05-16T09:55:55Z</time>
      </trkpt>
      <trkpt lat="44.4434757" lon="5.8287564">
        <ele>1354.6347656</ele>
        <time>2010-05-16T09:56:11Z</time>
      </trkpt>
      <trkpt lat="44.4435173" lon="5.8285357">
        <ele>1355.5961914</ele>
        <time>2010-05-16T09:56:25Z</time>
      </trkpt>
      <trkpt lat="44.4435450" lon="5.8284197">
        <ele>1355.5961914</ele>
        <time>2010-05-16T09:56:32Z</time>
      </trkpt>
      <trkpt lat="44.4435463" lon="5.8283560">
        <ele>1356.5576172</ele>
        <time>2010-05-16T09:56:36Z</time>
      </trkpt>
      <trkpt lat="44.4435517" lon="5.8283113">
        <ele>1356.5576172</ele>
        <time>2010-05-16T09:56:39Z</time>
      </trkpt>
      <trkpt lat="44.4435858" lon="5.8280678">
        <ele>1357.0383301</ele>
        <time>2010-05-16T09:56:55Z</time>
      </trkpt>
      <trkpt lat="44.4436433" lon="5.8278505">
        <ele>1357.9997559</ele>
        <time>2010-05-16T09:57:09Z</time>
      </trkpt>
      <trkpt lat="44.4437275" lon="5.8276240">
        <ele>1357.5190430</ele>
        <time>2010-05-16T09:57:25Z</time>
      </trkpt>
      <trkpt lat="44.4438098" lon="5.8274697">
        <ele>1360.4028320</ele>
        <time>2010-05-16T09:57:39Z</time>
      </trkpt>
      <trkpt lat="44.4439106" lon="5.8273495">
        <ele>1361.8449707</ele>
        <time>2010-05-16T09:57:53Z</time>
      </trkpt>
      <trkpt lat="44.4440520" lon="5.8272168">
        <ele>1363.7673340</ele>
        <time>2010-05-16T09:58:11Z</time>
      </trkpt>
      <trkpt lat="44.4441440" lon="5.8270647">
        <ele>1365.6901855</ele>
        <time>2010-05-16T09:58:25Z</time>
      </trkpt>
      <trkpt lat="44.4442086" lon="5.8268705">
        <ele>1368.0932617</ele>
        <time>2010-05-16T09:58:40Z</time>
      </trkpt>
      <trkpt lat="44.4442804" lon="5.8266596">
        <ele>1370.0158691</ele>
        <time>2010-05-16T09:58:55Z</time>
      </trkpt>
      <trkpt lat="44.4443198" lon="5.8265159">
        <ele>1370.9772949</ele>
        <time>2010-05-16T09:59:06Z</time>
      </trkpt>
      <trkpt lat="44.4443392" lon="5.8263352">
        <ele>1371.9384766</ele>
        <time>2010-05-16T09:59:18Z</time>
      </trkpt>
      <trkpt lat="44.4443289" lon="5.8261406">
        <ele>1373.8613281</ele>
        <time>2010-05-16T09:59:32Z</time>
      </trkpt>
      <trkpt lat="44.4443287" lon="5.8260256">
        <ele>1375.3032227</ele>
        <time>2010-05-16T09:59:40Z</time>
      </trkpt>
      <trkpt lat="44.4443085" lon="5.8259441">
        <ele>1375.7839355</ele>
        <time>2010-05-16T09:59:46Z</time>
      </trkpt>
      <trkpt lat="44.4442978" lon="5.8259000">
        <ele>1376.2646484</ele>
        <time>2010-05-16T09:59:49Z</time>
      </trkpt>
      <trkpt lat="44.4443028" lon="5.8256670">
        <ele>1377.7065430</ele>
        <time>2010-05-16T10:00:05Z</time>
      </trkpt>
      <trkpt lat="44.4443051" lon="5.8255191">
        <ele>1379.1484375</ele>
        <time>2010-05-16T10:00:16Z</time>
      </trkpt>
      <trkpt lat="44.4443154" lon="5.8254410">
        <ele>1379.6291504</ele>
        <time>2010-05-16T10:00:22Z</time>
      </trkpt>
      <trkpt lat="44.4443270" lon="5.8252959">
        <ele>1380.5905762</ele>
        <time>2010-05-16T10:00:32Z</time>
      </trkpt>
      <trkpt lat="44.4443377" lon="5.8251980">
        <ele>1381.5517578</ele>
        <time>2010-05-16T10:00:39Z</time>
      </trkpt>
      <trkpt lat="44.4443576" lon="5.8250739">
        <ele>1382.0324707</ele>
        <time>2010-05-16T10:00:48Z</time>
      </trkpt>
      <trkpt lat="44.4443653" lon="5.8250469">
        <ele>1382.9936523</ele>
        <time>2010-05-16T10:00:50Z</time>
      </trkpt>
      <trkpt lat="44.4444050" lon="5.8248396">
        <ele>1383.9550781</ele>
        <time>2010-05-16T10:01:05Z</time>
      </trkpt>
      <trkpt lat="44.4444629" lon="5.8246822">
        <ele>1385.8776855</ele>
        <time>2010-05-16T10:01:19Z</time>
      </trkpt>
      <trkpt lat="44.4445449" lon="5.8245176">
        <ele>1387.8002930</ele>
        <time>2010-05-16T10:01:35Z</time>
      </trkpt>
      <trkpt lat="44.4445946" lon="5.8243954">
        <ele>1388.7619629</ele>
        <time>2010-05-16T10:01:46Z</time>
      </trkpt>
      <trkpt lat="44.4446167" lon="5.8243183">
        <ele>1388.7619629</ele>
        <time>2010-05-16T10:01:52Z</time>
      </trkpt>
      <trkpt lat="44.4446483" lon="5.8242545">
        <ele>1388.2812500</ele>
        <time>2010-05-16T10:01:57Z</time>
      </trkpt>
      <trkpt lat="44.4446634" lon="5.8242153">
        <ele>1388.7619629</ele>
        <time>2010-05-16T10:02:00Z</time>
      </trkpt>
      <trkpt lat="44.4446866" lon="5.8241524">
        <ele>1389.7231445</ele>
        <time>2010-05-16T10:02:05Z</time>
      </trkpt>
      <trkpt lat="44.4447393" lon="5.8240285">
        <ele>1392.1264648</ele>
        <time>2010-05-16T10:02:16Z</time>
      </trkpt>
      <trkpt lat="44.4448255" lon="5.8238701">
        <ele>1393.5683594</ele>
        <time>2010-05-16T10:02:30Z</time>
      </trkpt>
      <trkpt lat="44.4448778" lon="5.8237747">
        <ele>1394.5295410</ele>
        <time>2010-05-16T10:02:39Z</time>
      </trkpt>
      <trkpt lat="44.4448922" lon="5.8237385">
        <ele>1394.5295410</ele>
        <time>2010-05-16T10:02:42Z</time>
      </trkpt>
      <trkpt lat="44.4449809" lon="5.8235659">
        <ele>1395.9716797</ele>
        <time>2010-05-16T10:02:57Z</time>
      </trkpt>
      <trkpt lat="44.4449991" lon="5.8235346">
        <ele>1395.9716797</ele>
        <time>2010-05-16T10:03:00Z</time>
      </trkpt>
      <trkpt lat="44.4450275" lon="5.8234768">
        <ele>1396.9328613</ele>
        <time>2010-05-16T10:03:05Z</time>
      </trkpt>
      <trkpt lat="44.4450856" lon="5.8233293">
        <ele>1397.8942871</ele>
        <time>2010-05-16T10:03:17Z</time>
      </trkpt>
      <trkpt lat="44.4451674" lon="5.8231549">
        <ele>1400.2976074</ele>
        <time>2010-05-16T10:03:32Z</time>
      </trkpt>
      <trkpt lat="44.4452255" lon="5.8230344">
        <ele>1400.7780762</ele>
        <time>2010-05-16T10:03:43Z</time>
      </trkpt>
      <trkpt lat="44.4453273" lon="5.8228478">
        <ele>1403.1813965</ele>
        <time>2010-05-16T10:04:00Z</time>
      </trkpt>
      <trkpt lat="44.4453646" lon="5.8228026">
        <ele>1404.1430664</ele>
        <time>2010-05-16T10:04:05Z</time>
      </trkpt>
      <trkpt lat="44.4454071" lon="5.8227655">
        <ele>1405.1042480</ele>
        <time>2010-05-16T10:04:10Z</time>
      </trkpt>
      <trkpt lat="44.4455617" lon="5.8227080">
        <ele>1407.0268555</ele>
        <time>2010-05-16T10:04:26Z</time>
      </trkpt>
      <trkpt lat="44.4456916" lon="5.8225912">
        <ele>1408.4687500</ele>
        <time>2010-05-16T10:04:42Z</time>
      </trkpt>
      <trkpt lat="44.4457206" lon="5.8225138">
        <ele>1408.4687500</ele>
        <time>2010-05-16T10:04:48Z</time>
      </trkpt>
      <trkpt lat="44.4457358" lon="5.8224779">
        <ele>1408.9494629</ele>
        <time>2010-05-16T10:04:51Z</time>
      </trkpt>
      <trkpt lat="44.4457415" lon="5.8224494">
        <ele>1408.9494629</ele>
        <time>2010-05-16T10:04:53Z</time>
      </trkpt>
      <trkpt lat="44.4457558" lon="5.8224138">
        <ele>1409.9106445</ele>
        <time>2010-05-16T10:04:56Z</time>
      </trkpt>
      <trkpt lat="44.4458120" lon="5.8222129">
        <ele>1410.8720703</ele>
        <time>2010-05-16T10:05:12Z</time>
      </trkpt>
      <trkpt lat="44.4458653" lon="5.8220455">
        <ele>1412.7946777</ele>
        <time>2010-05-16T10:05:26Z</time>
      </trkpt>
      <trkpt lat="44.4459279" lon="5.8218580">
        <ele>1414.2365723</ele>
        <time>2010-05-16T10:05:42Z</time>
      </trkpt>
      <trkpt lat="44.4460013" lon="5.8216431">
        <ele>1416.1591797</ele>
        <time>2010-05-16T10:05:58Z</time>
      </trkpt>
      <trkpt lat="44.4460382" lon="5.8214603">
        <ele>1417.1206055</ele>
        <time>2010-05-16T10:06:11Z</time>
      </trkpt>
      <trkpt lat="44.4460591" lon="5.8212644">
        <ele>1419.5239258</ele>
        <time>2010-05-16T10:06:25Z</time>
      </trkpt>
      <trkpt lat="44.4460683" lon="5.8211586">
        <ele>1421.4465332</ele>
        <time>2010-05-16T10:06:33Z</time>
      </trkpt>
      <trkpt lat="44.4460689" lon="5.8211437">
        <ele>1421.4465332</ele>
        <time>2010-05-16T10:06:34Z</time>
      </trkpt>
      <trkpt lat="44.4460792" lon="5.8209261">
        <ele>1421.9272461</ele>
        <time>2010-05-16T10:06:49Z</time>
      </trkpt>
      <trkpt lat="44.4460934" lon="5.8206920">
        <ele>1423.8498535</ele>
        <time>2010-05-16T10:07:05Z</time>
      </trkpt>
      <trkpt lat="44.4461384" lon="5.8204590">
        <ele>1425.2917480</ele>
        <time>2010-05-16T10:07:21Z</time>
      </trkpt>
      <trkpt lat="44.4461771" lon="5.8203366">
        <ele>1425.2917480</ele>
        <time>2010-05-16T10:07:30Z</time>
      </trkpt>
      <trkpt lat="44.4461827" lon="5.8202700">
        <ele>1425.7724609</ele>
        <time>2010-05-16T10:07:35Z</time>
      </trkpt>
      <trkpt lat="44.4461391" lon="5.8202411">
        <ele>1425.7724609</ele>
        <time>2010-05-16T10:07:41Z</time>
      </trkpt>
      <trkpt lat="44.4461220" lon="5.8202518">
        <ele>1425.7724609</ele>
        <time>2010-05-16T10:07:43Z</time>
      </trkpt>
      <trkpt lat="44.4460889" lon="5.8203303">
        <ele>1427.2145996</ele>
        <time>2010-05-16T10:07:50Z</time>
      </trkpt>
      <trkpt lat="44.4460584" lon="5.8204573">
        <ele>1427.2145996</ele>
        <time>2010-05-16T10:07:59Z</time>
      </trkpt>
      <trkpt lat="44.4459710" lon="5.8206593">
        <ele>1429.1369629</ele>
        <time>2010-05-16T10:08:15Z</time>
      </trkpt>
      <trkpt lat="44.4458728" lon="5.8208619">
        <ele>1429.6176758</ele>
        <time>2010-05-16T10:08:32Z</time>
      </trkpt>
      <trkpt lat="44.4458580" lon="5.8208810">
        <ele>1430.0983887</ele>
        <time>2010-05-16T10:08:34Z</time>
      </trkpt>
      <trkpt lat="44.4458425" lon="5.8209155">
        <ele>1430.5791016</ele>
        <time>2010-05-16T10:08:37Z</time>
      </trkpt>
      <trkpt lat="44.4457155" lon="5.8210693">
        <ele>1432.9821777</ele>
        <time>2010-05-16T10:08:54Z</time>
      </trkpt>
      <trkpt lat="44.4455899" lon="5.8211925">
        <ele>1434.4243164</ele>
        <time>2010-05-16T10:09:09Z</time>
      </trkpt>
      <trkpt lat="44.4455606" lon="5.8212358">
        <ele>1435.3854980</ele>
        <time>2010-05-16T10:09:27Z</time>
      </trkpt>
      <trkpt lat="44.4455606" lon="5.8212358">
        <ele>1434.9050293</ele>
        <time>2010-05-16T10:09:40Z</time>
      </trkpt>
      <trkpt lat="44.4454311" lon="5.8212181">
        <ele>1436.3471680</ele>
        <time>2010-05-16T10:09:54Z</time>
      </trkpt>
      <trkpt lat="44.4454247" lon="5.8212162">
        <ele>1436.3471680</ele>
        <time>2010-05-16T10:10:09Z</time>
      </trkpt>
      <trkpt lat="44.4453363" lon="5.8211465">
        <ele>1437.3083496</ele>
        <time>2010-05-16T10:10:24Z</time>
      </trkpt>
      <trkpt lat="44.4451958" lon="5.8211186">
        <ele>1439.2309570</ele>
        <time>2010-05-16T10:10:38Z</time>
      </trkpt>
      <trkpt lat="44.4450856" lon="5.8211855">
        <ele>1440.1923828</ele>
        <time>2010-05-16T10:10:51Z</time>
      </trkpt>
      <trkpt lat="44.4449864" lon="5.8213022">
        <ele>1442.1149902</ele>
        <time>2010-05-16T10:11:05Z</time>
      </trkpt>
      <trkpt lat="44.4449248" lon="5.8214562">
        <ele>1442.5957031</ele>
        <time>2010-05-16T10:11:19Z</time>
      </trkpt>
      <trkpt lat="44.4448831" lon="5.8215993">
        <ele>1444.5180664</ele>
        <time>2010-05-16T10:11:31Z</time>
      </trkpt>
      <trkpt lat="44.4448461" lon="5.8216475">
        <ele>1445.9602051</ele>
        <time>2010-05-16T10:11:37Z</time>
      </trkpt>
      <trkpt lat="44.4447443" lon="5.8216778">
        <ele>1448.3632813</ele>
        <time>2010-05-16T10:11:50Z</time>
      </trkpt>
      <trkpt lat="44.4446304" lon="5.8217393">
        <ele>1450.2861328</ele>
        <time>2010-05-16T10:12:04Z</time>
      </trkpt>
      <trkpt lat="44.4445277" lon="5.8218691">
        <ele>1451.7280273</ele>
        <time>2010-05-16T10:12:18Z</time>
      </trkpt>
      <trkpt lat="44.4444930" lon="5.8219404">
        <ele>1452.2087402</ele>
        <time>2010-05-16T10:12:24Z</time>
      </trkpt>
      <trkpt lat="44.4444782" lon="5.8219570">
        <ele>1452.2087402</ele>
        <time>2010-05-16T10:12:26Z</time>
      </trkpt>
      <trkpt lat="44.4443658" lon="5.8221189">
        <ele>1453.1701660</ele>
        <time>2010-05-16T10:12:43Z</time>
      </trkpt>
      <trkpt lat="44.4442423" lon="5.8222951">
        <ele>1456.0539551</ele>
        <time>2010-05-16T10:13:00Z</time>
      </trkpt>
      <trkpt lat="44.4441695" lon="5.8223786">
        <ele>1457.4960938</ele>
        <time>2010-05-16T10:13:09Z</time>
      </trkpt>
      <trkpt lat="44.4441101" lon="5.8224502">
        <ele>1458.4572754</ele>
        <time>2010-05-16T10:13:17Z</time>
      </trkpt>
      <trkpt lat="44.4440159" lon="5.8226026">
        <ele>1460.3798828</ele>
        <time>2010-05-16T10:13:33Z</time>
      </trkpt>
      <trkpt lat="44.4439233" lon="5.8227411">
        <ele>1461.3413086</ele>
        <time>2010-05-16T10:13:48Z</time>
      </trkpt>
      <trkpt lat="44.4437858" lon="5.8228968">
        <ele>1463.2639160</ele>
        <time>2010-05-16T10:14:06Z</time>
      </trkpt>
      <trkpt lat="44.4436675" lon="5.8230264">
        <ele>1465.1865234</ele>
        <time>2010-05-16T10:14:23Z</time>
      </trkpt>
      <trkpt lat="44.4435592" lon="5.8231334">
        <ele>1466.6284180</ele>
        <time>2010-05-16T10:14:38Z</time>
      </trkpt>
      <trkpt lat="44.4434426" lon="5.8232286">
        <ele>1469.0319824</ele>
        <time>2010-05-16T10:14:53Z</time>
      </trkpt>
      <trkpt lat="44.4433217" lon="5.8233251">
        <ele>1470.4738770</ele>
        <time>2010-05-16T10:15:08Z</time>
      </trkpt>
      <trkpt lat="44.4432086" lon="5.8234184">
        <ele>1472.3964844</ele>
        <time>2010-05-16T10:15:23Z</time>
      </trkpt>
      <trkpt lat="44.4431254" lon="5.8235407">
        <ele>1473.8383789</ele>
        <time>2010-05-16T10:15:36Z</time>
      </trkpt>
      <trkpt lat="44.4430589" lon="5.8236465">
        <ele>1474.7998047</ele>
        <time>2010-05-16T10:15:47Z</time>
      </trkpt>
      <trkpt lat="44.4429779" lon="5.8237644">
        <ele>1476.2416992</ele>
        <time>2010-05-16T10:15:58Z</time>
      </trkpt>
      <trkpt lat="44.4428691" lon="5.8239156">
        <ele>1477.2031250</ele>
        <time>2010-05-16T10:16:13Z</time>
      </trkpt>
      <trkpt lat="44.4428329" lon="5.8239622">
        <ele>1478.6450195</ele>
        <time>2010-05-16T10:16:18Z</time>
      </trkpt>
      <trkpt lat="44.4428218" lon="5.8239814">
        <ele>1479.1254883</ele>
        <time>2010-05-16T10:16:20Z</time>
      </trkpt>
      <trkpt lat="44.4427328" lon="5.8241072">
        <ele>1480.5676270</ele>
        <time>2010-05-16T10:16:34Z</time>
      </trkpt>
      <trkpt lat="44.4426430" lon="5.8242217">
        <ele>1482.0095215</ele>
        <time>2010-05-16T10:16:47Z</time>
      </trkpt>
      <trkpt lat="44.4426260" lon="5.8242373">
        <ele>1482.0095215</ele>
        <time>2010-05-16T10:16:49Z</time>
      </trkpt>
      <trkpt lat="44.4426122" lon="5.8242586">
        <ele>1482.4902344</ele>
        <time>2010-05-16T10:16:51Z</time>
      </trkpt>
      <trkpt lat="44.4425577" lon="5.8243350">
        <ele>1483.4514160</ele>
        <time>2010-05-16T10:16:59Z</time>
      </trkpt>
      <trkpt lat="44.4424549" lon="5.8244752">
        <ele>1485.3742676</ele>
        <time>2010-05-16T10:17:14Z</time>
      </trkpt>
      <trkpt lat="44.4423342" lon="5.8246441">
        <ele>1486.8161621</ele>
        <time>2010-05-16T10:17:31Z</time>
      </trkpt>
      <trkpt lat="44.4422266" lon="5.8248205">
        <ele>1488.2583008</ele>
        <time>2010-05-16T10:17:48Z</time>
      </trkpt>
      <trkpt lat="44.4421748" lon="5.8248900">
        <ele>1489.7001953</ele>
        <time>2010-05-16T10:18:01Z</time>
      </trkpt>
      <trkpt lat="44.4421854" lon="5.8248722">
        <ele>1486.8161621</ele>
        <time>2010-05-16T10:18:22Z</time>
      </trkpt>
      <trkpt lat="44.4421350" lon="5.8249775">
        <ele>1488.2583008</ele>
        <time>2010-05-16T10:18:38Z</time>
      </trkpt>
      <trkpt lat="44.4420578" lon="5.8251030">
        <ele>1490.1809082</ele>
        <time>2010-05-16T10:18:52Z</time>
      </trkpt>
      <trkpt lat="44.4420149" lon="5.8251729">
        <ele>1491.1420898</ele>
        <time>2010-05-16T10:19:09Z</time>
      </trkpt>
      <trkpt lat="44.4419971" lon="5.8251836">
        <ele>1492.5842285</ele>
        <time>2010-05-16T10:19:23Z</time>
      </trkpt>
      <trkpt lat="44.4419303" lon="5.8252776">
        <ele>1493.0646973</ele>
        <time>2010-05-16T10:19:37Z</time>
      </trkpt>
      <trkpt lat="44.4418502" lon="5.8253651">
        <ele>1494.5065918</ele>
        <time>2010-05-16T10:19:51Z</time>
      </trkpt>
      <trkpt lat="44.4417421" lon="5.8254734">
        <ele>1496.9099121</ele>
        <time>2010-05-16T10:20:07Z</time>
      </trkpt>
      <trkpt lat="44.4416388" lon="5.8255806">
        <ele>1498.8325195</ele>
        <time>2010-05-16T10:20:22Z</time>
      </trkpt>
      <trkpt lat="44.4416000" lon="5.8256159">
        <ele>1499.7939453</ele>
        <time>2010-05-16T10:20:27Z</time>
      </trkpt>
      <trkpt lat="44.4414881" lon="5.8257408">
        <ele>1500.7553711</ele>
        <time>2010-05-16T10:20:42Z</time>
      </trkpt>
      <trkpt lat="44.4413620" lon="5.8258788">
        <ele>1502.1972656</ele>
        <time>2010-05-16T10:20:58Z</time>
      </trkpt>
      <trkpt lat="44.4412332" lon="5.8260501">
        <ele>1504.6005859</ele>
        <time>2010-05-16T10:21:15Z</time>
      </trkpt>
      <trkpt lat="44.4411869" lon="5.8261149">
        <ele>1505.5620117</ele>
        <time>2010-05-16T10:21:21Z</time>
      </trkpt>
      <trkpt lat="44.4411488" lon="5.8261940">
        <ele>1506.5231934</ele>
        <time>2010-05-16T10:21:28Z</time>
      </trkpt>
      <trkpt lat="44.4411101" lon="5.8262620">
        <ele>1507.0039063</ele>
        <time>2010-05-16T10:21:34Z</time>
      </trkpt>
      <trkpt lat="44.4410139" lon="5.8264721">
        <ele>1508.9265137</ele>
        <time>2010-05-16T10:21:51Z</time>
      </trkpt>
      <trkpt lat="44.4409544" lon="5.8266689">
        <ele>1510.8491211</ele>
        <time>2010-05-16T10:22:06Z</time>
      </trkpt>
      <trkpt lat="44.4409465" lon="5.8266905">
        <ele>1510.3684082</ele>
        <time>2010-05-16T10:22:08Z</time>
      </trkpt>
      <trkpt lat="44.4409434" lon="5.8267160">
        <ele>1509.8876953</ele>
        <time>2010-05-16T10:22:10Z</time>
      </trkpt>
      <trkpt lat="44.4409003" lon="5.8268542">
        <ele>1511.3298340</ele>
        <time>2010-05-16T10:22:21Z</time>
      </trkpt>
      <trkpt lat="44.4408786" lon="5.8269846">
        <ele>1511.8105469</ele>
        <time>2010-05-16T10:22:33Z</time>
      </trkpt>
      <trkpt lat="44.4408213" lon="5.8271619">
        <ele>1513.2524414</ele>
        <time>2010-05-16T10:22:47Z</time>
      </trkpt>
      <trkpt lat="44.4407584" lon="5.8273266">
        <ele>1514.6943359</ele>
        <time>2010-05-16T10:23:00Z</time>
      </trkpt>
      <trkpt lat="44.4406901" lon="5.8274626">
        <ele>1516.6171875</ele>
        <time>2010-05-16T10:23:13Z</time>
      </trkpt>
      <trkpt lat="44.4406134" lon="5.8276432">
        <ele>1517.0979004</ele>
        <time>2010-05-16T10:23:28Z</time>
      </trkpt>
      <trkpt lat="44.4406035" lon="5.8276846">
        <ele>1517.5783691</ele>
        <time>2010-05-16T10:23:32Z</time>
      </trkpt>
      <trkpt lat="44.4405891" lon="5.8277058">
        <ele>1517.5783691</ele>
        <time>2010-05-16T10:23:34Z</time>
      </trkpt>
      <trkpt lat="44.4405847" lon="5.8277307">
        <ele>1518.0590820</ele>
        <time>2010-05-16T10:23:36Z</time>
      </trkpt>
      <trkpt lat="44.4405713" lon="5.8277486">
        <ele>1518.5397949</ele>
        <time>2010-05-16T10:23:38Z</time>
      </trkpt>
      <trkpt lat="44.4404878" lon="5.8279133">
        <ele>1519.9816895</ele>
        <time>2010-05-16T10:23:55Z</time>
      </trkpt>
      <trkpt lat="44.4404228" lon="5.8280563">
        <ele>1521.4235840</ele>
        <time>2010-05-16T10:24:09Z</time>
      </trkpt>
      <trkpt lat="44.4403263" lon="5.8282525">
        <ele>1523.8269043</ele>
        <time>2010-05-16T10:24:26Z</time>
      </trkpt>
      <trkpt lat="44.4402062" lon="5.8284682">
        <ele>1526.7109375</ele>
        <time>2010-05-16T10:24:46Z</time>
      </trkpt>
      <trkpt lat="44.4401317" lon="5.8285766">
        <ele>1528.6335449</ele>
        <time>2010-05-16T10:25:01Z</time>
      </trkpt>
      <trkpt lat="44.4401256" lon="5.8285798">
        <ele>1527.1916504</ele>
        <time>2010-05-16T10:25:23Z</time>
      </trkpt>
      <trkpt lat="44.4401134" lon="5.8285961">
        <ele>1528.1528320</ele>
        <time>2010-05-16T10:25:39Z</time>
      </trkpt>
      <trkpt lat="44.4401053" lon="5.8286181">
        <ele>1528.1528320</ele>
        <time>2010-05-16T10:25:55Z</time>
      </trkpt>
      <trkpt lat="44.4401011" lon="5.8286291">
        <ele>1529.5947266</ele>
        <time>2010-05-16T10:26:10Z</time>
      </trkpt>
      <trkpt lat="44.4400786" lon="5.8286697">
        <ele>1529.5947266</ele>
        <time>2010-05-16T10:26:33Z</time>
      </trkpt>
      <trkpt lat="44.4400723" lon="5.8286972">
        <ele>1530.0754395</ele>
        <time>2010-05-16T10:26:49Z</time>
      </trkpt>
      <trkpt lat="44.4399989" lon="5.8287986">
        <ele>1531.5173340</ele>
        <time>2010-05-16T10:27:01Z</time>
      </trkpt>
      <trkpt lat="44.4399020" lon="5.8289974">
        <ele>1532.4790039</ele>
        <time>2010-05-16T10:27:15Z</time>
      </trkpt>
      <trkpt lat="44.4398561" lon="5.8292349">
        <ele>1534.8823242</ele>
        <time>2010-05-16T10:27:28Z</time>
      </trkpt>
      <trkpt lat="44.4398391" lon="5.8294560">
        <ele>1535.8435059</ele>
        <time>2010-05-16T10:27:40Z</time>
      </trkpt>
      <trkpt lat="44.4398482" lon="5.8296489">
        <ele>1537.7661133</ele>
        <time>2010-05-16T10:27:51Z</time>
      </trkpt>
      <trkpt lat="44.4398464" lon="5.8297212">
        <ele>1537.7661133</ele>
        <time>2010-05-16T10:27:55Z</time>
      </trkpt>
      <trkpt lat="44.4398393" lon="5.8298442">
        <ele>1539.2080078</ele>
        <time>2010-05-16T10:28:02Z</time>
      </trkpt>
      <trkpt lat="44.4398143" lon="5.8299922">
        <ele>1540.6499023</ele>
        <time>2010-05-16T10:28:11Z</time>
      </trkpt>
      <trkpt lat="44.4398009" lon="5.8301105">
        <ele>1541.1306152</ele>
        <time>2010-05-16T10:28:18Z</time>
      </trkpt>
      <trkpt lat="44.4397771" lon="5.8303474">
        <ele>1542.5727539</ele>
        <time>2010-05-16T10:28:32Z</time>
      </trkpt>
      <trkpt lat="44.4397667" lon="5.8305086">
        <ele>1544.9758301</ele>
        <time>2010-05-16T10:28:42Z</time>
      </trkpt>
      <trkpt lat="44.4397595" lon="5.8305909">
        <ele>1544.9758301</ele>
        <time>2010-05-16T10:28:47Z</time>
      </trkpt>
      <trkpt lat="44.4397501" lon="5.8306244">
        <ele>1545.9372559</ele>
        <time>2010-05-16T10:29:07Z</time>
      </trkpt>
      <trkpt lat="44.4397590" lon="5.8306759">
        <ele>1545.9372559</ele>
        <time>2010-05-16T10:29:21Z</time>
      </trkpt>
      <trkpt lat="44.4397331" lon="5.8307362">
        <ele>1546.8984375</ele>
        <time>2010-05-16T10:29:37Z</time>
      </trkpt>
      <trkpt lat="44.4397299" lon="5.8307371">
        <ele>1547.3791504</ele>
        <time>2010-05-16T10:29:58Z</time>
      </trkpt>
      <trkpt lat="44.4397279" lon="5.8307363">
        <ele>1546.4179688</ele>
        <time>2010-05-16T10:30:22Z</time>
      </trkpt>
      <trkpt lat="44.4397160" lon="5.8307448">
        <ele>1546.8984375</ele>
        <time>2010-05-16T10:30:54Z</time>
      </trkpt>
      <trkpt lat="44.4397150" lon="5.8307432">
        <ele>1546.8984375</ele>
        <time>2010-05-16T10:31:11Z</time>
      </trkpt>
      <trkpt lat="44.4397102" lon="5.8307515">
        <ele>1547.8598633</ele>
        <time>2010-05-16T10:31:37Z</time>
      </trkpt>
      <trkpt lat="44.4397079" lon="5.8307605">
        <ele>1546.8984375</ele>
        <time>2010-05-16T10:32:20Z</time>
      </trkpt>
      <trkpt lat="44.4397056" lon="5.8307596">
        <ele>1547.3791504</ele>
        <time>2010-05-16T10:33:30Z</time>
      </trkpt>
      <trkpt lat="44.4397054" lon="5.8307616">
        <ele>1546.8984375</ele>
        <time>2010-05-16T10:34:11Z</time>
      </trkpt>
      <trkpt lat="44.4397039" lon="5.8307665">
        <ele>1546.4179688</ele>
        <time>2010-05-16T10:35:05Z</time>
      </trkpt>
      <trkpt lat="44.4397036" lon="5.8307713">
        <ele>1545.9372559</ele>
        <time>2010-05-16T10:35:38Z</time>
      </trkpt>
      <trkpt lat="44.4397027" lon="5.8307688">
        <ele>1546.4179688</ele>
        <time>2010-05-16T10:36:24Z</time>
      </trkpt>
      <trkpt lat="44.4397010" lon="5.8307735">
        <ele>1545.9372559</ele>
        <time>2010-05-16T10:37:57Z</time>
      </trkpt>
      <trkpt lat="44.4397008" lon="5.8307734">
        <ele>1545.4565430</ele>
        <time>2010-05-16T10:38:35Z</time>
      </trkpt>
      <trkpt lat="44.4396994" lon="5.8307744">
        <ele>1546.8984375</ele>
        <time>2010-05-16T10:38:51Z</time>
      </trkpt>
      <trkpt lat="44.4397013" lon="5.8307771">
        <ele>1544.9758301</ele>
        <time>2010-05-16T10:39:47Z</time>
      </trkpt>
      <trkpt lat="44.4397013" lon="5.8307771">
        <ele>1546.8984375</ele>
        <time>2010-05-16T10:39:50Z</time>
      </trkpt>
      <trkpt lat="44.4396920" lon="5.8307708">
        <ele>1544.9758301</ele>
        <time>2010-05-16T10:40:27Z</time>
      </trkpt>
      <trkpt lat="44.4396762" lon="5.8307403">
        <ele>1546.8984375</ele>
        <time>2010-05-16T10:40:37Z</time>
      </trkpt>
      <trkpt lat="44.4396271" lon="5.8307293">
        <ele>1548.3405762</ele>
        <time>2010-05-16T10:40:51Z</time>
      </trkpt>
      <trkpt lat="44.4396696" lon="5.8307344">
        <ele>1546.8984375</ele>
        <time>2010-05-16T10:41:03Z</time>
      </trkpt>
      <trkpt lat="44.4396763" lon="5.8307733">
        <ele>1546.4179688</ele>
        <time>2010-05-16T10:41:11Z</time>
      </trkpt>
      <trkpt lat="44.4395901" lon="5.8308729">
        <ele>1545.9372559</ele>
        <time>2010-05-16T10:41:27Z</time>
      </trkpt>
      <trkpt lat="44.4395921" lon="5.8308541">
        <ele>1546.8984375</ele>
        <time>2010-05-16T10:41:39Z</time>
      </trkpt>
      <trkpt lat="44.4395924" lon="5.8308418">
        <ele>1548.8212891</ele>
        <time>2010-05-16T10:41:42Z</time>
      </trkpt>
      <trkpt lat="44.4396103" lon="5.8308305">
        <ele>1548.3405762</ele>
        <time>2010-05-16T10:42:10Z</time>
      </trkpt>
      <trkpt lat="44.4396046" lon="5.8308181">
        <ele>1548.8212891</ele>
        <time>2010-05-16T10:42:29Z</time>
      </trkpt>
      <trkpt lat="44.4396035" lon="5.8308234">
        <ele>1547.3791504</ele>
        <time>2010-05-16T10:42:50Z</time>
      </trkpt>
      <trkpt lat="44.4396000" lon="5.8308551">
        <ele>1546.4179688</ele>
        <time>2010-05-16T10:43:00Z</time>
      </trkpt>
      <trkpt lat="44.4395230" lon="5.8310072">
        <ele>1544.4951172</ele>
        <time>2010-05-16T10:43:13Z</time>
      </trkpt>
      <trkpt lat="44.4394944" lon="5.8310274">
        <ele>1544.0146484</ele>
        <time>2010-05-16T10:43:16Z</time>
      </trkpt>
      <trkpt lat="44.4393109" lon="5.8311428">
        <ele>1541.6113281</ele>
        <time>2010-05-16T10:43:33Z</time>
      </trkpt>
      <trkpt lat="44.4392472" lon="5.8311909">
        <ele>1541.1306152</ele>
        <time>2010-05-16T10:43:39Z</time>
      </trkpt>
      <trkpt lat="44.4390478" lon="5.8313038">
        <ele>1537.7661133</ele>
        <time>2010-05-16T10:43:57Z</time>
      </trkpt>
      <trkpt lat="44.4389815" lon="5.8313460">
        <ele>1535.8435059</ele>
        <time>2010-05-16T10:44:03Z</time>
      </trkpt>
      <trkpt lat="44.4389091" lon="5.8314127">
        <ele>1535.3627930</ele>
        <time>2010-05-16T10:44:10Z</time>
      </trkpt>
      <trkpt lat="44.4388677" lon="5.8314397">
        <ele>1535.3627930</ele>
        <time>2010-05-16T10:44:14Z</time>
      </trkpt>
      <trkpt lat="44.4387821" lon="5.8315648">
        <ele>1535.3627930</ele>
        <time>2010-05-16T10:44:24Z</time>
      </trkpt>
      <trkpt lat="44.4386489" lon="5.8317764">
        <ele>1535.3627930</ele>
        <time>2010-05-16T10:44:40Z</time>
      </trkpt>
      <trkpt lat="44.4385852" lon="5.8318561">
        <ele>1535.3627930</ele>
        <time>2010-05-16T10:44:47Z</time>
      </trkpt>
      <trkpt lat="44.4385341" lon="5.8319028">
        <ele>1535.3627930</ele>
        <time>2010-05-16T10:44:52Z</time>
      </trkpt>
      <trkpt lat="44.4384313" lon="5.8319614">
        <ele>1534.4016113</ele>
        <time>2010-05-16T10:45:03Z</time>
      </trkpt>
      <trkpt lat="44.4383743" lon="5.8319612">
        <ele>1533.4401855</ele>
        <time>2010-05-16T10:45:16Z</time>
      </trkpt>
      <trkpt lat="44.4382709" lon="5.8319799">
        <ele>1532.9594727</ele>
        <time>2010-05-16T10:45:24Z</time>
      </trkpt>
      <trkpt lat="44.4380452" lon="5.8320866">
        <ele>1531.9980469</ele>
        <time>2010-05-16T10:45:40Z</time>
      </trkpt>
      <trkpt lat="44.4379505" lon="5.8321588">
        <ele>1531.5173340</ele>
        <time>2010-05-16T10:45:47Z</time>
      </trkpt>
      <trkpt lat="44.4377748" lon="5.8322981">
        <ele>1530.0754395</ele>
        <time>2010-05-16T10:46:00Z</time>
      </trkpt>
      <trkpt lat="44.4377627" lon="5.8323114">
        <ele>1530.0754395</ele>
        <time>2010-05-16T10:46:01Z</time>
      </trkpt>
      <trkpt lat="44.4377352" lon="5.8323312">
        <ele>1530.0754395</ele>
        <time>2010-05-16T10:46:03Z</time>
      </trkpt>
      <trkpt lat="44.4376868" lon="5.8323752">
        <ele>1529.1140137</ele>
        <time>2010-05-16T10:46:07Z</time>
      </trkpt>
      <trkpt lat="44.4376138" lon="5.8324166">
        <ele>1528.6335449</ele>
        <time>2010-05-16T10:46:13Z</time>
      </trkpt>
      <trkpt lat="44.4375474" lon="5.8324477">
        <ele>1527.6721191</ele>
        <time>2010-05-16T10:46:19Z</time>
      </trkpt>
      <trkpt lat="44.4375043" lon="5.8324799">
        <ele>1527.1916504</ele>
        <time>2010-05-16T10:46:23Z</time>
      </trkpt>
      <trkpt lat="44.4374640" lon="5.8325222">
        <ele>1526.2302246</ele>
        <time>2010-05-16T10:46:27Z</time>
      </trkpt>
      <trkpt lat="44.4374171" lon="5.8325368">
        <ele>1525.7495117</ele>
        <time>2010-05-16T10:46:31Z</time>
      </trkpt>
      <trkpt lat="44.4372891" lon="5.8326224">
        <ele>1523.3464355</ele>
        <time>2010-05-16T10:46:43Z</time>
      </trkpt>
      <trkpt lat="44.4372114" lon="5.8326768">
        <ele>1521.9042969</ele>
        <time>2010-05-16T10:46:51Z</time>
      </trkpt>
      <trkpt lat="44.4370835" lon="5.8327427">
        <ele>1519.9816895</ele>
        <time>2010-05-16T10:47:03Z</time>
      </trkpt>
      <trkpt lat="44.4369277" lon="5.8328391">
        <ele>1518.0590820</ele>
        <time>2010-05-16T10:47:19Z</time>
      </trkpt>
      <trkpt lat="44.4367815" lon="5.8329652">
        <ele>1516.1364746</ele>
        <time>2010-05-16T10:47:34Z</time>
      </trkpt>
      <trkpt lat="44.4367815" lon="5.8329652">
        <ele>1516.1364746</ele>
        <time>2010-05-16T10:47:51Z</time>
      </trkpt>
      <trkpt lat="44.4365901" lon="5.8331725">
        <ele>1514.2136230</ele>
        <time>2010-05-16T10:48:07Z</time>
      </trkpt>
      <trkpt lat="44.4364756" lon="5.8332554">
        <ele>1513.2524414</ele>
        <time>2010-05-16T10:48:15Z</time>
      </trkpt>
      <trkpt lat="44.4363655" lon="5.8333354">
        <ele>1511.3298340</ele>
        <time>2010-05-16T10:48:23Z</time>
      </trkpt>
      <trkpt lat="44.4363127" lon="5.8333784">
        <ele>1510.8491211</ele>
        <time>2010-05-16T10:48:27Z</time>
      </trkpt>
      <trkpt lat="44.4362445" lon="5.8334498">
        <ele>1510.3684082</ele>
        <time>2010-05-16T10:48:33Z</time>
      </trkpt>
      <trkpt lat="44.4361720" lon="5.8335727">
        <ele>1509.4072266</ele>
        <time>2010-05-16T10:48:41Z</time>
      </trkpt>
      <trkpt lat="44.4361217" lon="5.8336462">
        <ele>1507.9653320</ele>
        <time>2010-05-16T10:48:47Z</time>
      </trkpt>
      <trkpt lat="44.4360577" lon="5.8337564">
        <ele>1506.0424805</ele>
        <time>2010-05-16T10:48:56Z</time>
      </trkpt>
      <trkpt lat="44.4360376" lon="5.8337962">
        <ele>1506.0424805</ele>
        <time>2010-05-16T10:48:59Z</time>
      </trkpt>
      <trkpt lat="44.4359640" lon="5.8339908">
        <ele>1504.6005859</ele>
        <time>2010-05-16T10:49:14Z</time>
      </trkpt>
      <trkpt lat="44.4359304" lon="5.8341109">
        <ele>1503.6394043</ele>
        <time>2010-05-16T10:49:23Z</time>
      </trkpt>
      <trkpt lat="44.4358587" lon="5.8342950">
        <ele>1501.2360840</ele>
        <time>2010-05-16T10:49:37Z</time>
      </trkpt>
      <trkpt lat="44.4358431" lon="5.8343110">
        <ele>1500.7553711</ele>
        <time>2010-05-16T10:49:39Z</time>
      </trkpt>
      <trkpt lat="44.4358062" lon="5.8343348">
        <ele>1500.2749023</ele>
        <time>2010-05-16T10:49:43Z</time>
      </trkpt>
      <trkpt lat="44.4357802" lon="5.8343343">
        <ele>1499.7939453</ele>
        <time>2010-05-16T10:50:01Z</time>
      </trkpt>
      <trkpt lat="44.4358032" lon="5.8343970">
        <ele>1499.7939453</ele>
        <time>2010-05-16T10:50:11Z</time>
      </trkpt>
      <trkpt lat="44.4357977" lon="5.8344547">
        <ele>1499.7939453</ele>
        <time>2010-05-16T10:50:26Z</time>
      </trkpt>
      <trkpt lat="44.4358081" lon="5.8344603">
        <ele>1499.3132324</ele>
        <time>2010-05-16T10:50:47Z</time>
      </trkpt>
      <trkpt lat="44.4358081" lon="5.8344620">
        <ele>1499.7939453</ele>
        <time>2010-05-16T10:51:32Z</time>
      </trkpt>
      <trkpt lat="44.4358111" lon="5.8344768">
        <ele>1499.7939453</ele>
        <time>2010-05-16T10:51:54Z</time>
      </trkpt>
      <trkpt lat="44.4358283" lon="5.8345047">
        <ele>1499.3132324</ele>
        <time>2010-05-16T10:52:06Z</time>
      </trkpt>
      <trkpt lat="44.4358301" lon="5.8345132">
        <ele>1499.3132324</ele>
        <time>2010-05-16T10:52:32Z</time>
      </trkpt>
      <trkpt lat="44.4358305" lon="5.8345147">
        <ele>1498.8325195</ele>
        <time>2010-05-16T10:53:23Z</time>
      </trkpt>
      <trkpt lat="44.4358324" lon="5.8345116">
        <ele>1499.3132324</ele>
        <time>2010-05-16T10:54:16Z</time>
      </trkpt>
      <trkpt lat="44.4358335" lon="5.8345099">
        <ele>1501.2360840</ele>
        <time>2010-05-16T10:54:41Z</time>
      </trkpt>
      <trkpt lat="44.4358333" lon="5.8345090">
        <ele>1499.3132324</ele>
        <time>2010-05-16T10:55:26Z</time>
      </trkpt>
      <trkpt lat="44.4358332" lon="5.8345036">
        <ele>1498.8325195</ele>
        <time>2010-05-16T10:55:48Z</time>
      </trkpt>
      <trkpt lat="44.4358270" lon="5.8345018">
        <ele>1501.2360840</ele>
        <time>2010-05-16T10:57:32Z</time>
      </trkpt>
      <trkpt lat="44.4358248" lon="5.8345012">
        <ele>1499.3132324</ele>
        <time>2010-05-16T10:59:11Z</time>
      </trkpt>
      <trkpt lat="44.4358320" lon="5.8345042">
        <ele>1498.8325195</ele>
        <time>2010-05-16T11:00:37Z</time>
      </trkpt>
      <trkpt lat="44.4358263" lon="5.8345029">
        <ele>1498.3518066</ele>
        <time>2010-05-16T11:02:04Z</time>
      </trkpt>
      <trkpt lat="44.4358278" lon="5.8345031">
        <ele>1498.3518066</ele>
        <time>2010-05-16T11:03:22Z</time>
      </trkpt>
      <trkpt lat="44.4358259" lon="5.8345030">
        <ele>1497.8713379</ele>
        <time>2010-05-16T11:04:52Z</time>
      </trkpt>
      <trkpt lat="44.4358242" lon="5.8345080">
        <ele>1501.7167969</ele>
        <time>2010-05-16T11:07:04Z</time>
      </trkpt>
      <trkpt lat="44.4358242" lon="5.8345080">
        <ele>1501.7167969</ele>
        <time>2010-05-16T11:07:05Z</time>
      </trkpt>
      <trkpt lat="44.4358226" lon="5.8345081">
        <ele>1498.3518066</ele>
        <time>2010-05-16T11:08:33Z</time>
      </trkpt>
      <trkpt lat="44.4358245" lon="5.8345096">
        <ele>1497.8713379</ele>
        <time>2010-05-16T11:08:50Z</time>
      </trkpt>
      <trkpt lat="44.4358273" lon="5.8345032">
        <ele>1498.8325195</ele>
        <time>2010-05-16T11:11:28Z</time>
      </trkpt>
      <trkpt lat="44.4358304" lon="5.8345053">
        <ele>1497.3906250</ele>
        <time>2010-05-16T11:13:09Z</time>
      </trkpt>
      <trkpt lat="44.4358302" lon="5.8345024">
        <ele>1499.7939453</ele>
        <time>2010-05-16T11:14:54Z</time>
      </trkpt>
      <trkpt lat="44.4358346" lon="5.8344973">
        <ele>1498.3518066</ele>
        <time>2010-05-16T11:15:17Z</time>
      </trkpt>
      <trkpt lat="44.4358332" lon="5.8344950">
        <ele>1494.9873047</ele>
        <time>2010-05-16T11:16:37Z</time>
      </trkpt>
      <trkpt lat="44.4358332" lon="5.8344950">
        <ele>1496.4294434</ele>
        <time>2010-05-16T11:16:45Z</time>
      </trkpt>
      <trkpt lat="44.4358337" lon="5.8344965">
        <ele>1499.7939453</ele>
        <time>2010-05-16T11:17:08Z</time>
      </trkpt>
      <trkpt lat="44.4358367" lon="5.8345063">
        <ele>1496.9099121</ele>
        <time>2010-05-16T11:21:46Z</time>
      </trkpt>
      <trkpt lat="44.4358367" lon="5.8345038">
        <ele>1498.8325195</ele>
        <time>2010-05-16T11:23:06Z</time>
      </trkpt>
      <trkpt lat="44.4358397" lon="5.8344986">
        <ele>1502.1972656</ele>
        <time>2010-05-16T11:25:31Z</time>
      </trkpt>
      <trkpt lat="44.4358399" lon="5.8344974">
        <ele>1499.3132324</ele>
        <time>2010-05-16T11:26:02Z</time>
      </trkpt>
      <trkpt lat="44.4358365" lon="5.8344959">
        <ele>1498.3518066</ele>
        <time>2010-05-16T11:28:05Z</time>
      </trkpt>
      <trkpt lat="44.4358350" lon="5.8344937">
        <ele>1496.9099121</ele>
        <time>2010-05-16T11:29:22Z</time>
      </trkpt>
      <trkpt lat="44.4358360" lon="5.8344927">
        <ele>1500.2749023</ele>
        <time>2010-05-16T11:31:56Z</time>
      </trkpt>
      <trkpt lat="44.4358396" lon="5.8344921">
        <ele>1496.9099121</ele>
        <time>2010-05-16T11:35:09Z</time>
      </trkpt>
      <trkpt lat="44.4358433" lon="5.8344973">
        <ele>1500.2749023</ele>
        <time>2010-05-16T11:44:46Z</time>
      </trkpt>
      <trkpt lat="44.4358424" lon="5.8344970">
        <ele>1498.8325195</ele>
        <time>2010-05-16T11:45:08Z</time>
      </trkpt>
      <trkpt lat="44.4358402" lon="5.8344976">
        <ele>1495.9487305</ele>
        <time>2010-05-16T11:49:42Z</time>
      </trkpt>
      <trkpt lat="44.4358391" lon="5.8344980">
        <ele>1498.8325195</ele>
        <time>2010-05-16T11:51:04Z</time>
      </trkpt>
      <trkpt lat="44.4358415" lon="5.8344981">
        <ele>1499.3132324</ele>
        <time>2010-05-16T11:52:08Z</time>
      </trkpt>
      <trkpt lat="44.4358415" lon="5.8345005">
        <ele>1495.9487305</ele>
        <time>2010-05-16T11:55:09Z</time>
      </trkpt>
      <trkpt lat="44.4358395" lon="5.8345018">
        <ele>1497.3906250</ele>
        <time>2010-05-16T11:56:29Z</time>
      </trkpt>
      <trkpt lat="44.4358395" lon="5.8345018">
        <ele>1498.8325195</ele>
        <time>2010-05-16T11:56:31Z</time>
      </trkpt>
      <trkpt lat="44.4358395" lon="5.8345018">
        <ele>1497.3906250</ele>
        <time>2010-05-16T11:56:40Z</time>
      </trkpt>
      <trkpt lat="44.4358395" lon="5.8345018">
        <ele>1499.7939453</ele>
        <time>2010-05-16T11:56:44Z</time>
      </trkpt>
      <trkpt lat="44.4358395" lon="5.8345018">
        <ele>1500.2749023</ele>
        <time>2010-05-16T11:56:49Z</time>
      </trkpt>
      <trkpt lat="44.4358402" lon="5.8345021">
        <ele>1496.4294434</ele>
        <time>2010-05-16T11:57:22Z</time>
      </trkpt>
      <trkpt lat="44.4358402" lon="5.8345021">
        <ele>1496.4294434</ele>
        <time>2010-05-16T11:57:23Z</time>
      </trkpt>
      <trkpt lat="44.4358402" lon="5.8345021">
        <ele>1498.3518066</ele>
        <time>2010-05-16T11:57:29Z</time>
      </trkpt>
      <trkpt lat="44.4358402" lon="5.8345021">
        <ele>1496.4294434</ele>
        <time>2010-05-16T11:57:45Z</time>
      </trkpt>
      <trkpt lat="44.4358407" lon="5.8345043">
        <ele>1497.8713379</ele>
        <time>2010-05-16T11:57:50Z</time>
      </trkpt>
      <trkpt lat="44.4358418" lon="5.8345044">
        <ele>1496.9099121</ele>
        <time>2010-05-16T12:00:27Z</time>
      </trkpt>
      <trkpt lat="44.4358428" lon="5.8345054">
        <ele>1495.9487305</ele>
        <time>2010-05-16T12:01:07Z</time>
      </trkpt>
      <trkpt lat="44.4358428" lon="5.8345054">
        <ele>1498.3518066</ele>
        <time>2010-05-16T12:01:21Z</time>
      </trkpt>
      <trkpt lat="44.4358428" lon="5.8345054">
        <ele>1497.8713379</ele>
        <time>2010-05-16T12:01:32Z</time>
      </trkpt>
      <trkpt lat="44.4358435" lon="5.8345034">
        <ele>1494.5065918</ele>
        <time>2010-05-16T12:01:57Z</time>
      </trkpt>
      <trkpt lat="44.4358435" lon="5.8345034">
        <ele>1497.8713379</ele>
        <time>2010-05-16T12:01:58Z</time>
      </trkpt>
      <trkpt lat="44.4358435" lon="5.8345034">
        <ele>1499.3132324</ele>
        <time>2010-05-16T12:02:00Z</time>
      </trkpt>
      <trkpt lat="44.4358435" lon="5.8345034">
        <ele>1498.8325195</ele>
        <time>2010-05-16T12:02:09Z</time>
      </trkpt>
      <trkpt lat="44.4358440" lon="5.8345031">
        <ele>1496.9099121</ele>
        <time>2010-05-16T12:02:50Z</time>
      </trkpt>
      <trkpt lat="44.4358449" lon="5.8344811">
        <ele>1498.8325195</ele>
        <time>2010-05-16T12:03:02Z</time>
      </trkpt>
      <trkpt lat="44.4358448" lon="5.8344762">
        <ele>1499.3132324</ele>
        <time>2010-05-16T12:03:21Z</time>
      </trkpt>
      <trkpt lat="44.4358496" lon="5.8344744">
        <ele>1498.3518066</ele>
        <time>2010-05-16T12:03:43Z</time>
      </trkpt>
      <trkpt lat="44.4358918" lon="5.8345118">
        <ele>1498.3518066</ele>
        <time>2010-05-16T12:04:19Z</time>
      </trkpt>
      <trkpt lat="44.4359418" lon="5.8346456">
        <ele>1499.7939453</ele>
        <time>2010-05-16T12:04:35Z</time>
      </trkpt>
      <trkpt lat="44.4359675" lon="5.8348205">
        <ele>1500.2749023</ele>
        <time>2010-05-16T12:04:51Z</time>
      </trkpt>
      <trkpt lat="44.4359741" lon="5.8348635">
        <ele>1500.7553711</ele>
        <time>2010-05-16T12:04:55Z</time>
      </trkpt>
      <trkpt lat="44.4359838" lon="5.8349124">
        <ele>1500.7553711</ele>
        <time>2010-05-16T12:04:59Z</time>
      </trkpt>
      <trkpt lat="44.4360009" lon="5.8350625">
        <ele>1501.7167969</ele>
        <time>2010-05-16T12:05:15Z</time>
      </trkpt>
      <trkpt lat="44.4360048" lon="5.8352330">
        <ele>1504.6005859</ele>
        <time>2010-05-16T12:05:29Z</time>
      </trkpt>
      <trkpt lat="44.4360144" lon="5.8353993">
        <ele>1505.0812988</ele>
        <time>2010-05-16T12:05:42Z</time>
      </trkpt>
      <trkpt lat="44.4360296" lon="5.8356008">
        <ele>1506.0424805</ele>
        <time>2010-05-16T12:05:57Z</time>
      </trkpt>
      <trkpt lat="44.4360484" lon="5.8358203">
        <ele>1507.0039063</ele>
        <time>2010-05-16T12:06:13Z</time>
      </trkpt>
      <trkpt lat="44.4360588" lon="5.8359957">
        <ele>1508.4458008</ele>
        <time>2010-05-16T12:06:27Z</time>
      </trkpt>
      <trkpt lat="44.4360749" lon="5.8361862">
        <ele>1510.3684082</ele>
        <time>2010-05-16T12:06:42Z</time>
      </trkpt>
      <trkpt lat="44.4360823" lon="5.8363858">
        <ele>1511.8105469</ele>
        <time>2010-05-16T12:06:57Z</time>
      </trkpt>
      <trkpt lat="44.4360936" lon="5.8365550">
        <ele>1512.2910156</ele>
        <time>2010-05-16T12:07:10Z</time>
      </trkpt>
      <trkpt lat="44.4361142" lon="5.8367413">
        <ele>1513.7329102</ele>
        <time>2010-05-16T12:07:24Z</time>
      </trkpt>
      <trkpt lat="44.4361443" lon="5.8369145">
        <ele>1516.1364746</ele>
        <time>2010-05-16T12:07:38Z</time>
      </trkpt>
      <trkpt lat="44.4361687" lon="5.8371204">
        <ele>1518.0590820</ele>
        <time>2010-05-16T12:07:54Z</time>
      </trkpt>
      <trkpt lat="44.4361754" lon="5.8372027">
        <ele>1519.0205078</ele>
        <time>2010-05-16T12:08:07Z</time>
      </trkpt>
      <trkpt lat="44.4361988" lon="5.8373228">
        <ele>1519.5012207</ele>
        <time>2010-05-16T12:08:15Z</time>
      </trkpt>
      <trkpt lat="44.4362698" lon="5.8375416">
        <ele>1520.9431152</ele>
        <time>2010-05-16T12:08:31Z</time>
      </trkpt>
      <trkpt lat="44.4363583" lon="5.8377234">
        <ele>1521.9042969</ele>
        <time>2010-05-16T12:08:46Z</time>
      </trkpt>
      <trkpt lat="44.4364086" lon="5.8379281">
        <ele>1523.8269043</ele>
        <time>2010-05-16T12:09:01Z</time>
      </trkpt>
      <trkpt lat="44.4364038" lon="5.8379416">
        <ele>1524.3076172</ele>
        <time>2010-05-16T12:09:02Z</time>
      </trkpt>
      <trkpt lat="44.4363733" lon="5.8379839">
        <ele>1524.3076172</ele>
        <time>2010-05-16T12:09:06Z</time>
      </trkpt>
      <trkpt lat="44.4362136" lon="5.8381959">
        <ele>1522.8657227</ele>
        <time>2010-05-16T12:09:27Z</time>
      </trkpt>
      <trkpt lat="44.4361241" lon="5.8383660">
        <ele>1523.8269043</ele>
        <time>2010-05-16T12:09:42Z</time>
      </trkpt>
      <trkpt lat="44.4360659" lon="5.8386049">
        <ele>1525.7495117</ele>
        <time>2010-05-16T12:10:00Z</time>
      </trkpt>
      <trkpt lat="44.4360230" lon="5.8387813">
        <ele>1527.1916504</ele>
        <time>2010-05-16T12:10:13Z</time>
      </trkpt>
      <trkpt lat="44.4360208" lon="5.8388078">
        <ele>1527.6721191</ele>
        <time>2010-05-16T12:10:15Z</time>
      </trkpt>
      <trkpt lat="44.4359661" lon="5.8390151">
        <ele>1528.6335449</ele>
        <time>2010-05-16T12:10:32Z</time>
      </trkpt>
      <trkpt lat="44.4359087" lon="5.8392086">
        <ele>1530.5561523</ele>
        <time>2010-05-16T12:10:48Z</time>
      </trkpt>
      <trkpt lat="44.4358644" lon="5.8393841">
        <ele>1531.9980469</ele>
        <time>2010-05-16T12:11:03Z</time>
      </trkpt>
      <trkpt lat="44.4358114" lon="5.8395340">
        <ele>1533.4401855</ele>
        <time>2010-05-16T12:11:16Z</time>
      </trkpt>
      <trkpt lat="44.4357614" lon="5.8397056">
        <ele>1534.4016113</ele>
        <time>2010-05-16T12:11:30Z</time>
      </trkpt>
      <trkpt lat="44.4357042" lon="5.8398731">
        <ele>1535.8435059</ele>
        <time>2010-05-16T12:11:44Z</time>
      </trkpt>
      <trkpt lat="44.4356567" lon="5.8400345">
        <ele>1536.3242188</ele>
        <time>2010-05-16T12:11:58Z</time>
      </trkpt>
      <trkpt lat="44.4356299" lon="5.8401379">
        <ele>1537.2854004</ele>
        <time>2010-05-16T12:12:06Z</time>
      </trkpt>
      <trkpt lat="44.4356021" lon="5.8402894">
        <ele>1538.2468262</ele>
        <time>2010-05-16T12:12:18Z</time>
      </trkpt>
      <trkpt lat="44.4355730" lon="5.8404847">
        <ele>1539.6887207</ele>
        <time>2010-05-16T12:12:33Z</time>
      </trkpt>
      <trkpt lat="44.4355518" lon="5.8406606">
        <ele>1541.6113281</ele>
        <time>2010-05-16T12:12:47Z</time>
      </trkpt>
      <trkpt lat="44.4355539" lon="5.8408452">
        <ele>1543.0532227</ele>
        <time>2010-05-16T12:13:01Z</time>
      </trkpt>
      <trkpt lat="44.4355583" lon="5.8410257">
        <ele>1544.0146484</ele>
        <time>2010-05-16T12:13:14Z</time>
      </trkpt>
      <trkpt lat="44.4355726" lon="5.8412233">
        <ele>1545.9372559</ele>
        <time>2010-05-16T12:13:28Z</time>
      </trkpt>
      <trkpt lat="44.4355932" lon="5.8414158">
        <ele>1547.3791504</ele>
        <time>2010-05-16T12:13:42Z</time>
      </trkpt>
      <trkpt lat="44.4356108" lon="5.8415043">
        <ele>1548.8212891</ele>
        <time>2010-05-16T12:13:57Z</time>
      </trkpt>
      <trkpt lat="44.4356035" lon="5.8415056">
        <ele>1547.8598633</ele>
        <time>2010-05-16T12:14:14Z</time>
      </trkpt>
      <trkpt lat="44.4356041" lon="5.8415111">
        <ele>1549.3020020</ele>
        <time>2010-05-16T12:15:02Z</time>
      </trkpt>
      <trkpt lat="44.4356041" lon="5.8415111">
        <ele>1549.7827148</ele>
        <time>2010-05-16T12:15:22Z</time>
      </trkpt>
      <trkpt lat="44.4356123" lon="5.8417026">
        <ele>1551.2246094</ele>
        <time>2010-05-16T12:15:34Z</time>
      </trkpt>
      <trkpt lat="44.4356084" lon="5.8420299">
        <ele>1551.7053223</ele>
        <time>2010-05-16T12:15:52Z</time>
      </trkpt>
      <trkpt lat="44.4355600" lon="5.8423531">
        <ele>1551.7053223</ele>
        <time>2010-05-16T12:16:09Z</time>
      </trkpt>
      <trkpt lat="44.4354726" lon="5.8426581">
        <ele>1554.1086426</ele>
        <time>2010-05-16T12:16:26Z</time>
      </trkpt>
      <trkpt lat="44.4353753" lon="5.8429932">
        <ele>1556.0310059</ele>
        <time>2010-05-16T12:16:45Z</time>
      </trkpt>
      <trkpt lat="44.4352880" lon="5.8432708">
        <ele>1557.9538574</ele>
        <time>2010-05-16T12:17:01Z</time>
      </trkpt>
      <trkpt lat="44.4352026" lon="5.8434977">
        <ele>1558.4343262</ele>
        <time>2010-05-16T12:17:17Z</time>
      </trkpt>
      <trkpt lat="44.4351648" lon="5.8436258">
        <ele>1559.8762207</ele>
        <time>2010-05-16T12:17:26Z</time>
      </trkpt>
      <trkpt lat="44.4349864" lon="5.8438781">
        <ele>1560.3569336</ele>
        <time>2010-05-16T12:17:45Z</time>
      </trkpt>
      <trkpt lat="44.4349212" lon="5.8438980">
        <ele>1562.7602539</ele>
        <time>2010-05-16T12:17:50Z</time>
      </trkpt>
      <trkpt lat="44.4347482" lon="5.8439361">
        <ele>1566.1250000</ele>
        <time>2010-05-16T12:18:02Z</time>
      </trkpt>
      <trkpt lat="44.4347336" lon="5.8439376">
        <ele>1566.1250000</ele>
        <time>2010-05-16T12:18:03Z</time>
      </trkpt>
      <trkpt lat="44.4347043" lon="5.8439429">
        <ele>1564.6831055</ele>
        <time>2010-05-16T12:18:05Z</time>
      </trkpt>
      <trkpt lat="44.4346612" lon="5.8439448">
        <ele>1562.7602539</ele>
        <time>2010-05-16T12:18:08Z</time>
      </trkpt>
      <trkpt lat="44.4346321" lon="5.8439504">
        <ele>1560.8376465</ele>
        <time>2010-05-16T12:18:10Z</time>
      </trkpt>
      <trkpt lat="44.4344127" lon="5.8439815">
        <ele>1561.7990723</ele>
        <time>2010-05-16T12:18:25Z</time>
      </trkpt>
      <trkpt lat="44.4343359" lon="5.8439926">
        <ele>1562.7602539</ele>
        <time>2010-05-16T12:18:30Z</time>
      </trkpt>
      <trkpt lat="44.4343079" lon="5.8439939">
        <ele>1565.1638184</ele>
        <time>2010-05-16T12:18:32Z</time>
      </trkpt>
      <trkpt lat="44.4342818" lon="5.8439965">
        <ele>1567.0864258</ele>
        <time>2010-05-16T12:18:34Z</time>
      </trkpt>
      <trkpt lat="44.4341793" lon="5.8440166">
        <ele>1563.7214355</ele>
        <time>2010-05-16T12:18:42Z</time>
      </trkpt>
      <trkpt lat="44.4340946" lon="5.8440249">
        <ele>1563.2409668</ele>
        <time>2010-05-16T12:18:49Z</time>
      </trkpt>
      <trkpt lat="44.4338680" lon="5.8440995">
        <ele>1562.2795410</ele>
        <time>2010-05-16T12:19:07Z</time>
      </trkpt>
      <trkpt lat="44.4336946" lon="5.8441700">
        <ele>1563.7214355</ele>
        <time>2010-05-16T12:19:23Z</time>
      </trkpt>
      <trkpt lat="44.4336610" lon="5.8442102">
        <ele>1563.7214355</ele>
        <time>2010-05-16T12:19:27Z</time>
      </trkpt>
      <trkpt lat="44.4335837" lon="5.8444641">
        <ele>1564.2023926</ele>
        <time>2010-05-16T12:19:45Z</time>
      </trkpt>
      <trkpt lat="44.4335374" lon="5.8447063">
        <ele>1564.6831055</ele>
        <time>2010-05-16T12:20:01Z</time>
      </trkpt>
      <trkpt lat="44.4334693" lon="5.8450045">
        <ele>1566.1250000</ele>
        <time>2010-05-16T12:20:17Z</time>
      </trkpt>
      <trkpt lat="44.4334338" lon="5.8453197">
        <ele>1567.5668945</ele>
        <time>2010-05-16T12:20:34Z</time>
      </trkpt>
      <trkpt lat="44.4334337" lon="5.8456743">
        <ele>1569.4897461</ele>
        <time>2010-05-16T12:20:54Z</time>
      </trkpt>
      <trkpt lat="44.4334434" lon="5.8458516">
        <ele>1572.3735352</ele>
        <time>2010-05-16T12:21:12Z</time>
      </trkpt>
      <trkpt lat="44.4334565" lon="5.8459235">
        <ele>1572.3735352</ele>
        <time>2010-05-16T12:21:31Z</time>
      </trkpt>
      <trkpt lat="44.4335007" lon="5.8460099">
        <ele>1571.4121094</ele>
        <time>2010-05-16T12:21:45Z</time>
      </trkpt>
      <trkpt lat="44.4335246" lon="5.8460558">
        <ele>1572.8542480</ele>
        <time>2010-05-16T12:21:50Z</time>
      </trkpt>
      <trkpt lat="44.4336121" lon="5.8462064">
        <ele>1572.8542480</ele>
        <time>2010-05-16T12:22:05Z</time>
      </trkpt>
      <trkpt lat="44.4336953" lon="5.8462807">
        <ele>1574.2961426</ele>
        <time>2010-05-16T12:22:19Z</time>
      </trkpt>
      <trkpt lat="44.4337252" lon="5.8463115">
        <ele>1575.2573242</ele>
        <time>2010-05-16T12:22:23Z</time>
      </trkpt>
      <trkpt lat="44.4337554" lon="5.8463508">
        <ele>1575.2573242</ele>
        <time>2010-05-16T12:22:27Z</time>
      </trkpt>
      <trkpt lat="44.4338440" lon="5.8465188">
        <ele>1574.7768555</ele>
        <time>2010-05-16T12:22:41Z</time>
      </trkpt>
      <trkpt lat="44.4339339" lon="5.8467127">
        <ele>1576.6994629</ele>
        <time>2010-05-16T12:22:57Z</time>
      </trkpt>
      <trkpt lat="44.4340221" lon="5.8468894">
        <ele>1578.1413574</ele>
        <time>2010-05-16T12:23:12Z</time>
      </trkpt>
      <trkpt lat="44.4340593" lon="5.8469735">
        <ele>1577.6606445</ele>
        <time>2010-05-16T12:23:20Z</time>
      </trkpt>
      <trkpt lat="44.4341276" lon="5.8471421">
        <ele>1576.6994629</ele>
        <time>2010-05-16T12:23:33Z</time>
      </trkpt>
      <trkpt lat="44.4341511" lon="5.8472762">
        <ele>1573.3349609</ele>
        <time>2010-05-16T12:23:43Z</time>
      </trkpt>
      <trkpt lat="44.4341945" lon="5.8474609">
        <ele>1570.4509277</ele>
        <time>2010-05-16T12:23:56Z</time>
      </trkpt>
      <trkpt lat="44.4342636" lon="5.8476927">
        <ele>1569.4897461</ele>
        <time>2010-05-16T12:24:12Z</time>
      </trkpt>
      <trkpt lat="44.4343256" lon="5.8479142">
        <ele>1567.5668945</ele>
        <time>2010-05-16T12:24:27Z</time>
      </trkpt>
      <trkpt lat="44.4343536" lon="5.8479699">
        <ele>1566.6057129</ele>
        <time>2010-05-16T12:24:32Z</time>
      </trkpt>
      <trkpt lat="44.4343078" lon="5.8481432">
        <ele>1565.1638184</ele>
        <time>2010-05-16T12:24:45Z</time>
      </trkpt>
      <trkpt lat="44.4342773" lon="5.8482854">
        <ele>1564.2023926</ele>
        <time>2010-05-16T12:24:55Z</time>
      </trkpt>
      <trkpt lat="44.4342612" lon="5.8483369">
        <ele>1563.7214355</ele>
        <time>2010-05-16T12:24:59Z</time>
      </trkpt>
      <trkpt lat="44.4342418" lon="5.8484907">
        <ele>1563.2409668</ele>
        <time>2010-05-16T12:25:11Z</time>
      </trkpt>
      <trkpt lat="44.4341903" lon="5.8486575">
        <ele>1561.3183594</ele>
        <time>2010-05-16T12:25:23Z</time>
      </trkpt>
      <trkpt lat="44.4341605" lon="5.8487500">
        <ele>1560.8376465</ele>
        <time>2010-05-16T12:25:29Z</time>
      </trkpt>
      <trkpt lat="44.4341356" lon="5.8489790">
        <ele>1558.4343262</ele>
        <time>2010-05-16T12:25:43Z</time>
      </trkpt>
      <trkpt lat="44.4341058" lon="5.8491291">
        <ele>1556.5117188</ele>
        <time>2010-05-16T12:25:56Z</time>
      </trkpt>
      <trkpt lat="44.4340689" lon="5.8491893">
        <ele>1554.5891113</ele>
        <time>2010-05-16T12:26:02Z</time>
      </trkpt>
      <trkpt lat="44.4340568" lon="5.8492141">
        <ele>1553.6279297</ele>
        <time>2010-05-16T12:26:04Z</time>
      </trkpt>
      <trkpt lat="44.4340220" lon="5.8492716">
        <ele>1552.1857910</ele>
        <time>2010-05-16T12:26:09Z</time>
      </trkpt>
      <trkpt lat="44.4339459" lon="5.8494144">
        <ele>1549.3020020</ele>
        <time>2010-05-16T12:26:21Z</time>
      </trkpt>
      <trkpt lat="44.4339327" lon="5.8495590">
        <ele>1549.3020020</ele>
        <time>2010-05-16T12:26:31Z</time>
      </trkpt>
      <trkpt lat="44.4339157" lon="5.8496576">
        <ele>1548.3405762</ele>
        <time>2010-05-16T12:26:38Z</time>
      </trkpt>
      <trkpt lat="44.4338976" lon="5.8497202">
        <ele>1546.4179688</ele>
        <time>2010-05-16T12:26:43Z</time>
      </trkpt>
      <trkpt lat="44.4338787" lon="5.8497682">
        <ele>1544.9758301</ele>
        <time>2010-05-16T12:26:47Z</time>
      </trkpt>
      <trkpt lat="44.4338647" lon="5.8498382">
        <ele>1544.4951172</ele>
        <time>2010-05-16T12:26:51Z</time>
      </trkpt>
      <trkpt lat="44.4338693" lon="5.8498819">
        <ele>1543.0532227</ele>
        <time>2010-05-16T12:26:54Z</time>
      </trkpt>
      <trkpt lat="44.4338866" lon="5.8498986">
        <ele>1542.5727539</ele>
        <time>2010-05-16T12:26:56Z</time>
      </trkpt>
      <trkpt lat="44.4338606" lon="5.8500084">
        <ele>1540.1694336</ele>
        <time>2010-05-16T12:27:04Z</time>
      </trkpt>
      <trkpt lat="44.4338619" lon="5.8500638">
        <ele>1537.2854004</ele>
        <time>2010-05-16T12:27:09Z</time>
      </trkpt>
      <trkpt lat="44.4338625" lon="5.8500907">
        <ele>1536.8046875</ele>
        <time>2010-05-16T12:27:13Z</time>
      </trkpt>
      <trkpt lat="44.4338130" lon="5.8503572">
        <ele>1533.9208984</ele>
        <time>2010-05-16T12:27:28Z</time>
      </trkpt>
      <trkpt lat="44.4337825" lon="5.8505631">
        <ele>1531.0368652</ele>
        <time>2010-05-16T12:27:43Z</time>
      </trkpt>
      <trkpt lat="44.4337755" lon="5.8506164">
        <ele>1529.5947266</ele>
        <time>2010-05-16T12:27:47Z</time>
      </trkpt>
      <trkpt lat="44.4337490" lon="5.8507513">
        <ele>1526.2302246</ele>
        <time>2010-05-16T12:27:59Z</time>
      </trkpt>
      <trkpt lat="44.4337001" lon="5.8508082">
        <ele>1523.3464355</ele>
        <time>2010-05-16T12:28:10Z</time>
      </trkpt>
      <trkpt lat="44.4336346" lon="5.8508552">
        <ele>1519.9816895</ele>
        <time>2010-05-16T12:28:22Z</time>
      </trkpt>
      <trkpt lat="44.4335763" lon="5.8508891">
        <ele>1517.5783691</ele>
        <time>2010-05-16T12:28:32Z</time>
      </trkpt>
      <trkpt lat="44.4334934" lon="5.8509717">
        <ele>1517.5783691</ele>
        <time>2010-05-16T12:28:41Z</time>
      </trkpt>
      <trkpt lat="44.4334724" lon="5.8510360">
        <ele>1516.1364746</ele>
        <time>2010-05-16T12:28:46Z</time>
      </trkpt>
      <trkpt lat="44.4334569" lon="5.8511708">
        <ele>1513.2524414</ele>
        <time>2010-05-16T12:28:54Z</time>
      </trkpt>
      <trkpt lat="44.4334656" lon="5.8513774">
        <ele>1511.3298340</ele>
        <time>2010-05-16T12:29:08Z</time>
      </trkpt>
      <trkpt lat="44.4334268" lon="5.8515879">
        <ele>1509.4072266</ele>
        <time>2010-05-16T12:29:25Z</time>
      </trkpt>
      <trkpt lat="44.4333626" lon="5.8517496">
        <ele>1507.9653320</ele>
        <time>2010-05-16T12:29:39Z</time>
      </trkpt>
      <trkpt lat="44.4333372" lon="5.8518477">
        <ele>1507.4846191</ele>
        <time>2010-05-16T12:29:46Z</time>
      </trkpt>
      <trkpt lat="44.4332915" lon="5.8518880">
        <ele>1507.9653320</ele>
        <time>2010-05-16T12:29:51Z</time>
      </trkpt>
      <trkpt lat="44.4331664" lon="5.8521154">
        <ele>1507.0039063</ele>
        <time>2010-05-16T12:30:11Z</time>
      </trkpt>
      <trkpt lat="44.4331567" lon="5.8521699">
        <ele>1506.0424805</ele>
        <time>2010-05-16T12:30:16Z</time>
      </trkpt>
      <trkpt lat="44.4331532" lon="5.8522772">
        <ele>1504.1201172</ele>
        <time>2010-05-16T12:30:23Z</time>
      </trkpt>
      <trkpt lat="44.4332371" lon="5.8524317">
        <ele>1500.7553711</ele>
        <time>2010-05-16T12:30:37Z</time>
      </trkpt>
      <trkpt lat="44.4332498" lon="5.8524564">
        <ele>1500.2749023</ele>
        <time>2010-05-16T12:30:39Z</time>
      </trkpt>
      <trkpt lat="44.4332761" lon="5.8525388">
        <ele>1499.7939453</ele>
        <time>2010-05-16T12:30:45Z</time>
      </trkpt>
      <trkpt lat="44.4333197" lon="5.8527812">
        <ele>1497.3906250</ele>
        <time>2010-05-16T12:31:01Z</time>
      </trkpt>
      <trkpt lat="44.4333367" lon="5.8528807">
        <ele>1495.9487305</ele>
        <time>2010-05-16T12:31:14Z</time>
      </trkpt>
      <trkpt lat="44.4333461" lon="5.8529042">
        <ele>1495.4680176</ele>
        <time>2010-05-16T12:31:15Z</time>
      </trkpt>
      <trkpt lat="44.4333532" lon="5.8529474">
        <ele>1494.5065918</ele>
        <time>2010-05-16T12:31:17Z</time>
      </trkpt>
      <trkpt lat="44.4333564" lon="5.8529808">
        <ele>1494.5065918</ele>
        <time>2010-05-16T12:31:19Z</time>
      </trkpt>
      <trkpt lat="44.4333347" lon="5.8530804">
        <ele>1493.0646973</ele>
        <time>2010-05-16T12:31:26Z</time>
      </trkpt>
      <trkpt lat="44.4333389" lon="5.8531162">
        <ele>1493.5454102</ele>
        <time>2010-05-16T12:31:29Z</time>
      </trkpt>
      <trkpt lat="44.4333376" lon="5.8531427">
        <ele>1493.0646973</ele>
        <time>2010-05-16T12:31:31Z</time>
      </trkpt>
      <trkpt lat="44.4333759" lon="5.8533709">
        <ele>1493.0646973</ele>
        <time>2010-05-16T12:31:46Z</time>
      </trkpt>
      <trkpt lat="44.4333772" lon="5.8533862">
        <ele>1492.5842285</ele>
        <time>2010-05-16T12:31:47Z</time>
      </trkpt>
      <trkpt lat="44.4333484" lon="5.8536258">
        <ele>1491.6228027</ele>
        <time>2010-05-16T12:32:05Z</time>
      </trkpt>
      <trkpt lat="44.4333405" lon="5.8536804">
        <ele>1492.5842285</ele>
        <time>2010-05-16T12:32:18Z</time>
      </trkpt>
      <trkpt lat="44.4333300" lon="5.8537263">
        <ele>1492.1035156</ele>
        <time>2010-05-16T12:32:33Z</time>
      </trkpt>
      <trkpt lat="44.4333289" lon="5.8537386">
        <ele>1492.1035156</ele>
        <time>2010-05-16T12:32:34Z</time>
      </trkpt>
      <trkpt lat="44.4332787" lon="5.8539330">
        <ele>1490.6613770</ele>
        <time>2010-05-16T12:32:46Z</time>
      </trkpt>
      <trkpt lat="44.4331501" lon="5.8541280">
        <ele>1487.7775879</ele>
        <time>2010-05-16T12:33:01Z</time>
      </trkpt>
      <trkpt lat="44.4330935" lon="5.8542137">
        <ele>1487.2968750</ele>
        <time>2010-05-16T12:33:08Z</time>
      </trkpt>
      <trkpt lat="44.4330570" lon="5.8542775">
        <ele>1486.8161621</ele>
        <time>2010-05-16T12:33:13Z</time>
      </trkpt>
      <trkpt lat="44.4329992" lon="5.8544400">
        <ele>1485.3742676</ele>
        <time>2010-05-16T12:33:25Z</time>
      </trkpt>
      <trkpt lat="44.4328731" lon="5.8545797">
        <ele>1482.9707031</ele>
        <time>2010-05-16T12:33:41Z</time>
      </trkpt>
      <trkpt lat="44.4328508" lon="5.8546112">
        <ele>1482.0095215</ele>
        <time>2010-05-16T12:33:44Z</time>
      </trkpt>
      <trkpt lat="44.4328226" lon="5.8546862">
        <ele>1480.5676270</ele>
        <time>2010-05-16T12:33:50Z</time>
      </trkpt>
      <trkpt lat="44.4327956" lon="5.8547745">
        <ele>1479.6062012</ele>
        <time>2010-05-16T12:33:55Z</time>
      </trkpt>
      <trkpt lat="44.4327363" lon="5.8549407">
        <ele>1480.5676270</ele>
        <time>2010-05-16T12:34:05Z</time>
      </trkpt>
      <trkpt lat="44.4327320" lon="5.8549641">
        <ele>1481.0483398</ele>
        <time>2010-05-16T12:34:07Z</time>
      </trkpt>
      <trkpt lat="44.4327015" lon="5.8550315">
        <ele>1482.0095215</ele>
        <time>2010-05-16T12:34:13Z</time>
      </trkpt>
      <trkpt lat="44.4326724" lon="5.8552417">
        <ele>1480.0869141</ele>
        <time>2010-05-16T12:34:27Z</time>
      </trkpt>
      <trkpt lat="44.4326877" lon="5.8553204">
        <ele>1479.6062012</ele>
        <time>2010-05-16T12:34:33Z</time>
      </trkpt>
      <trkpt lat="44.4327149" lon="5.8555119">
        <ele>1477.2031250</ele>
        <time>2010-05-16T12:34:48Z</time>
      </trkpt>
      <trkpt lat="44.4327153" lon="5.8555406">
        <ele>1477.2031250</ele>
        <time>2010-05-16T12:34:50Z</time>
      </trkpt>
      <trkpt lat="44.4327110" lon="5.8556598">
        <ele>1475.7609863</ele>
        <time>2010-05-16T12:34:58Z</time>
      </trkpt>
      <trkpt lat="44.4327601" lon="5.8558875">
        <ele>1474.3190918</ele>
        <time>2010-05-16T12:35:13Z</time>
      </trkpt>
      <trkpt lat="44.4327664" lon="5.8559663">
        <ele>1473.8383789</ele>
        <time>2010-05-16T12:35:18Z</time>
      </trkpt>
      <trkpt lat="44.4327768" lon="5.8560158">
        <ele>1473.8383789</ele>
        <time>2010-05-16T12:35:21Z</time>
      </trkpt>
      <trkpt lat="44.4327752" lon="5.8560731">
        <ele>1473.8383789</ele>
        <time>2010-05-16T12:35:25Z</time>
      </trkpt>
      <trkpt lat="44.4327393" lon="5.8561820">
        <ele>1471.9157715</ele>
        <time>2010-05-16T12:35:39Z</time>
      </trkpt>
      <trkpt lat="44.4327016" lon="5.8562069">
        <ele>1470.9545898</ele>
        <time>2010-05-16T12:35:52Z</time>
      </trkpt>
      <trkpt lat="44.4326864" lon="5.8562095">
        <ele>1469.9931641</ele>
        <time>2010-05-16T12:36:13Z</time>
      </trkpt>
      <trkpt lat="44.4326914" lon="5.8562141">
        <ele>1470.9545898</ele>
        <time>2010-05-16T12:36:26Z</time>
      </trkpt>
      <trkpt lat="44.4326914" lon="5.8562141">
        <ele>1470.4738770</ele>
        <time>2010-05-16T12:36:49Z</time>
      </trkpt>
      <trkpt lat="44.4326932" lon="5.8562809">
        <ele>1470.4738770</ele>
        <time>2010-05-16T12:36:59Z</time>
      </trkpt>
      <trkpt lat="44.4326934" lon="5.8562860">
        <ele>1470.4738770</ele>
        <time>2010-05-16T12:37:19Z</time>
      </trkpt>
      <trkpt lat="44.4326927" lon="5.8562817">
        <ele>1469.9931641</ele>
        <time>2010-05-16T12:38:08Z</time>
      </trkpt>
      <trkpt lat="44.4326809" lon="5.8563815">
        <ele>1469.5126953</ele>
        <time>2010-05-16T12:41:02Z</time>
      </trkpt>
      <trkpt lat="44.4326636" lon="5.8564895">
        <ele>1468.5512695</ele>
        <time>2010-05-16T12:41:14Z</time>
      </trkpt>
      <trkpt lat="44.4326315" lon="5.8565989">
        <ele>1466.1477051</ele>
        <time>2010-05-16T12:41:26Z</time>
      </trkpt>
      <trkpt lat="44.4326035" lon="5.8566980">
        <ele>1463.7443848</ele>
        <time>2010-05-16T12:41:38Z</time>
      </trkpt>
      <trkpt lat="44.4325968" lon="5.8567061">
        <ele>1463.7443848</ele>
        <time>2010-05-16T12:41:39Z</time>
      </trkpt>
      <trkpt lat="44.4325621" lon="5.8567854">
        <ele>1461.8220215</ele>
        <time>2010-05-16T12:41:50Z</time>
      </trkpt>
      <trkpt lat="44.4325467" lon="5.8568781">
        <ele>1459.4187012</ele>
        <time>2010-05-16T12:42:01Z</time>
      </trkpt>
      <trkpt lat="44.4325709" lon="5.8569398">
        <ele>1457.4960938</ele>
        <time>2010-05-16T12:42:11Z</time>
      </trkpt>
      <trkpt lat="44.4325852" lon="5.8570699">
        <ele>1456.5346680</ele>
        <time>2010-05-16T12:42:24Z</time>
      </trkpt>
      <trkpt lat="44.4325659" lon="5.8571871">
        <ele>1454.1315918</ele>
        <time>2010-05-16T12:42:36Z</time>
      </trkpt>
      <trkpt lat="44.4325576" lon="5.8572041">
        <ele>1452.6894531</ele>
        <time>2010-05-16T12:42:38Z</time>
      </trkpt>
      <trkpt lat="44.4325442" lon="5.8572372">
        <ele>1452.2087402</ele>
        <time>2010-05-16T12:42:42Z</time>
      </trkpt>
      <trkpt lat="44.4325162" lon="5.8573112">
        <ele>1450.2861328</ele>
        <time>2010-05-16T12:42:50Z</time>
      </trkpt>
      <trkpt lat="44.4324974" lon="5.8573365">
        <ele>1449.8054199</ele>
        <time>2010-05-16T12:43:05Z</time>
      </trkpt>
      <trkpt lat="44.4325106" lon="5.8573851">
        <ele>1447.8828125</ele>
        <time>2010-05-16T12:43:20Z</time>
      </trkpt>
      <trkpt lat="44.4325105" lon="5.8575070">
        <ele>1446.4409180</ele>
        <time>2010-05-16T12:43:32Z</time>
      </trkpt>
      <trkpt lat="44.4324841" lon="5.8576195">
        <ele>1445.9602051</ele>
        <time>2010-05-16T12:43:45Z</time>
      </trkpt>
      <trkpt lat="44.4324991" lon="5.8576742">
        <ele>1442.5957031</ele>
        <time>2010-05-16T12:43:55Z</time>
      </trkpt>
      <trkpt lat="44.4325421" lon="5.8577114">
        <ele>1440.1923828</ele>
        <time>2010-05-16T12:44:09Z</time>
      </trkpt>
      <trkpt lat="44.4325786" lon="5.8577748">
        <ele>1437.7890625</ele>
        <time>2010-05-16T12:44:23Z</time>
      </trkpt>
      <trkpt lat="44.4326013" lon="5.8577751">
        <ele>1436.3471680</ele>
        <time>2010-05-16T12:44:27Z</time>
      </trkpt>
      <trkpt lat="44.4326936" lon="5.8577073">
        <ele>1433.9436035</ele>
        <time>2010-05-16T12:44:40Z</time>
      </trkpt>
      <trkpt lat="44.4327110" lon="5.8577114">
        <ele>1432.9821777</ele>
        <time>2010-05-16T12:44:42Z</time>
      </trkpt>
      <trkpt lat="44.4327078" lon="5.8578297">
        <ele>1430.0983887</ele>
        <time>2010-05-16T12:44:55Z</time>
      </trkpt>
      <trkpt lat="44.4327179" lon="5.8578924">
        <ele>1428.1757813</ele>
        <time>2010-05-16T12:45:02Z</time>
      </trkpt>
      <trkpt lat="44.4327313" lon="5.8579298">
        <ele>1427.6950684</ele>
        <time>2010-05-16T12:45:05Z</time>
      </trkpt>
      <trkpt lat="44.4327336" lon="5.8579642">
        <ele>1426.2531738</ele>
        <time>2010-05-16T12:45:08Z</time>
      </trkpt>
      <trkpt lat="44.4327695" lon="5.8580299">
        <ele>1424.3305664</ele>
        <time>2010-05-16T12:45:19Z</time>
      </trkpt>
      <trkpt lat="44.4328516" lon="5.8580403">
        <ele>1421.4465332</ele>
        <time>2010-05-16T12:45:32Z</time>
      </trkpt>
      <trkpt lat="44.4329184" lon="5.8579859">
        <ele>1419.0432129</ele>
        <time>2010-05-16T12:45:44Z</time>
      </trkpt>
      <trkpt lat="44.4329466" lon="5.8579841">
        <ele>1418.0817871</ele>
        <time>2010-05-16T12:45:48Z</time>
      </trkpt>
      <trkpt lat="44.4329980" lon="5.8579866">
        <ele>1416.1591797</ele>
        <time>2010-05-16T12:45:53Z</time>
      </trkpt>
      <trkpt lat="44.4330128" lon="5.8579654">
        <ele>1416.1591797</ele>
        <time>2010-05-16T12:45:55Z</time>
      </trkpt>
      <trkpt lat="44.4331471" lon="5.8578306">
        <ele>1415.1979980</ele>
        <time>2010-05-16T12:46:10Z</time>
      </trkpt>
      <trkpt lat="44.4332818" lon="5.8577832">
        <ele>1413.2753906</ele>
        <time>2010-05-16T12:46:23Z</time>
      </trkpt>
      <trkpt lat="44.4333333" lon="5.8577563">
        <ele>1411.8334961</ele>
        <time>2010-05-16T12:46:28Z</time>
      </trkpt>
      <trkpt lat="44.4333921" lon="5.8577649">
        <ele>1410.8720703</ele>
        <time>2010-05-16T12:46:35Z</time>
      </trkpt>
      <trkpt lat="44.4334324" lon="5.8577716">
        <ele>1409.9106445</ele>
        <time>2010-05-16T12:46:40Z</time>
      </trkpt>
      <trkpt lat="44.4334475" lon="5.8577826">
        <ele>1409.9106445</ele>
        <time>2010-05-16T12:46:42Z</time>
      </trkpt>
      <trkpt lat="44.4335360" lon="5.8578916">
        <ele>1408.9494629</ele>
        <time>2010-05-16T12:46:55Z</time>
      </trkpt>
      <trkpt lat="44.4335466" lon="5.8578973">
        <ele>1408.9494629</ele>
        <time>2010-05-16T12:46:57Z</time>
      </trkpt>
      <trkpt lat="44.4335967" lon="5.8579175">
        <ele>1407.5075684</ele>
        <time>2010-05-16T12:47:01Z</time>
      </trkpt>
      <trkpt lat="44.4337110" lon="5.8580035">
        <ele>1407.5075684</ele>
        <time>2010-05-16T12:47:13Z</time>
      </trkpt>
      <trkpt lat="44.4337551" lon="5.8580247">
        <ele>1407.0268555</ele>
        <time>2010-05-16T12:47:17Z</time>
      </trkpt>
      <trkpt lat="44.4338216" lon="5.8580631">
        <ele>1405.5849609</ele>
        <time>2010-05-16T12:47:24Z</time>
      </trkpt>
      <trkpt lat="44.4338533" lon="5.8581243">
        <ele>1404.1430664</ele>
        <time>2010-05-16T12:47:29Z</time>
      </trkpt>
      <trkpt lat="44.4339285" lon="5.8581626">
        <ele>1402.2199707</ele>
        <time>2010-05-16T12:47:38Z</time>
      </trkpt>
      <trkpt lat="44.4339550" lon="5.8582296">
        <ele>1402.7006836</ele>
        <time>2010-05-16T12:47:42Z</time>
      </trkpt>
      <trkpt lat="44.4340083" lon="5.8583764">
        <ele>1403.6621094</ele>
        <time>2010-05-16T12:47:51Z</time>
      </trkpt>
      <trkpt lat="44.4340252" lon="5.8585277">
        <ele>1405.5849609</ele>
        <time>2010-05-16T12:47:59Z</time>
      </trkpt>
      <trkpt lat="44.4340091" lon="5.8586751">
        <ele>1400.7780762</ele>
        <time>2010-05-16T12:48:07Z</time>
      </trkpt>
      <trkpt lat="44.4340052" lon="5.8586882">
        <ele>1400.7780762</ele>
        <time>2010-05-16T12:48:08Z</time>
      </trkpt>
      <trkpt lat="44.4339975" lon="5.8587184">
        <ele>1400.2976074</ele>
        <time>2010-05-16T12:48:10Z</time>
      </trkpt>
      <trkpt lat="44.4340009" lon="5.8588143">
        <ele>1397.4135742</ele>
        <time>2010-05-16T12:48:15Z</time>
      </trkpt>
      <trkpt lat="44.4340105" lon="5.8589533">
        <ele>1396.4523926</ele>
        <time>2010-05-16T12:48:22Z</time>
      </trkpt>
      <trkpt lat="44.4340773" lon="5.8591211">
        <ele>1396.9328613</ele>
        <time>2010-05-16T12:48:35Z</time>
      </trkpt>
      <trkpt lat="44.4341049" lon="5.8591622">
        <ele>1397.4135742</ele>
        <time>2010-05-16T12:48:38Z</time>
      </trkpt>
      <trkpt lat="44.4341480" lon="5.8592341">
        <ele>1396.9328613</ele>
        <time>2010-05-16T12:48:44Z</time>
      </trkpt>
      <trkpt lat="44.4341899" lon="5.8592900">
        <ele>1394.5295410</ele>
        <time>2010-05-16T12:48:49Z</time>
      </trkpt>
      <trkpt lat="44.4342049" lon="5.8593076">
        <ele>1393.0876465</ele>
        <time>2010-05-16T12:48:51Z</time>
      </trkpt>
      <trkpt lat="44.4342862" lon="5.8593811">
        <ele>1393.0876465</ele>
        <time>2010-05-16T12:48:59Z</time>
      </trkpt>
      <trkpt lat="44.4343245" lon="5.8593828">
        <ele>1393.5683594</ele>
        <time>2010-05-16T12:49:02Z</time>
      </trkpt>
      <trkpt lat="44.4343971" lon="5.8595179">
        <ele>1391.6457520</ele>
        <time>2010-05-16T12:49:13Z</time>
      </trkpt>
      <trkpt lat="44.4344248" lon="5.8596066">
        <ele>1391.1650391</ele>
        <time>2010-05-16T12:49:19Z</time>
      </trkpt>
      <trkpt lat="44.4344404" lon="5.8596915">
        <ele>1390.2038574</ele>
        <time>2010-05-16T12:49:25Z</time>
      </trkpt>
      <trkpt lat="44.4344746" lon="5.8597631">
        <ele>1390.2038574</ele>
        <time>2010-05-16T12:49:31Z</time>
      </trkpt>
      <trkpt lat="44.4345071" lon="5.8598120">
        <ele>1389.7231445</ele>
        <time>2010-05-16T12:49:35Z</time>
      </trkpt>
      <trkpt lat="44.4345429" lon="5.8598769">
        <ele>1388.7619629</ele>
        <time>2010-05-16T12:49:51Z</time>
      </trkpt>
      <trkpt lat="44.4346298" lon="5.8599635">
        <ele>1389.2424316</ele>
        <time>2010-05-16T12:50:03Z</time>
      </trkpt>
      <trkpt lat="44.4347810" lon="5.8600956">
        <ele>1388.7619629</ele>
        <time>2010-05-16T12:50:18Z</time>
      </trkpt>
      <trkpt lat="44.4349177" lon="5.8602648">
        <ele>1388.2812500</ele>
        <time>2010-05-16T12:50:34Z</time>
      </trkpt>
      <trkpt lat="44.4350637" lon="5.8604676">
        <ele>1386.3583984</ele>
        <time>2010-05-16T12:50:52Z</time>
      </trkpt>
      <trkpt lat="44.4351569" lon="5.8606498">
        <ele>1386.3583984</ele>
        <time>2010-05-16T12:51:06Z</time>
      </trkpt>
      <trkpt lat="44.4352481" lon="5.8607554">
        <ele>1384.9165039</ele>
        <time>2010-05-16T12:51:16Z</time>
      </trkpt>
      <trkpt lat="44.4353183" lon="5.8608494">
        <ele>1383.9550781</ele>
        <time>2010-05-16T12:51:24Z</time>
      </trkpt>
      <trkpt lat="44.4354498" lon="5.8610275">
        <ele>1383.9550781</ele>
        <time>2010-05-16T12:51:40Z</time>
      </trkpt>
      <trkpt lat="44.4354802" lon="5.8610798">
        <ele>1382.5131836</ele>
        <time>2010-05-16T12:51:44Z</time>
      </trkpt>
      <trkpt lat="44.4354958" lon="5.8611017">
        <ele>1383.9550781</ele>
        <time>2010-05-16T12:51:46Z</time>
      </trkpt>
      <trkpt lat="44.4355710" lon="5.8612277">
        <ele>1385.3969727</ele>
        <time>2010-05-16T12:51:56Z</time>
      </trkpt>
      <trkpt lat="44.4356149" lon="5.8612804">
        <ele>1386.3583984</ele>
        <time>2010-05-16T12:52:01Z</time>
      </trkpt>
      <trkpt lat="44.4357280" lon="5.8614718">
        <ele>1385.3969727</ele>
        <time>2010-05-16T12:52:17Z</time>
      </trkpt>
      <trkpt lat="44.4358220" lon="5.8616763">
        <ele>1384.9165039</ele>
        <time>2010-05-16T12:52:32Z</time>
      </trkpt>
      <trkpt lat="44.4358359" lon="5.8617014">
        <ele>1384.9165039</ele>
        <time>2010-05-16T12:52:34Z</time>
      </trkpt>
      <trkpt lat="44.4358757" lon="5.8617971">
        <ele>1383.4743652</ele>
        <time>2010-05-16T12:52:41Z</time>
      </trkpt>
      <trkpt lat="44.4359331" lon="5.8618919">
        <ele>1382.5131836</ele>
        <time>2010-05-16T12:52:47Z</time>
      </trkpt>
      <trkpt lat="44.4359698" lon="5.8619860">
        <ele>1382.0324707</ele>
        <time>2010-05-16T12:52:54Z</time>
      </trkpt>
      <trkpt lat="44.4360625" lon="5.8622380">
        <ele>1380.5905762</ele>
        <time>2010-05-16T12:53:11Z</time>
      </trkpt>
      <trkpt lat="44.4361313" lon="5.8624017">
        <ele>1380.1098633</ele>
        <time>2010-05-16T12:53:23Z</time>
      </trkpt>
      <trkpt lat="44.4361547" lon="5.8625061">
        <ele>1378.1872559</ele>
        <time>2010-05-16T12:53:30Z</time>
      </trkpt>
      <trkpt lat="44.4362162" lon="5.8627132">
        <ele>1375.3032227</ele>
        <time>2010-05-16T12:53:45Z</time>
      </trkpt>
      <trkpt lat="44.4362228" lon="5.8627221">
        <ele>1375.3032227</ele>
        <time>2010-05-16T12:53:48Z</time>
      </trkpt>
      <trkpt lat="44.4362590" lon="5.8627938">
        <ele>1372.9001465</ele>
        <time>2010-05-16T12:53:53Z</time>
      </trkpt>
      <trkpt lat="44.4363071" lon="5.8629177">
        <ele>1370.0158691</ele>
        <time>2010-05-16T12:54:03Z</time>
      </trkpt>
      <trkpt lat="44.4363735" lon="5.8630547">
        <ele>1368.0932617</ele>
        <time>2010-05-16T12:54:15Z</time>
      </trkpt>
      <trkpt lat="44.4363817" lon="5.8631046">
        <ele>1367.6125488</ele>
        <time>2010-05-16T12:54:19Z</time>
      </trkpt>
      <trkpt lat="44.4364391" lon="5.8632456">
        <ele>1363.7673340</ele>
        <time>2010-05-16T12:54:32Z</time>
      </trkpt>
      <trkpt lat="44.4364432" lon="5.8632581">
        <ele>1363.7673340</ele>
        <time>2010-05-16T12:54:33Z</time>
      </trkpt>
      <trkpt lat="44.4365088" lon="5.8633578">
        <ele>1361.8449707</ele>
        <time>2010-05-16T12:54:44Z</time>
      </trkpt>
      <trkpt lat="44.4365463" lon="5.8634002">
        <ele>1361.8449707</ele>
        <time>2010-05-16T12:54:50Z</time>
      </trkpt>
      <trkpt lat="44.4365645" lon="5.8634282">
        <ele>1360.4028320</ele>
        <time>2010-05-16T12:54:53Z</time>
      </trkpt>
      <trkpt lat="44.4365940" lon="5.8634756">
        <ele>1357.0383301</ele>
        <time>2010-05-16T12:54:59Z</time>
      </trkpt>
      <trkpt lat="44.4365992" lon="5.8634837">
        <ele>1357.0383301</ele>
        <time>2010-05-16T12:55:00Z</time>
      </trkpt>
      <trkpt lat="44.4366680" lon="5.8635927">
        <ele>1357.5190430</ele>
        <time>2010-05-16T12:55:12Z</time>
      </trkpt>
      <trkpt lat="44.4366743" lon="5.8635984">
        <ele>1357.5190430</ele>
        <time>2010-05-16T12:55:13Z</time>
      </trkpt>
      <trkpt lat="44.4367110" lon="5.8636199">
        <ele>1356.0769043</ele>
        <time>2010-05-16T12:55:18Z</time>
      </trkpt>
      <trkpt lat="44.4367929" lon="5.8636725">
        <ele>1353.6735840</ele>
        <time>2010-05-16T12:55:32Z</time>
      </trkpt>
      <trkpt lat="44.4368424" lon="5.8637257">
        <ele>1350.7895508</ele>
        <time>2010-05-16T12:55:49Z</time>
      </trkpt>
      <trkpt lat="44.4368431" lon="5.8637254">
        <ele>1350.7895508</ele>
        <time>2010-05-16T12:56:18Z</time>
      </trkpt>
      <trkpt lat="44.4368431" lon="5.8637254">
        <ele>1352.2314453</ele>
        <time>2010-05-16T12:56:20Z</time>
      </trkpt>
      <trkpt lat="44.4368435" lon="5.8637290">
        <ele>1352.2314453</ele>
        <time>2010-05-16T12:57:09Z</time>
      </trkpt>
      <trkpt lat="44.4368484" lon="5.8637300">
        <ele>1352.2314453</ele>
        <time>2010-05-16T12:57:35Z</time>
      </trkpt>
      <trkpt lat="44.4368484" lon="5.8637300">
        <ele>1354.1542969</ele>
        <time>2010-05-16T12:57:37Z</time>
      </trkpt>
      <trkpt lat="44.4368466" lon="5.8637326">
        <ele>1355.1154785</ele>
        <time>2010-05-16T12:58:15Z</time>
      </trkpt>
      <trkpt lat="44.4368466" lon="5.8637326">
        <ele>1352.2314453</ele>
        <time>2010-05-16T12:58:30Z</time>
      </trkpt>
      <trkpt lat="44.4368478" lon="5.8637319">
        <ele>1354.1542969</ele>
        <time>2010-05-16T12:58:53Z</time>
      </trkpt>
      <trkpt lat="44.4368511" lon="5.8637360">
        <ele>1354.1542969</ele>
        <time>2010-05-16T12:59:40Z</time>
      </trkpt>
      <trkpt lat="44.4368511" lon="5.8637360">
        <ele>1351.2702637</ele>
        <time>2010-05-16T12:59:43Z</time>
      </trkpt>
      <trkpt lat="44.4368501" lon="5.8637334">
        <ele>1351.7509766</ele>
        <time>2010-05-16T13:00:07Z</time>
      </trkpt>
      <trkpt lat="44.4368501" lon="5.8637334">
        <ele>1354.6347656</ele>
        <time>2010-05-16T13:00:13Z</time>
      </trkpt>
      <trkpt lat="44.4368501" lon="5.8637334">
        <ele>1354.1542969</ele>
        <time>2010-05-16T13:00:17Z</time>
      </trkpt>
      <trkpt lat="44.4368542" lon="5.8637366">
        <ele>1351.7509766</ele>
        <time>2010-05-16T13:00:25Z</time>
      </trkpt>
      <trkpt lat="44.4368542" lon="5.8637366">
        <ele>1351.7509766</ele>
        <time>2010-05-16T13:00:38Z</time>
      </trkpt>
      <trkpt lat="44.4368828" lon="5.8637813">
        <ele>1351.2702637</ele>
        <time>2010-05-16T13:00:49Z</time>
      </trkpt>
      <trkpt lat="44.4368897" lon="5.8638000">
        <ele>1350.7895508</ele>
        <time>2010-05-16T13:00:53Z</time>
      </trkpt>
      <trkpt lat="44.4369320" lon="5.8638416">
        <ele>1350.3090820</ele>
        <time>2010-05-16T13:00:58Z</time>
      </trkpt>
      <trkpt lat="44.4369612" lon="5.8638574">
        <ele>1350.3090820</ele>
        <time>2010-05-16T13:01:01Z</time>
      </trkpt>
      <trkpt lat="44.4370721" lon="5.8638798">
        <ele>1349.8283691</ele>
        <time>2010-05-16T13:01:14Z</time>
      </trkpt>
      <trkpt lat="44.4371793" lon="5.8639157">
        <ele>1346.9443359</ele>
        <time>2010-05-16T13:01:27Z</time>
      </trkpt>
      <trkpt lat="44.4371942" lon="5.8639353">
        <ele>1346.9443359</ele>
        <time>2010-05-16T13:01:29Z</time>
      </trkpt>
      <trkpt lat="44.4372462" lon="5.8640489">
        <ele>1345.0217285</ele>
        <time>2010-05-16T13:01:40Z</time>
      </trkpt>
      <trkpt lat="44.4373409" lon="5.8641104">
        <ele>1342.1379395</ele>
        <time>2010-05-16T13:01:51Z</time>
      </trkpt>
      <trkpt lat="44.4374185" lon="5.8642430">
        <ele>1342.6186523</ele>
        <time>2010-05-16T13:02:05Z</time>
      </trkpt>
      <trkpt lat="44.4374559" lon="5.8643207">
        <ele>1340.2153320</ele>
        <time>2010-05-16T13:02:13Z</time>
      </trkpt>
      <trkpt lat="44.4374667" lon="5.8643597">
        <ele>1338.2924805</ele>
        <time>2010-05-16T13:02:16Z</time>
      </trkpt>
      <trkpt lat="44.4374721" lon="5.8643687">
        <ele>1337.8117676</ele>
        <time>2010-05-16T13:02:17Z</time>
      </trkpt>
      <trkpt lat="44.4375047" lon="5.8644000">
        <ele>1337.3310547</ele>
        <time>2010-05-16T13:02:21Z</time>
      </trkpt>
      <trkpt lat="44.4376120" lon="5.8645269">
        <ele>1334.4472656</ele>
        <time>2010-05-16T13:02:34Z</time>
      </trkpt>
      <trkpt lat="44.4376939" lon="5.8646535">
        <ele>1333.4858398</ele>
        <time>2010-05-16T13:02:48Z</time>
      </trkpt>
      <trkpt lat="44.4376957" lon="5.8647106">
        <ele>1334.9279785</ele>
        <time>2010-05-16T13:02:54Z</time>
      </trkpt>
      <trkpt lat="44.4376520" lon="5.8647674">
        <ele>1332.5246582</ele>
        <time>2010-05-16T13:02:59Z</time>
      </trkpt>
      <trkpt lat="44.4376184" lon="5.8649186">
        <ele>1329.6406250</ele>
        <time>2010-05-16T13:03:09Z</time>
      </trkpt>
      <trkpt lat="44.4376167" lon="5.8649383">
        <ele>1329.6406250</ele>
        <time>2010-05-16T13:03:10Z</time>
      </trkpt>
      <trkpt lat="44.4376484" lon="5.8650964">
        <ele>1327.2375488</ele>
        <time>2010-05-16T13:03:21Z</time>
      </trkpt>
      <trkpt lat="44.4376947" lon="5.8652794">
        <ele>1326.7568359</ele>
        <time>2010-05-16T13:03:37Z</time>
      </trkpt>
      <trkpt lat="44.4376408" lon="5.8653517">
        <ele>1323.8725586</ele>
        <time>2010-05-16T13:03:47Z</time>
      </trkpt>
      <trkpt lat="44.4376340" lon="5.8653713">
        <ele>1323.3920898</ele>
        <time>2010-05-16T13:03:49Z</time>
      </trkpt>
      <trkpt lat="44.4376177" lon="5.8654197">
        <ele>1321.4692383</ele>
        <time>2010-05-16T13:03:53Z</time>
      </trkpt>
      <trkpt lat="44.4376160" lon="5.8654667">
        <ele>1320.0273438</ele>
        <time>2010-05-16T13:03:57Z</time>
      </trkpt>
      <trkpt lat="44.4376809" lon="5.8656525">
        <ele>1317.1435547</ele>
        <time>2010-05-16T13:04:13Z</time>
      </trkpt>
      <trkpt lat="44.4377371" lon="5.8657781">
        <ele>1315.2209473</ele>
        <time>2010-05-16T13:04:26Z</time>
      </trkpt>
      <trkpt lat="44.4377611" lon="5.8658088">
        <ele>1313.7788086</ele>
        <time>2010-05-16T13:04:29Z</time>
      </trkpt>
      <trkpt lat="44.4378765" lon="5.8658008">
        <ele>1313.7788086</ele>
        <time>2010-05-16T13:04:43Z</time>
      </trkpt>
      <trkpt lat="44.4378737" lon="5.8657994">
        <ele>1312.8176270</ele>
        <time>2010-05-16T13:05:00Z</time>
      </trkpt>
      <trkpt lat="44.4378925" lon="5.8657987">
        <ele>1313.7788086</ele>
        <time>2010-05-16T13:05:15Z</time>
      </trkpt>
      <trkpt lat="44.4379200" lon="5.8657540">
        <ele>1314.2595215</ele>
        <time>2010-05-16T13:05:20Z</time>
      </trkpt>
      <trkpt lat="44.4379687" lon="5.8657491">
        <ele>1314.7402344</ele>
        <time>2010-05-16T13:05:32Z</time>
      </trkpt>
      <trkpt lat="44.4380158" lon="5.8657091">
        <ele>1311.3757324</ele>
        <time>2010-05-16T13:05:41Z</time>
      </trkpt>
      <trkpt lat="44.4380240" lon="5.8657042">
        <ele>1311.3757324</ele>
        <time>2010-05-16T13:05:42Z</time>
      </trkpt>
      <trkpt lat="44.4381646" lon="5.8656682">
        <ele>1311.3757324</ele>
        <time>2010-05-16T13:05:53Z</time>
      </trkpt>
      <trkpt lat="44.4382089" lon="5.8656921">
        <ele>1311.8564453</ele>
        <time>2010-05-16T13:05:57Z</time>
      </trkpt>
      <trkpt lat="44.4382581" lon="5.8657589">
        <ele>1310.4143066</ele>
        <time>2010-05-16T13:06:03Z</time>
      </trkpt>
      <trkpt lat="44.4382682" lon="5.8657898">
        <ele>1308.9724121</ele>
        <time>2010-05-16T13:06:05Z</time>
      </trkpt>
      <trkpt lat="44.4383012" lon="5.8660520">
        <ele>1308.9724121</ele>
        <time>2010-05-16T13:06:22Z</time>
      </trkpt>
      <trkpt lat="44.4383510" lon="5.8662644">
        <ele>1306.5688477</ele>
        <time>2010-05-16T13:06:37Z</time>
      </trkpt>
      <trkpt lat="44.4383977" lon="5.8664451">
        <ele>1305.6076660</ele>
        <time>2010-05-16T13:06:50Z</time>
      </trkpt>
      <trkpt lat="44.4384219" lon="5.8665392">
        <ele>1303.2043457</ele>
        <time>2010-05-16T13:06:56Z</time>
      </trkpt>
      <trkpt lat="44.4384261" lon="5.8665544">
        <ele>1303.2043457</ele>
        <time>2010-05-16T13:06:57Z</time>
      </trkpt>
      <trkpt lat="44.4384324" lon="5.8668272">
        <ele>1301.7624512</ele>
        <time>2010-05-16T13:07:13Z</time>
      </trkpt>
      <trkpt lat="44.4384312" lon="5.8670180">
        <ele>1299.8398438</ele>
        <time>2010-05-16T13:07:25Z</time>
      </trkpt>
      <trkpt lat="44.4384324" lon="5.8670300">
        <ele>1300.8010254</ele>
        <time>2010-05-16T13:07:44Z</time>
      </trkpt>
      <trkpt lat="44.4384019" lon="5.8671643">
        <ele>1297.4365234</ele>
        <time>2010-05-16T13:08:01Z</time>
      </trkpt>
      <trkpt lat="44.4383567" lon="5.8672860">
        <ele>1298.8784180</ele>
        <time>2010-05-16T13:08:09Z</time>
      </trkpt>
      <trkpt lat="44.4383131" lon="5.8674653">
        <ele>1296.4753418</ele>
        <time>2010-05-16T13:08:20Z</time>
      </trkpt>
      <trkpt lat="44.4383036" lon="5.8675048">
        <ele>1294.5524902</ele>
        <time>2010-05-16T13:08:23Z</time>
      </trkpt>
      <trkpt lat="44.4382570" lon="5.8677299">
        <ele>1291.1877441</ele>
        <time>2010-05-16T13:08:37Z</time>
      </trkpt>
      <trkpt lat="44.4382492" lon="5.8677590">
        <ele>1290.7070313</ele>
        <time>2010-05-16T13:08:39Z</time>
      </trkpt>
      <trkpt lat="44.4381802" lon="5.8679790">
        <ele>1289.2651367</ele>
        <time>2010-05-16T13:08:54Z</time>
      </trkpt>
      <trkpt lat="44.4381560" lon="5.8680726">
        <ele>1289.7458496</ele>
        <time>2010-05-16T13:09:09Z</time>
      </trkpt>
      <trkpt lat="44.4381533" lon="5.8682288">
        <ele>1288.3039551</ele>
        <time>2010-05-16T13:09:24Z</time>
      </trkpt>
      <trkpt lat="44.4381531" lon="5.8683304">
        <ele>1287.8232422</ele>
        <time>2010-05-16T13:09:28Z</time>
      </trkpt>
      <trkpt lat="44.4382521" lon="5.8685318">
        <ele>1284.9394531</ele>
        <time>2010-05-16T13:09:39Z</time>
      </trkpt>
      <trkpt lat="44.4383935" lon="5.8687060">
        <ele>1283.0166016</ele>
        <time>2010-05-16T13:09:54Z</time>
      </trkpt>
      <trkpt lat="44.4384129" lon="5.8687266">
        <ele>1283.0166016</ele>
        <time>2010-05-16T13:09:56Z</time>
      </trkpt>
      <trkpt lat="44.4385046" lon="5.8687921">
        <ele>1283.0166016</ele>
        <time>2010-05-16T13:10:04Z</time>
      </trkpt>
      <trkpt lat="44.4386391" lon="5.8689016">
        <ele>1282.0554199</ele>
        <time>2010-05-16T13:10:18Z</time>
      </trkpt>
      <trkpt lat="44.4386645" lon="5.8689465">
        <ele>1281.0942383</ele>
        <time>2010-05-16T13:10:22Z</time>
      </trkpt>
      <trkpt lat="44.4387101" lon="5.8690496">
        <ele>1281.0942383</ele>
        <time>2010-05-16T13:10:36Z</time>
      </trkpt>
      <trkpt lat="44.4387612" lon="5.8690508">
        <ele>1281.0942383</ele>
        <time>2010-05-16T13:10:47Z</time>
      </trkpt>
      <trkpt lat="44.4387677" lon="5.8690427">
        <ele>1281.5747070</ele>
        <time>2010-05-16T13:11:04Z</time>
      </trkpt>
      <trkpt lat="44.4387677" lon="5.8690427">
        <ele>1283.0166016</ele>
        <time>2010-05-16T13:11:11Z</time>
      </trkpt>
      <trkpt lat="44.4387952" lon="5.8690644">
        <ele>1281.5747070</ele>
        <time>2010-05-16T13:11:28Z</time>
      </trkpt>
      <trkpt lat="44.4388197" lon="5.8690695">
        <ele>1282.0554199</ele>
        <time>2010-05-16T13:11:38Z</time>
      </trkpt>
      <trkpt lat="44.4388975" lon="5.8690699">
        <ele>1282.5361328</ele>
        <time>2010-05-16T13:11:47Z</time>
      </trkpt>
      <trkpt lat="44.4388778" lon="5.8690856">
        <ele>1280.1328125</ele>
        <time>2010-05-16T13:11:54Z</time>
      </trkpt>
      <trkpt lat="44.4388866" lon="5.8690836">
        <ele>1281.5747070</ele>
        <time>2010-05-16T13:12:39Z</time>
      </trkpt>
      <trkpt lat="44.4388939" lon="5.8690791">
        <ele>1282.0554199</ele>
        <time>2010-05-16T13:12:42Z</time>
      </trkpt>
      <trkpt lat="44.4389468" lon="5.8690899">
        <ele>1283.4973145</ele>
        <time>2010-05-16T13:12:48Z</time>
      </trkpt>
      <trkpt lat="44.4390541" lon="5.8690601">
        <ele>1285.4199219</ele>
        <time>2010-05-16T13:13:02Z</time>
      </trkpt>
      <trkpt lat="44.4390502" lon="5.8690521">
        <ele>1284.4587402</ele>
        <time>2010-05-16T13:13:26Z</time>
      </trkpt>
      <trkpt lat="44.4390502" lon="5.8690521">
        <ele>1284.9394531</ele>
        <time>2010-05-16T13:13:53Z</time>
      </trkpt>
      <trkpt lat="44.4390970" lon="5.8690197">
        <ele>1285.4199219</ele>
        <time>2010-05-16T13:14:20Z</time>
      </trkpt>
      <trkpt lat="44.4391159" lon="5.8690010">
        <ele>1287.3425293</ele>
        <time>2010-05-16T13:14:22Z</time>
      </trkpt>
      <trkpt lat="44.4392127" lon="5.8688560">
        <ele>1288.3039551</ele>
        <time>2010-05-16T13:14:36Z</time>
      </trkpt>
      <trkpt lat="44.4392239" lon="5.8688312">
        <ele>1290.2265625</ele>
        <time>2010-05-16T13:14:38Z</time>
      </trkpt>
      <trkpt lat="44.4393223" lon="5.8686473">
        <ele>1288.7846680</ele>
        <time>2010-05-16T13:14:54Z</time>
      </trkpt>
      <trkpt lat="44.4393442" lon="5.8685924">
        <ele>1290.2265625</ele>
        <time>2010-05-16T13:14:58Z</time>
      </trkpt>
      <trkpt lat="44.4393727" lon="5.8685208">
        <ele>1288.7846680</ele>
        <time>2010-05-16T13:15:03Z</time>
      </trkpt>
      <trkpt lat="44.4394557" lon="5.8683334">
        <ele>1288.7846680</ele>
        <time>2010-05-16T13:15:17Z</time>
      </trkpt>
      <trkpt lat="44.4394824" lon="5.8682729">
        <ele>1290.7070313</ele>
        <time>2010-05-16T13:15:22Z</time>
      </trkpt>
      <trkpt lat="44.4395731" lon="5.8681231">
        <ele>1290.7070313</ele>
        <time>2010-05-16T13:15:34Z</time>
      </trkpt>
      <trkpt lat="44.4396435" lon="5.8680354">
        <ele>1293.5913086</ele>
        <time>2010-05-16T13:15:41Z</time>
      </trkpt>
      <trkpt lat="44.4396644" lon="5.8680103">
        <ele>1292.1494141</ele>
        <time>2010-05-16T13:15:43Z</time>
      </trkpt>
      <trkpt lat="44.4397478" lon="5.8679062">
        <ele>1294.0720215</ele>
        <time>2010-05-16T13:15:52Z</time>
      </trkpt>
      <trkpt lat="44.4398514" lon="5.8677734">
        <ele>1293.5913086</ele>
        <time>2010-05-16T13:16:03Z</time>
      </trkpt>
      <trkpt lat="44.4399495" lon="5.8676395">
        <ele>1295.0332031</ele>
        <time>2010-05-16T13:16:14Z</time>
      </trkpt>
      <trkpt lat="44.4400679" lon="5.8675092">
        <ele>1295.0332031</ele>
        <time>2010-05-16T13:16:26Z</time>
      </trkpt>
      <trkpt lat="44.4401817" lon="5.8674072">
        <ele>1296.9558105</ele>
        <time>2010-05-16T13:16:37Z</time>
      </trkpt>
      <trkpt lat="44.4402799" lon="5.8672794">
        <ele>1296.9558105</ele>
        <time>2010-05-16T13:16:48Z</time>
      </trkpt>
      <trkpt lat="44.4403859" lon="5.8671046">
        <ele>1296.4753418</ele>
        <time>2010-05-16T13:17:01Z</time>
      </trkpt>
      <trkpt lat="44.4404902" lon="5.8669291">
        <ele>1296.9558105</ele>
        <time>2010-05-16T13:17:14Z</time>
      </trkpt>
      <trkpt lat="44.4405837" lon="5.8667271">
        <ele>1296.9558105</ele>
        <time>2010-05-16T13:17:29Z</time>
      </trkpt>
      <trkpt lat="44.4406924" lon="5.8665494">
        <ele>1296.4753418</ele>
        <time>2010-05-16T13:17:42Z</time>
      </trkpt>
      <trkpt lat="44.4407508" lon="5.8664364">
        <ele>1296.9558105</ele>
        <time>2010-05-16T13:17:50Z</time>
      </trkpt>
      <trkpt lat="44.4407892" lon="5.8663906">
        <ele>1296.4753418</ele>
        <time>2010-05-16T13:17:54Z</time>
      </trkpt>
      <trkpt lat="44.4408754" lon="5.8662069">
        <ele>1297.4365234</ele>
        <time>2010-05-16T13:18:07Z</time>
      </trkpt>
      <trkpt lat="44.4408913" lon="5.8661597">
        <ele>1296.4753418</ele>
        <time>2010-05-16T13:18:10Z</time>
      </trkpt>
      <trkpt lat="44.4410020" lon="5.8660163">
        <ele>1295.9946289</ele>
        <time>2010-05-16T13:18:22Z</time>
      </trkpt>
      <trkpt lat="44.4411172" lon="5.8658347">
        <ele>1295.0332031</ele>
        <time>2010-05-16T13:18:35Z</time>
      </trkpt>
      <trkpt lat="44.4411380" lon="5.8657908">
        <ele>1296.4753418</ele>
        <time>2010-05-16T13:18:38Z</time>
      </trkpt>
      <trkpt lat="44.4412094" lon="5.8655421">
        <ele>1295.9946289</ele>
        <time>2010-05-16T13:18:53Z</time>
      </trkpt>
      <trkpt lat="44.4412214" lon="5.8654244">
        <ele>1297.4365234</ele>
        <time>2010-05-16T13:19:00Z</time>
      </trkpt>
      <trkpt lat="44.4412301" lon="5.8653173">
        <ele>1298.3977051</ele>
        <time>2010-05-16T13:19:06Z</time>
      </trkpt>
      <trkpt lat="44.4412559" lon="5.8651540">
        <ele>1297.4365234</ele>
        <time>2010-05-16T13:19:17Z</time>
      </trkpt>
      <trkpt lat="44.4412907" lon="5.8651110">
        <ele>1297.4365234</ele>
        <time>2010-05-16T13:19:22Z</time>
      </trkpt>
      <trkpt lat="44.4413021" lon="5.8650855">
        <ele>1297.4365234</ele>
        <time>2010-05-16T13:19:24Z</time>
      </trkpt>
      <trkpt lat="44.4414064" lon="5.8650536">
        <ele>1297.4365234</ele>
        <time>2010-05-16T13:19:35Z</time>
      </trkpt>
      <trkpt lat="44.4415232" lon="5.8650951">
        <ele>1297.4365234</ele>
        <time>2010-05-16T13:19:52Z</time>
      </trkpt>
      <trkpt lat="44.4416655" lon="5.8651447">
        <ele>1297.9172363</ele>
        <time>2010-05-16T13:20:04Z</time>
      </trkpt>
      <trkpt lat="44.4416973" lon="5.8651709">
        <ele>1297.4365234</ele>
        <time>2010-05-16T13:20:07Z</time>
      </trkpt>
      <trkpt lat="44.4417403" lon="5.8651938">
        <ele>1298.3977051</ele>
        <time>2010-05-16T13:20:23Z</time>
      </trkpt>
      <trkpt lat="44.4417417" lon="5.8651883">
        <ele>1299.8398438</ele>
        <time>2010-05-16T13:20:33Z</time>
      </trkpt>
      <trkpt lat="44.4417418" lon="5.8651811">
        <ele>1298.3977051</ele>
        <time>2010-05-16T13:20:53Z</time>
      </trkpt>
      <trkpt lat="44.4417387" lon="5.8651784">
        <ele>1299.8398438</ele>
        <time>2010-05-16T13:21:09Z</time>
      </trkpt>
      <trkpt lat="44.4417477" lon="5.8651621">
        <ele>1298.8784180</ele>
        <time>2010-05-16T13:21:24Z</time>
      </trkpt>
      <trkpt lat="44.4417504" lon="5.8651103">
        <ele>1298.8784180</ele>
        <time>2010-05-16T13:21:37Z</time>
      </trkpt>
      <trkpt lat="44.4417504" lon="5.8651103">
        <ele>1300.8010254</ele>
        <time>2010-05-16T13:21:49Z</time>
      </trkpt>
      <trkpt lat="44.4417543" lon="5.8651637">
        <ele>1299.3591309</ele>
        <time>2010-05-16T13:22:07Z</time>
      </trkpt>
      <trkpt lat="44.4417397" lon="5.8651611">
        <ele>1299.8398438</ele>
        <time>2010-05-16T13:22:16Z</time>
      </trkpt>
      <trkpt lat="44.4417397" lon="5.8651611">
        <ele>1300.8010254</ele>
        <time>2010-05-16T13:22:29Z</time>
      </trkpt>
      <trkpt lat="44.4417397" lon="5.8651611">
        <ele>1298.8784180</ele>
        <time>2010-05-16T13:22:31Z</time>
      </trkpt>
      <trkpt lat="44.4417370" lon="5.8651453">
        <ele>1297.4365234</ele>
        <time>2010-05-16T13:22:54Z</time>
      </trkpt>
      <trkpt lat="44.4417286" lon="5.8651476">
        <ele>1298.3977051</ele>
        <time>2010-05-16T13:23:11Z</time>
      </trkpt>
      <trkpt lat="44.4417284" lon="5.8651549">
        <ele>1299.8398438</ele>
        <time>2010-05-16T13:23:23Z</time>
      </trkpt>
      <trkpt lat="44.4417284" lon="5.8651549">
        <ele>1298.3977051</ele>
        <time>2010-05-16T13:23:41Z</time>
      </trkpt>
      <trkpt lat="44.4417383" lon="5.8651554">
        <ele>1298.8784180</ele>
        <time>2010-05-16T13:23:53Z</time>
      </trkpt>
      <trkpt lat="44.4417503" lon="5.8651362">
        <ele>1297.9172363</ele>
        <time>2010-05-16T13:23:55Z</time>
      </trkpt>
      <trkpt lat="44.4417544" lon="5.8651094">
        <ele>1298.8784180</ele>
        <time>2010-05-16T13:23:57Z</time>
      </trkpt>
      <trkpt lat="44.4418140" lon="5.8649640">
        <ele>1297.4365234</ele>
        <time>2010-05-16T13:24:09Z</time>
      </trkpt>
      <trkpt lat="44.4418311" lon="5.8649193">
        <ele>1297.4365234</ele>
        <time>2010-05-16T13:24:13Z</time>
      </trkpt>
      <trkpt lat="44.4418866" lon="5.8647573">
        <ele>1295.9946289</ele>
        <time>2010-05-16T13:24:24Z</time>
      </trkpt>
      <trkpt lat="44.4419398" lon="5.8645708">
        <ele>1293.5913086</ele>
        <time>2010-05-16T13:24:37Z</time>
      </trkpt>
      <trkpt lat="44.4419561" lon="5.8644924">
        <ele>1292.6301270</ele>
        <time>2010-05-16T13:24:42Z</time>
      </trkpt>
      <trkpt lat="44.4419844" lon="5.8643939">
        <ele>1291.1877441</ele>
        <time>2010-05-16T13:24:49Z</time>
      </trkpt>
      <trkpt lat="44.4420372" lon="5.8642215">
        <ele>1290.2265625</ele>
        <time>2010-05-16T13:25:01Z</time>
      </trkpt>
      <trkpt lat="44.4420581" lon="5.8641491">
        <ele>1291.1877441</ele>
        <time>2010-05-16T13:25:06Z</time>
      </trkpt>
      <trkpt lat="44.4420662" lon="5.8641180">
        <ele>1290.7070313</ele>
        <time>2010-05-16T13:25:08Z</time>
      </trkpt>
      <trkpt lat="44.4421061" lon="5.8639675">
        <ele>1290.2265625</ele>
        <time>2010-05-16T13:25:19Z</time>
      </trkpt>
      <trkpt lat="44.4421336" lon="5.8637632">
        <ele>1288.7846680</ele>
        <time>2010-05-16T13:25:34Z</time>
      </trkpt>
      <trkpt lat="44.4421474" lon="5.8637249">
        <ele>1287.3425293</ele>
        <time>2010-05-16T13:25:52Z</time>
      </trkpt>
      <trkpt lat="44.4421499" lon="5.8637099">
        <ele>1287.3425293</ele>
        <time>2010-05-16T13:25:53Z</time>
      </trkpt>
      <trkpt lat="44.4421556" lon="5.8636374">
        <ele>1287.3425293</ele>
        <time>2010-05-16T13:25:57Z</time>
      </trkpt>
      <trkpt lat="44.4422030" lon="5.8635674">
        <ele>1286.3813477</ele>
        <time>2010-05-16T13:26:09Z</time>
      </trkpt>
      <trkpt lat="44.4422127" lon="5.8635278">
        <ele>1287.8232422</ele>
        <time>2010-05-16T13:26:17Z</time>
      </trkpt>
      <trkpt lat="44.4423079" lon="5.8633525">
        <ele>1287.3425293</ele>
        <time>2010-05-16T13:26:32Z</time>
      </trkpt>
      <trkpt lat="44.4423879" lon="5.8631332">
        <ele>1287.8232422</ele>
        <time>2010-05-16T13:26:47Z</time>
      </trkpt>
      <trkpt lat="44.4424122" lon="5.8629804">
        <ele>1287.3425293</ele>
        <time>2010-05-16T13:26:58Z</time>
      </trkpt>
      <trkpt lat="44.4424642" lon="5.8627853">
        <ele>1286.3813477</ele>
        <time>2010-05-16T13:27:10Z</time>
      </trkpt>
      <trkpt lat="44.4424878" lon="5.8626845">
        <ele>1286.8618164</ele>
        <time>2010-05-16T13:27:16Z</time>
      </trkpt>
      <trkpt lat="44.4425419" lon="5.8625043">
        <ele>1284.9394531</ele>
        <time>2010-05-16T13:27:28Z</time>
      </trkpt>
      <trkpt lat="44.4426567" lon="5.8623136">
        <ele>1285.9006348</ele>
        <time>2010-05-16T13:27:43Z</time>
      </trkpt>
      <trkpt lat="44.4427764" lon="5.8621566">
        <ele>1286.8618164</ele>
        <time>2010-05-16T13:27:56Z</time>
      </trkpt>
      <trkpt lat="44.4428287" lon="5.8619418">
        <ele>1287.3425293</ele>
        <time>2010-05-16T13:28:09Z</time>
      </trkpt>
      <trkpt lat="44.4428306" lon="5.8618283">
        <ele>1287.3425293</ele>
        <time>2010-05-16T13:28:15Z</time>
      </trkpt>
      <trkpt lat="44.4428254" lon="5.8615984">
        <ele>1286.3813477</ele>
        <time>2010-05-16T13:28:29Z</time>
      </trkpt>
      <trkpt lat="44.4428417" lon="5.8615679">
        <ele>1286.3813477</ele>
        <time>2010-05-16T13:28:39Z</time>
      </trkpt>
      <trkpt lat="44.4428391" lon="5.8615625">
        <ele>1286.3813477</ele>
        <time>2010-05-16T13:28:41Z</time>
      </trkpt>
      <trkpt lat="44.4428234" lon="5.8614993">
        <ele>1286.3813477</ele>
        <time>2010-05-16T13:28:45Z</time>
      </trkpt>
      <trkpt lat="44.4428227" lon="5.8614471">
        <ele>1285.9006348</ele>
        <time>2010-05-16T13:28:48Z</time>
      </trkpt>
      <trkpt lat="44.4428395" lon="5.8613828">
        <ele>1285.4199219</ele>
        <time>2010-05-16T13:28:52Z</time>
      </trkpt>
      <trkpt lat="44.4428409" lon="5.8613543">
        <ele>1285.9006348</ele>
        <time>2010-05-16T13:28:54Z</time>
      </trkpt>
      <trkpt lat="44.4428871" lon="5.8611907">
        <ele>1286.8618164</ele>
        <time>2010-05-16T13:29:05Z</time>
      </trkpt>
      <trkpt lat="44.4429102" lon="5.8612066">
        <ele>1285.4199219</ele>
        <time>2010-05-16T13:29:21Z</time>
      </trkpt>
      <trkpt lat="44.4429199" lon="5.8611479">
        <ele>1286.3813477</ele>
        <time>2010-05-16T13:29:40Z</time>
      </trkpt>
      <trkpt lat="44.4429062" lon="5.8610861">
        <ele>1287.3425293</ele>
        <time>2010-05-16T13:29:49Z</time>
      </trkpt>
      <trkpt lat="44.4429461" lon="5.8610428">
        <ele>1287.8232422</ele>
        <time>2010-05-16T13:29:53Z</time>
      </trkpt>
      <trkpt lat="44.4430641" lon="5.8609077">
        <ele>1287.8232422</ele>
        <time>2010-05-16T13:30:06Z</time>
      </trkpt>
      <trkpt lat="44.4430727" lon="5.8608932">
        <ele>1287.8232422</ele>
        <time>2010-05-16T13:30:07Z</time>
      </trkpt>
      <trkpt lat="44.4431254" lon="5.8607590">
        <ele>1286.8618164</ele>
        <time>2010-05-16T13:30:16Z</time>
      </trkpt>
      <trkpt lat="44.4431761" lon="5.8606602">
        <ele>1287.3425293</ele>
        <time>2010-05-16T13:30:23Z</time>
      </trkpt>
      <trkpt lat="44.4432221" lon="5.8605590">
        <ele>1287.3425293</ele>
        <time>2010-05-16T13:30:35Z</time>
      </trkpt>
      <trkpt lat="44.4432581" lon="5.8605436">
        <ele>1285.4199219</ele>
        <time>2010-05-16T13:30:53Z</time>
      </trkpt>
      <trkpt lat="44.4432607" lon="5.8604720">
        <ele>1286.8618164</ele>
        <time>2010-05-16T13:31:07Z</time>
      </trkpt>
      <trkpt lat="44.4433171" lon="5.8603592">
        <ele>1286.8618164</ele>
        <time>2010-05-16T13:31:17Z</time>
      </trkpt>
      <trkpt lat="44.4433458" lon="5.8603199">
        <ele>1286.3813477</ele>
        <time>2010-05-16T13:31:21Z</time>
      </trkpt>
      <trkpt lat="44.4433568" lon="5.8602958">
        <ele>1286.3813477</ele>
        <time>2010-05-16T13:31:23Z</time>
      </trkpt>
      <trkpt lat="44.4434092" lon="5.8602274">
        <ele>1286.3813477</ele>
        <time>2010-05-16T13:31:29Z</time>
      </trkpt>
      <trkpt lat="44.4434312" lon="5.8601992">
        <ele>1286.3813477</ele>
        <time>2010-05-16T13:31:32Z</time>
      </trkpt>
      <trkpt lat="44.4434740" lon="5.8601588">
        <ele>1285.9006348</ele>
        <time>2010-05-16T13:31:45Z</time>
      </trkpt>
      <trkpt lat="44.4434748" lon="5.8601492">
        <ele>1286.3813477</ele>
        <time>2010-05-16T13:32:14Z</time>
      </trkpt>
      <trkpt lat="44.4434884" lon="5.8601322">
        <ele>1285.9006348</ele>
        <time>2010-05-16T13:32:16Z</time>
      </trkpt>
      <trkpt lat="44.4435350" lon="5.8600589">
        <ele>1285.9006348</ele>
        <time>2010-05-16T13:32:22Z</time>
      </trkpt>
      <trkpt lat="44.4435840" lon="5.8600180">
        <ele>1288.3039551</ele>
        <time>2010-05-16T13:32:27Z</time>
      </trkpt>
      <trkpt lat="44.4436198" lon="5.8599835">
        <ele>1285.9006348</ele>
        <time>2010-05-16T13:32:32Z</time>
      </trkpt>
      <trkpt lat="44.4436919" lon="5.8598999">
        <ele>1284.4587402</ele>
        <time>2010-05-16T13:32:43Z</time>
      </trkpt>
      <trkpt lat="44.4437585" lon="5.8598442">
        <ele>1283.4973145</ele>
        <time>2010-05-16T13:32:54Z</time>
      </trkpt>
      <trkpt lat="44.4437740" lon="5.8598344">
        <ele>1283.4973145</ele>
        <time>2010-05-16T13:32:56Z</time>
      </trkpt>
      <trkpt lat="44.4438422" lon="5.8598230">
        <ele>1282.5361328</ele>
        <time>2010-05-16T13:33:04Z</time>
      </trkpt>
      <trkpt lat="44.4439942" lon="5.8599313">
        <ele>1283.0166016</ele>
        <time>2010-05-16T13:33:22Z</time>
      </trkpt>
      <trkpt lat="44.4439994" lon="5.8599419">
        <ele>1283.0166016</ele>
        <time>2010-05-16T13:33:23Z</time>
      </trkpt>
      <trkpt lat="44.4440672" lon="5.8601373">
        <ele>1281.5747070</ele>
        <time>2010-05-16T13:33:37Z</time>
      </trkpt>
      <trkpt lat="44.4440770" lon="5.8601610">
        <ele>1281.5747070</ele>
        <time>2010-05-16T13:33:39Z</time>
      </trkpt>
      <trkpt lat="44.4441287" lon="5.8602285">
        <ele>1281.0942383</ele>
        <time>2010-05-16T13:33:46Z</time>
      </trkpt>
      <trkpt lat="44.4442311" lon="5.8602303">
        <ele>1281.0942383</ele>
        <time>2010-05-16T13:33:54Z</time>
      </trkpt>
      <trkpt lat="44.4442616" lon="5.8602133">
        <ele>1282.5361328</ele>
        <time>2010-05-16T13:33:57Z</time>
      </trkpt>
      <trkpt lat="44.4442719" lon="5.8602072">
        <ele>1283.9780273</ele>
        <time>2010-05-16T13:33:58Z</time>
      </trkpt>
      <trkpt lat="44.4443543" lon="5.8600444">
        <ele>1282.0554199</ele>
        <time>2010-05-16T13:34:11Z</time>
      </trkpt>
      <trkpt lat="44.4444910" lon="5.8599596">
        <ele>1282.0554199</ele>
        <time>2010-05-16T13:34:23Z</time>
      </trkpt>
      <trkpt lat="44.4446378" lon="5.8599179">
        <ele>1281.0942383</ele>
        <time>2010-05-16T13:34:36Z</time>
      </trkpt>
      <trkpt lat="44.4447987" lon="5.8598290">
        <ele>1280.6135254</ele>
        <time>2010-05-16T13:34:50Z</time>
      </trkpt>
      <trkpt lat="44.4448350" lon="5.8598064">
        <ele>1279.6520996</ele>
        <time>2010-05-16T13:34:53Z</time>
      </trkpt>
      <trkpt lat="44.4449383" lon="5.8597291">
        <ele>1278.2102051</ele>
        <time>2010-05-16T13:35:03Z</time>
      </trkpt>
      <trkpt lat="44.4450004" lon="5.8597180">
        <ele>1277.2490234</ele>
        <time>2010-05-16T13:35:08Z</time>
      </trkpt>
      <trkpt lat="44.4450417" lon="5.8597002">
        <ele>1274.8454590</ele>
        <time>2010-05-16T13:35:12Z</time>
      </trkpt>
      <trkpt lat="44.4450523" lon="5.8596963">
        <ele>1274.8454590</ele>
        <time>2010-05-16T13:35:13Z</time>
      </trkpt>
      <trkpt lat="44.4451627" lon="5.8596532">
        <ele>1273.4035645</ele>
        <time>2010-05-16T13:35:23Z</time>
      </trkpt>
      <trkpt lat="44.4452101" lon="5.8595970">
        <ele>1272.9228516</ele>
        <time>2010-05-16T13:35:29Z</time>
      </trkpt>
      <trkpt lat="44.4453007" lon="5.8594792">
        <ele>1270.5195313</ele>
        <time>2010-05-16T13:35:40Z</time>
      </trkpt>
      <trkpt lat="44.4453708" lon="5.8594380">
        <ele>1269.5583496</ele>
        <time>2010-05-16T13:35:47Z</time>
      </trkpt>
      <trkpt lat="44.4453985" lon="5.8594215">
        <ele>1269.0776367</ele>
        <time>2010-05-16T13:35:50Z</time>
      </trkpt>
      <trkpt lat="44.4454164" lon="5.8594122">
        <ele>1268.5969238</ele>
        <time>2010-05-16T13:35:52Z</time>
      </trkpt>
      <trkpt lat="44.4455296" lon="5.8593343">
        <ele>1266.6743164</ele>
        <time>2010-05-16T13:36:04Z</time>
      </trkpt>
      <trkpt lat="44.4455738" lon="5.8593221">
        <ele>1265.7131348</ele>
        <time>2010-05-16T13:36:08Z</time>
      </trkpt>
      <trkpt lat="44.4455954" lon="5.8593162">
        <ele>1265.2324219</ele>
        <time>2010-05-16T13:36:10Z</time>
      </trkpt>
      <trkpt lat="44.4456400" lon="5.8592777">
        <ele>1263.7902832</ele>
        <time>2010-05-16T13:36:14Z</time>
      </trkpt>
      <trkpt lat="44.4456826" lon="5.8592572">
        <ele>1263.3098145</ele>
        <time>2010-05-16T13:36:18Z</time>
      </trkpt>
      <trkpt lat="44.4457940" lon="5.8592363">
        <ele>1261.8679199</ele>
        <time>2010-05-16T13:36:26Z</time>
      </trkpt>
      <trkpt lat="44.4458384" lon="5.8592144">
        <ele>1261.3872070</ele>
        <time>2010-05-16T13:36:30Z</time>
      </trkpt>
      <trkpt lat="44.4459548" lon="5.8592314">
        <ele>1258.0224609</ele>
        <time>2010-05-16T13:36:40Z</time>
      </trkpt>
      <trkpt lat="44.4460001" lon="5.8592336">
        <ele>1257.0610352</ele>
        <time>2010-05-16T13:36:44Z</time>
      </trkpt>
      <trkpt lat="44.4460915" lon="5.8591586">
        <ele>1256.5803223</ele>
        <time>2010-05-16T13:36:54Z</time>
      </trkpt>
      <trkpt lat="44.4461485" lon="5.8590765">
        <ele>1254.6577148</ele>
        <time>2010-05-16T13:37:03Z</time>
      </trkpt>
      <trkpt lat="44.4461683" lon="5.8590368">
        <ele>1254.1772461</ele>
        <time>2010-05-16T13:37:06Z</time>
      </trkpt>
      <trkpt lat="44.4462682" lon="5.8589274">
        <ele>1251.2932129</ele>
        <time>2010-05-16T13:37:19Z</time>
      </trkpt>
      <trkpt lat="44.4462874" lon="5.8589016">
        <ele>1250.8125000</ele>
        <time>2010-05-16T13:37:22Z</time>
      </trkpt>
      <trkpt lat="44.4463848" lon="5.8588384">
        <ele>1249.3706055</ele>
        <time>2010-05-16T13:37:31Z</time>
      </trkpt>
      <trkpt lat="44.4464481" lon="5.8587961">
        <ele>1247.4479980</ele>
        <time>2010-05-16T13:37:37Z</time>
      </trkpt>
      <trkpt lat="44.4464651" lon="5.8587693">
        <ele>1247.4479980</ele>
        <time>2010-05-16T13:37:39Z</time>
      </trkpt>
      <trkpt lat="44.4465287" lon="5.8586954">
        <ele>1246.4868164</ele>
        <time>2010-05-16T13:37:45Z</time>
      </trkpt>
      <trkpt lat="44.4466575" lon="5.8585931">
        <ele>1245.5253906</ele>
        <time>2010-05-16T13:37:59Z</time>
      </trkpt>
      <trkpt lat="44.4467187" lon="5.8585327">
        <ele>1245.0446777</ele>
        <time>2010-05-16T13:38:06Z</time>
      </trkpt>
      <trkpt lat="44.4467981" lon="5.8585074">
        <ele>1244.5639648</ele>
        <time>2010-05-16T13:38:13Z</time>
      </trkpt>
      <trkpt lat="44.4468637" lon="5.8584658">
        <ele>1242.6413574</ele>
        <time>2010-05-16T13:38:19Z</time>
      </trkpt>
      <trkpt lat="44.4469744" lon="5.8583791">
        <ele>1240.7185059</ele>
        <time>2010-05-16T13:38:29Z</time>
      </trkpt>
      <trkpt lat="44.4470118" lon="5.8583272">
        <ele>1239.7573242</ele>
        <time>2010-05-16T13:38:33Z</time>
      </trkpt>
      <trkpt lat="44.4470517" lon="5.8582593">
        <ele>1240.2380371</ele>
        <time>2010-05-16T13:38:38Z</time>
      </trkpt>
      <trkpt lat="44.4471002" lon="5.8582098">
        <ele>1241.6799316</ele>
        <time>2010-05-16T13:38:43Z</time>
      </trkpt>
      <trkpt lat="44.4471423" lon="5.8581478">
        <ele>1239.7573242</ele>
        <time>2010-05-16T13:38:49Z</time>
      </trkpt>
      <trkpt lat="44.4471707" lon="5.8581127">
        <ele>1239.2766113</ele>
        <time>2010-05-16T13:38:53Z</time>
      </trkpt>
      <trkpt lat="44.4472997" lon="5.8579828">
        <ele>1237.8347168</ele>
        <time>2010-05-16T13:39:05Z</time>
      </trkpt>
      <trkpt lat="44.4473822" lon="5.8579198">
        <ele>1237.3540039</ele>
        <time>2010-05-16T13:39:13Z</time>
      </trkpt>
      <trkpt lat="44.4474773" lon="5.8578967">
        <ele>1235.4313965</ele>
        <time>2010-05-16T13:39:21Z</time>
      </trkpt>
      <trkpt lat="44.4476904" lon="5.8579487">
        <ele>1232.0668945</ele>
        <time>2010-05-16T13:39:38Z</time>
      </trkpt>
      <trkpt lat="44.4478236" lon="5.8579870">
        <ele>1231.1057129</ele>
        <time>2010-05-16T13:39:47Z</time>
      </trkpt>
      <trkpt lat="44.4479499" lon="5.8580289">
        <ele>1230.6250000</ele>
        <time>2010-05-16T13:39:57Z</time>
      </trkpt>
      <trkpt lat="44.4481551" lon="5.8580640">
        <ele>1230.1442871</ele>
        <time>2010-05-16T13:40:13Z</time>
      </trkpt>
      <trkpt lat="44.4483013" lon="5.8582337">
        <ele>1229.6635742</ele>
        <time>2010-05-16T13:40:28Z</time>
      </trkpt>
      <trkpt lat="44.4483486" lon="5.8583383">
        <ele>1228.7023926</ele>
        <time>2010-05-16T13:40:35Z</time>
      </trkpt>
      <trkpt lat="44.4483726" lon="5.8585542">
        <ele>1227.2602539</ele>
        <time>2010-05-16T13:40:50Z</time>
      </trkpt>
      <trkpt lat="44.4483815" lon="5.8585882">
        <ele>1227.2602539</ele>
        <time>2010-05-16T13:40:53Z</time>
      </trkpt>
      <trkpt lat="44.4484459" lon="5.8587398">
        <ele>1225.8181152</ele>
        <time>2010-05-16T13:41:04Z</time>
      </trkpt>
      <trkpt lat="44.4484579" lon="5.8587922">
        <ele>1225.8181152</ele>
        <time>2010-05-16T13:41:07Z</time>
      </trkpt>
      <trkpt lat="44.4484489" lon="5.8588689">
        <ele>1225.8181152</ele>
        <time>2010-05-16T13:41:11Z</time>
      </trkpt>
      <trkpt lat="44.4484398" lon="5.8589079">
        <ele>1224.8569336</ele>
        <time>2010-05-16T13:41:13Z</time>
      </trkpt>
      <trkpt lat="44.4484274" lon="5.8590091">
        <ele>1224.3762207</ele>
        <time>2010-05-16T13:41:19Z</time>
      </trkpt>
      <trkpt lat="44.4484137" lon="5.8590547">
        <ele>1224.3762207</ele>
        <time>2010-05-16T13:41:22Z</time>
      </trkpt>
      <trkpt lat="44.4483764" lon="5.8592085">
        <ele>1223.4150391</ele>
        <time>2010-05-16T13:41:31Z</time>
      </trkpt>
      <trkpt lat="44.4483556" lon="5.8593617">
        <ele>1222.9343262</ele>
        <time>2010-05-16T13:41:39Z</time>
      </trkpt>
      <trkpt lat="44.4483571" lon="5.8593983">
        <ele>1222.9343262</ele>
        <time>2010-05-16T13:41:41Z</time>
      </trkpt>
      <trkpt lat="44.4483537" lon="5.8594784">
        <ele>1222.4536133</ele>
        <time>2010-05-16T13:41:45Z</time>
      </trkpt>
      <trkpt lat="44.4483177" lon="5.8596334">
        <ele>1221.0117188</ele>
        <time>2010-05-16T13:41:54Z</time>
      </trkpt>
      <trkpt lat="44.4482771" lon="5.8597489">
        <ele>1220.5310059</ele>
        <time>2010-05-16T13:42:01Z</time>
      </trkpt>
      <trkpt lat="44.4482391" lon="5.8599166">
        <ele>1219.0891113</ele>
        <time>2010-05-16T13:42:11Z</time>
      </trkpt>
      <trkpt lat="44.4482386" lon="5.8600690">
        <ele>1218.1276855</ele>
        <time>2010-05-16T13:42:21Z</time>
      </trkpt>
      <trkpt lat="44.4482548" lon="5.8600871">
        <ele>1217.1665039</ele>
        <time>2010-05-16T13:42:27Z</time>
      </trkpt>
      <trkpt lat="44.4483193" lon="5.8601027">
        <ele>1217.6469727</ele>
        <time>2010-05-16T13:42:31Z</time>
      </trkpt>
      <trkpt lat="44.4484055" lon="5.8600369">
        <ele>1217.1665039</ele>
        <time>2010-05-16T13:42:37Z</time>
      </trkpt>
      <trkpt lat="44.4484751" lon="5.8599043">
        <ele>1216.6857910</ele>
        <time>2010-05-16T13:42:45Z</time>
      </trkpt>
      <trkpt lat="44.4485714" lon="5.8597484">
        <ele>1216.6857910</ele>
        <time>2010-05-16T13:42:55Z</time>
      </trkpt>
      <trkpt lat="44.4486681" lon="5.8595049">
        <ele>1214.7631836</ele>
        <time>2010-05-16T13:43:11Z</time>
      </trkpt>
      <trkpt lat="44.4486761" lon="5.8594733">
        <ele>1214.7631836</ele>
        <time>2010-05-16T13:43:13Z</time>
      </trkpt>
      <trkpt lat="44.4487614" lon="5.8592231">
        <ele>1212.8405762</ele>
        <time>2010-05-16T13:43:29Z</time>
      </trkpt>
      <trkpt lat="44.4488069" lon="5.8590737">
        <ele>1211.3984375</ele>
        <time>2010-05-16T13:43:40Z</time>
      </trkpt>
      <trkpt lat="44.4488140" lon="5.8590392">
        <ele>1210.9177246</ele>
        <time>2010-05-16T13:43:42Z</time>
      </trkpt>
      <trkpt lat="44.4488083" lon="5.8589961">
        <ele>1210.9177246</ele>
        <time>2010-05-16T13:43:45Z</time>
      </trkpt>
      <trkpt lat="44.4487459" lon="5.8588525">
        <ele>1210.4370117</ele>
        <time>2010-05-16T13:43:54Z</time>
      </trkpt>
      <trkpt lat="44.4487702" lon="5.8586964">
        <ele>1208.9951172</ele>
        <time>2010-05-16T13:44:01Z</time>
      </trkpt>
      <trkpt lat="44.4487857" lon="5.8586401">
        <ele>1207.5532227</ele>
        <time>2010-05-16T13:44:04Z</time>
      </trkpt>
      <trkpt lat="44.4488817" lon="5.8583950">
        <ele>1204.1887207</ele>
        <time>2010-05-16T13:44:18Z</time>
      </trkpt>
      <trkpt lat="44.4489674" lon="5.8581770">
        <ele>1202.2658691</ele>
        <time>2010-05-16T13:44:32Z</time>
      </trkpt>
      <trkpt lat="44.4489757" lon="5.8581642">
        <ele>1202.2658691</ele>
        <time>2010-05-16T13:44:33Z</time>
      </trkpt>
      <trkpt lat="44.4489896" lon="5.8579924">
        <ele>1202.7465820</ele>
        <time>2010-05-16T13:44:44Z</time>
      </trkpt>
      <trkpt lat="44.4489894" lon="5.8579778">
        <ele>1202.2658691</ele>
        <time>2010-05-16T13:44:45Z</time>
      </trkpt>
      <trkpt lat="44.4489838" lon="5.8578825">
        <ele>1202.2658691</ele>
        <time>2010-05-16T13:44:50Z</time>
      </trkpt>
      <trkpt lat="44.4490235" lon="5.8576536">
        <ele>1200.3435059</ele>
        <time>2010-05-16T13:45:03Z</time>
      </trkpt>
      <trkpt lat="44.4490868" lon="5.8575050">
        <ele>1201.3046875</ele>
        <time>2010-05-16T13:45:14Z</time>
      </trkpt>
      <trkpt lat="44.4491158" lon="5.8574574">
        <ele>1199.8627930</ele>
        <time>2010-05-16T13:45:18Z</time>
      </trkpt>
      <trkpt lat="44.4492109" lon="5.8573025">
        <ele>1198.9013672</ele>
        <time>2010-05-16T13:45:30Z</time>
      </trkpt>
      <trkpt lat="44.4492899" lon="5.8571767">
        <ele>1198.9013672</ele>
        <time>2010-05-16T13:45:40Z</time>
      </trkpt>
      <trkpt lat="44.4493702" lon="5.8570226">
        <ele>1197.4594727</ele>
        <time>2010-05-16T13:45:52Z</time>
      </trkpt>
      <trkpt lat="44.4493768" lon="5.8570091">
        <ele>1196.9787598</ele>
        <time>2010-05-16T13:45:53Z</time>
      </trkpt>
      <trkpt lat="44.4494054" lon="5.8569652">
        <ele>1196.4982910</ele>
        <time>2010-05-16T13:45:57Z</time>
      </trkpt>
      <trkpt lat="44.4495349" lon="5.8568305">
        <ele>1194.5751953</ele>
        <time>2010-05-16T13:46:12Z</time>
      </trkpt>
      <trkpt lat="44.4496737" lon="5.8566937">
        <ele>1192.6528320</ele>
        <time>2010-05-16T13:46:27Z</time>
      </trkpt>
      <trkpt lat="44.4496823" lon="5.8566844">
        <ele>1192.6528320</ele>
        <time>2010-05-16T13:46:28Z</time>
      </trkpt>
      <trkpt lat="44.4497259" lon="5.8566496">
        <ele>1192.1721191</ele>
        <time>2010-05-16T13:46:33Z</time>
      </trkpt>
      <trkpt lat="44.4497675" lon="5.8565979">
        <ele>1190.7299805</ele>
        <time>2010-05-16T13:46:38Z</time>
      </trkpt>
      <trkpt lat="44.4497958" lon="5.8565083">
        <ele>1190.7299805</ele>
        <time>2010-05-16T13:46:44Z</time>
      </trkpt>
      <trkpt lat="44.4497924" lon="5.8563352">
        <ele>1191.2106934</ele>
        <time>2010-05-16T13:46:54Z</time>
      </trkpt>
      <trkpt lat="44.4499147" lon="5.8562405">
        <ele>1191.2106934</ele>
        <time>2010-05-16T13:47:06Z</time>
      </trkpt>
      <trkpt lat="44.4500097" lon="5.8562132">
        <ele>1190.7299805</ele>
        <time>2010-05-16T13:47:14Z</time>
      </trkpt>
      <trkpt lat="44.4500445" lon="5.8561946">
        <ele>1190.7299805</ele>
        <time>2010-05-16T13:47:17Z</time>
      </trkpt>
      <trkpt lat="44.4501694" lon="5.8560146">
        <ele>1189.7687988</ele>
        <time>2010-05-16T13:47:30Z</time>
      </trkpt>
      <trkpt lat="44.4503027" lon="5.8558197">
        <ele>1189.7687988</ele>
        <time>2010-05-16T13:47:43Z</time>
      </trkpt>
      <trkpt lat="44.4503233" lon="5.8557701">
        <ele>1189.2880859</ele>
        <time>2010-05-16T13:47:46Z</time>
      </trkpt>
      <trkpt lat="44.4504334" lon="5.8555841">
        <ele>1187.8461914</ele>
        <time>2010-05-16T13:47:58Z</time>
      </trkpt>
      <trkpt lat="44.4504442" lon="5.8555708">
        <ele>1187.3654785</ele>
        <time>2010-05-16T13:47:59Z</time>
      </trkpt>
      <trkpt lat="44.4504856" lon="5.8553543">
        <ele>1184.9624023</ele>
        <time>2010-05-16T13:48:12Z</time>
      </trkpt>
      <trkpt lat="44.4504794" lon="5.8553161">
        <ele>1184.4816895</ele>
        <time>2010-05-16T13:48:14Z</time>
      </trkpt>
      <trkpt lat="44.4504562" lon="5.8552486">
        <ele>1184.9624023</ele>
        <time>2010-05-16T13:48:17Z</time>
      </trkpt>
      <trkpt lat="44.4504763" lon="5.8550417">
        <ele>1183.0395508</ele>
        <time>2010-05-16T13:48:28Z</time>
      </trkpt>
      <trkpt lat="44.4504971" lon="5.8549708">
        <ele>1183.5202637</ele>
        <time>2010-05-16T13:48:32Z</time>
      </trkpt>
      <trkpt lat="44.4506621" lon="5.8547955">
        <ele>1182.0783691</ele>
        <time>2010-05-16T13:48:46Z</time>
      </trkpt>
      <trkpt lat="44.4507295" lon="5.8546895">
        <ele>1180.6364746</ele>
        <time>2010-05-16T13:48:54Z</time>
      </trkpt>
      <trkpt lat="44.4507707" lon="5.8545960">
        <ele>1180.1557617</ele>
        <time>2010-05-16T13:49:01Z</time>
      </trkpt>
      <trkpt lat="44.4507885" lon="5.8545636">
        <ele>1179.1940918</ele>
        <time>2010-05-16T13:49:03Z</time>
      </trkpt>
      <trkpt lat="44.4508100" lon="5.8544788">
        <ele>1178.7136230</ele>
        <time>2010-05-16T13:49:08Z</time>
      </trkpt>
      <trkpt lat="44.4508668" lon="5.8543022">
        <ele>1176.3103027</ele>
        <time>2010-05-16T13:49:19Z</time>
      </trkpt>
      <trkpt lat="44.4508840" lon="5.8542689">
        <ele>1175.8295898</ele>
        <time>2010-05-16T13:49:21Z</time>
      </trkpt>
      <trkpt lat="44.4509212" lon="5.8542129">
        <ele>1175.8295898</ele>
        <time>2010-05-16T13:49:25Z</time>
      </trkpt>
      <trkpt lat="44.4509693" lon="5.8540588">
        <ele>1173.4265137</ele>
        <time>2010-05-16T13:49:35Z</time>
      </trkpt>
      <trkpt lat="44.4509688" lon="5.8540234">
        <ele>1173.4265137</ele>
        <time>2010-05-16T13:49:37Z</time>
      </trkpt>
      <trkpt lat="44.4509373" lon="5.8538354">
        <ele>1172.4650879</ele>
        <time>2010-05-16T13:49:48Z</time>
      </trkpt>
      <trkpt lat="44.4509104" lon="5.8537836">
        <ele>1171.9843750</ele>
        <time>2010-05-16T13:49:51Z</time>
      </trkpt>
      <trkpt lat="44.4508829" lon="5.8537342">
        <ele>1171.9843750</ele>
        <time>2010-05-16T13:49:54Z</time>
      </trkpt>
      <trkpt lat="44.4508548" lon="5.8536257">
        <ele>1171.9843750</ele>
        <time>2010-05-16T13:50:01Z</time>
      </trkpt>
      <trkpt lat="44.4508530" lon="5.8534010">
        <ele>1170.5424805</ele>
        <time>2010-05-16T13:50:14Z</time>
      </trkpt>
      <trkpt lat="44.4508449" lon="5.8532609">
        <ele>1170.0617676</ele>
        <time>2010-05-16T13:50:22Z</time>
      </trkpt>
      <trkpt lat="44.4508396" lon="5.8532044">
        <ele>1168.6198730</ele>
        <time>2010-05-16T13:50:25Z</time>
      </trkpt>
      <trkpt lat="44.4508161" lon="5.8530859">
        <ele>1167.6584473</ele>
        <time>2010-05-16T13:50:31Z</time>
      </trkpt>
      <trkpt lat="44.4508050" lon="5.8530547">
        <ele>1167.6584473</ele>
        <time>2010-05-16T13:50:33Z</time>
      </trkpt>
      <trkpt lat="44.4507495" lon="5.8528688">
        <ele>1164.7746582</ele>
        <time>2010-05-16T13:50:44Z</time>
      </trkpt>
      <trkpt lat="44.4506812" lon="5.8526803">
        <ele>1162.3710938</ele>
        <time>2010-05-16T13:50:56Z</time>
      </trkpt>
      <trkpt lat="44.4506753" lon="5.8525412">
        <ele>1160.9291992</ele>
        <time>2010-05-16T13:51:09Z</time>
      </trkpt>
      <trkpt lat="44.4506753" lon="5.8525412">
        <ele>1161.4099121</ele>
        <time>2010-05-16T13:51:11Z</time>
      </trkpt>
      <trkpt lat="44.4506559" lon="5.8525035">
        <ele>1161.4099121</ele>
        <time>2010-05-16T13:51:14Z</time>
      </trkpt>
      <trkpt lat="44.4506697" lon="5.8523617">
        <ele>1160.4484863</ele>
        <time>2010-05-16T13:51:21Z</time>
      </trkpt>
      <trkpt lat="44.4507113" lon="5.8522557">
        <ele>1160.4484863</ele>
        <time>2010-05-16T13:51:27Z</time>
      </trkpt>
      <trkpt lat="44.4507300" lon="5.8522187">
        <ele>1160.4484863</ele>
        <time>2010-05-16T13:51:29Z</time>
      </trkpt>
      <trkpt lat="44.4507904" lon="5.8520059">
        <ele>1159.0065918</ele>
        <time>2010-05-16T13:51:40Z</time>
      </trkpt>
      <trkpt lat="44.4507982" lon="5.8519701">
        <ele>1159.0065918</ele>
        <time>2010-05-16T13:51:42Z</time>
      </trkpt>
      <trkpt lat="44.4508503" lon="5.8517861">
        <ele>1158.0454102</ele>
        <time>2010-05-16T13:51:51Z</time>
      </trkpt>
      <trkpt lat="44.4508409" lon="5.8515723">
        <ele>1156.1225586</ele>
        <time>2010-05-16T13:52:02Z</time>
      </trkpt>
      <trkpt lat="44.4508747" lon="5.8514648">
        <ele>1155.1613770</ele>
        <time>2010-05-16T13:52:13Z</time>
      </trkpt>
      <trkpt lat="44.4508988" lon="5.8513252">
        <ele>1154.2001953</ele>
        <time>2010-05-16T13:52:25Z</time>
      </trkpt>
      <trkpt lat="44.4509263" lon="5.8512617">
        <ele>1153.7194824</ele>
        <time>2010-05-16T13:52:29Z</time>
      </trkpt>
      <trkpt lat="44.4509341" lon="5.8510985">
        <ele>1151.3161621</ele>
        <time>2010-05-16T13:52:38Z</time>
      </trkpt>
      <trkpt lat="44.4509296" lon="5.8510788">
        <ele>1151.3161621</ele>
        <time>2010-05-16T13:52:39Z</time>
      </trkpt>
      <trkpt lat="44.4509403" lon="5.8510433">
        <ele>1152.2773438</ele>
        <time>2010-05-16T13:52:41Z</time>
      </trkpt>
      <trkpt lat="44.4509772" lon="5.8509286">
        <ele>1149.8742676</ele>
        <time>2010-05-16T13:52:48Z</time>
      </trkpt>
      <trkpt lat="44.4510340" lon="5.8508000">
        <ele>1147.9514160</ele>
        <time>2010-05-16T13:52:56Z</time>
      </trkpt>
      <trkpt lat="44.4510813" lon="5.8507330">
        <ele>1146.9899902</ele>
        <time>2010-05-16T13:53:01Z</time>
      </trkpt>
      <trkpt lat="44.4511262" lon="5.8506933">
        <ele>1147.4707031</ele>
        <time>2010-05-16T13:53:05Z</time>
      </trkpt>
      <trkpt lat="44.4511788" lon="5.8506377">
        <ele>1147.4707031</ele>
        <time>2010-05-16T13:53:10Z</time>
      </trkpt>
      <trkpt lat="44.4512130" lon="5.8505957">
        <ele>1146.9899902</ele>
        <time>2010-05-16T13:53:13Z</time>
      </trkpt>
      <trkpt lat="44.4513310" lon="5.8504328">
        <ele>1144.5866699</ele>
        <time>2010-05-16T13:53:25Z</time>
      </trkpt>
      <trkpt lat="44.4513781" lon="5.8503476">
        <ele>1143.6254883</ele>
        <time>2010-05-16T13:53:31Z</time>
      </trkpt>
      <trkpt lat="44.4513992" lon="5.8502450">
        <ele>1142.6643066</ele>
        <time>2010-05-16T13:53:37Z</time>
      </trkpt>
      <trkpt lat="44.4514591" lon="5.8500435">
        <ele>1142.6643066</ele>
        <time>2010-05-16T13:53:50Z</time>
      </trkpt>
      <trkpt lat="44.4514961" lon="5.8499369">
        <ele>1142.6643066</ele>
        <time>2010-05-16T13:53:57Z</time>
      </trkpt>
      <trkpt lat="44.4515942" lon="5.8497603">
        <ele>1142.1835938</ele>
        <time>2010-05-16T13:54:11Z</time>
      </trkpt>
      <trkpt lat="44.4516446" lon="5.8496798">
        <ele>1141.7028809</ele>
        <time>2010-05-16T13:54:26Z</time>
      </trkpt>
      <trkpt lat="44.4516376" lon="5.8496774">
        <ele>1142.1835938</ele>
        <time>2010-05-16T13:55:02Z</time>
      </trkpt>
      <trkpt lat="44.4516376" lon="5.8496774">
        <ele>1143.1447754</ele>
        <time>2010-05-16T13:55:35Z</time>
      </trkpt>
      <trkpt lat="44.4516340" lon="5.8496739">
        <ele>1142.6643066</ele>
        <time>2010-05-16T13:56:23Z</time>
      </trkpt>
      <trkpt lat="44.4516340" lon="5.8496739">
        <ele>1142.6643066</ele>
        <time>2010-05-16T13:56:47Z</time>
      </trkpt>
      <trkpt lat="44.4516297" lon="5.8496741">
        <ele>1141.2221680</ele>
        <time>2010-05-16T13:57:36Z</time>
      </trkpt>
      <trkpt lat="44.4516287" lon="5.8496697">
        <ele>1142.1835938</ele>
        <time>2010-05-16T13:58:01Z</time>
      </trkpt>
      <trkpt lat="44.4516264" lon="5.8496669">
        <ele>1142.6643066</ele>
        <time>2010-05-16T13:58:48Z</time>
      </trkpt>
      <trkpt lat="44.4516249" lon="5.8496622">
        <ele>1142.6643066</ele>
        <time>2010-05-16T13:59:33Z</time>
      </trkpt>
      <trkpt lat="44.4516662" lon="5.8496241">
        <ele>1142.6643066</ele>
        <time>2010-05-16T13:59:50Z</time>
      </trkpt>
      <trkpt lat="44.4516936" lon="5.8495785">
        <ele>1142.6643066</ele>
        <time>2010-05-16T13:59:54Z</time>
      </trkpt>
      <trkpt lat="44.4517593" lon="5.8493255">
        <ele>1142.1835938</ele>
        <time>2010-05-16T14:00:10Z</time>
      </trkpt>
      <trkpt lat="44.4517178" lon="5.8489785">
        <ele>1140.7414551</ele>
        <time>2010-05-16T14:00:30Z</time>
      </trkpt>
      <trkpt lat="44.4516768" lon="5.8487773">
        <ele>1139.7802734</ele>
        <time>2010-05-16T14:00:47Z</time>
      </trkpt>
      <trkpt lat="44.4516621" lon="5.8487494">
        <ele>1139.2995605</ele>
        <time>2010-05-16T14:00:52Z</time>
      </trkpt>
      <trkpt lat="44.4516084" lon="5.8486095">
        <ele>1139.2995605</ele>
        <time>2010-05-16T14:01:03Z</time>
      </trkpt>
      <trkpt lat="44.4515642" lon="5.8484873">
        <ele>1139.2995605</ele>
        <time>2010-05-16T14:01:12Z</time>
      </trkpt>
      <trkpt lat="44.4514506" lon="5.8482657">
        <ele>1137.8576660</ele>
        <time>2010-05-16T14:01:28Z</time>
      </trkpt>
      <trkpt lat="44.4514378" lon="5.8482424">
        <ele>1137.3769531</ele>
        <time>2010-05-16T14:01:30Z</time>
      </trkpt>
      <trkpt lat="44.4513163" lon="5.8480309">
        <ele>1137.8576660</ele>
        <time>2010-05-16T14:01:45Z</time>
      </trkpt>
      <trkpt lat="44.4512479" lon="5.8477694">
        <ele>1136.8962402</ele>
        <time>2010-05-16T14:01:59Z</time>
      </trkpt>
      <trkpt lat="44.4512428" lon="5.8476911">
        <ele>1136.4157715</ele>
        <time>2010-05-16T14:02:03Z</time>
      </trkpt>
      <trkpt lat="44.4512426" lon="5.8476152">
        <ele>1135.9350586</ele>
        <time>2010-05-16T14:02:07Z</time>
      </trkpt>
      <trkpt lat="44.4513068" lon="5.8473777">
        <ele>1135.9350586</ele>
        <time>2010-05-16T14:02:21Z</time>
      </trkpt>
      <trkpt lat="44.4513720" lon="5.8472911">
        <ele>1136.8962402</ele>
        <time>2010-05-16T14:02:28Z</time>
      </trkpt>
      <trkpt lat="44.4515579" lon="5.8471727">
        <ele>1135.4543457</ele>
        <time>2010-05-16T14:02:46Z</time>
      </trkpt>
      <trkpt lat="44.4516499" lon="5.8470499">
        <ele>1134.4931641</ele>
        <time>2010-05-16T14:02:57Z</time>
      </trkpt>
      <trkpt lat="44.4515707" lon="5.8468133">
        <ele>1134.9738770</ele>
        <time>2010-05-16T14:03:12Z</time>
      </trkpt>
      <trkpt lat="44.4515485" lon="5.8467526">
        <ele>1134.4931641</ele>
        <time>2010-05-16T14:03:16Z</time>
      </trkpt>
      <trkpt lat="44.4513707" lon="5.8465116">
        <ele>1134.9738770</ele>
        <time>2010-05-16T14:03:37Z</time>
      </trkpt>
      <trkpt lat="44.4513400" lon="5.8464877">
        <ele>1133.0510254</ele>
        <time>2010-05-16T14:03:40Z</time>
      </trkpt>
      <trkpt lat="44.4511966" lon="5.8463988">
        <ele>1131.1284180</ele>
        <time>2010-05-16T14:03:52Z</time>
      </trkpt>
      <trkpt lat="44.4510630" lon="5.8462983">
        <ele>1127.7636719</ele>
        <time>2010-05-16T14:04:04Z</time>
      </trkpt>
      <trkpt lat="44.4509398" lon="5.8461674">
        <ele>1126.3217773</ele>
        <time>2010-05-16T14:04:18Z</time>
      </trkpt>
      <trkpt lat="44.4509398" lon="5.8461674">
        <ele>1125.8410645</ele>
        <time>2010-05-16T14:04:35Z</time>
      </trkpt>
      <trkpt lat="44.4508516" lon="5.8460075">
        <ele>1126.8024902</ele>
        <time>2010-05-16T14:04:50Z</time>
      </trkpt>
      <trkpt lat="44.4508003" lon="5.8459041">
        <ele>1127.2832031</ele>
        <time>2010-05-16T14:04:58Z</time>
      </trkpt>
      <trkpt lat="44.4507871" lon="5.8458597">
        <ele>1127.7636719</ele>
        <time>2010-05-16T14:05:01Z</time>
      </trkpt>
      <trkpt lat="44.4507805" lon="5.8457935">
        <ele>1127.2832031</ele>
        <time>2010-05-16T14:05:05Z</time>
      </trkpt>
      <trkpt lat="44.4507593" lon="5.8456582">
        <ele>1127.2832031</ele>
        <time>2010-05-16T14:05:13Z</time>
      </trkpt>
      <trkpt lat="44.4507227" lon="5.8454619">
        <ele>1126.3217773</ele>
        <time>2010-05-16T14:05:25Z</time>
      </trkpt>
      <trkpt lat="44.4507171" lon="5.8453209">
        <ele>1125.8410645</ele>
        <time>2010-05-16T14:05:33Z</time>
      </trkpt>
      <trkpt lat="44.4507168" lon="5.8452142">
        <ele>1126.3217773</ele>
        <time>2010-05-16T14:05:39Z</time>
      </trkpt>
      <trkpt lat="44.4507117" lon="5.8451786">
        <ele>1127.2832031</ele>
        <time>2010-05-16T14:05:41Z</time>
      </trkpt>
      <trkpt lat="44.4507569" lon="5.8449706">
        <ele>1126.8024902</ele>
        <time>2010-05-16T14:05:53Z</time>
      </trkpt>
      <trkpt lat="44.4507865" lon="5.8448592">
        <ele>1127.2832031</ele>
        <time>2010-05-16T14:05:59Z</time>
      </trkpt>
      <trkpt lat="44.4508139" lon="5.8448086">
        <ele>1127.2832031</ele>
        <time>2010-05-16T14:06:02Z</time>
      </trkpt>
      <trkpt lat="44.4510065" lon="5.8445921">
        <ele>1128.2443848</ele>
        <time>2010-05-16T14:06:18Z</time>
      </trkpt>
      <trkpt lat="44.4511528" lon="5.8444578">
        <ele>1126.3217773</ele>
        <time>2010-05-16T14:06:32Z</time>
      </trkpt>
      <trkpt lat="44.4512524" lon="5.8442583">
        <ele>1124.8798828</ele>
        <time>2010-05-16T14:06:48Z</time>
      </trkpt>
      <trkpt lat="44.4513448" lon="5.8440894">
        <ele>1124.8798828</ele>
        <time>2010-05-16T14:07:00Z</time>
      </trkpt>
      <trkpt lat="44.4513501" lon="5.8440612">
        <ele>1124.8798828</ele>
        <time>2010-05-16T14:07:02Z</time>
      </trkpt>
      <trkpt lat="44.4513515" lon="5.8439590">
        <ele>1124.8798828</ele>
        <time>2010-05-16T14:07:08Z</time>
      </trkpt>
      <trkpt lat="44.4513369" lon="5.8436490">
        <ele>1123.9184570</ele>
        <time>2010-05-16T14:07:26Z</time>
      </trkpt>
      <trkpt lat="44.4513342" lon="5.8436093">
        <ele>1122.9572754</ele>
        <time>2010-05-16T14:07:41Z</time>
      </trkpt>
      <trkpt lat="44.4513275" lon="5.8436076">
        <ele>1123.9184570</ele>
        <time>2010-05-16T14:08:37Z</time>
      </trkpt>
      <trkpt lat="44.4513245" lon="5.8435967">
        <ele>1124.3991699</ele>
        <time>2010-05-16T14:10:41Z</time>
      </trkpt>
      <trkpt lat="44.4513361" lon="5.8435555">
        <ele>1124.8798828</ele>
        <time>2010-05-16T14:10:44Z</time>
      </trkpt>
      <trkpt lat="44.4513158" lon="5.8434468">
        <ele>1124.3991699</ele>
        <time>2010-05-16T14:10:51Z</time>
      </trkpt>
      <trkpt lat="44.4512850" lon="5.8432334">
        <ele>1124.8798828</ele>
        <time>2010-05-16T14:11:03Z</time>
      </trkpt>
      <trkpt lat="44.4512638" lon="5.8431801">
        <ele>1125.3603516</ele>
        <time>2010-05-16T14:11:06Z</time>
      </trkpt>
      <trkpt lat="44.4512541" lon="5.8431294">
        <ele>1125.3603516</ele>
        <time>2010-05-16T14:11:09Z</time>
      </trkpt>
      <trkpt lat="44.4512205" lon="5.8430550">
        <ele>1125.8410645</ele>
        <time>2010-05-16T14:11:16Z</time>
      </trkpt>
      <trkpt lat="44.4511918" lon="5.8429944">
        <ele>1125.8410645</ele>
        <time>2010-05-16T14:11:21Z</time>
      </trkpt>
      <trkpt lat="44.4511795" lon="5.8428712">
        <ele>1128.2443848</ele>
        <time>2010-05-16T14:11:32Z</time>
      </trkpt>
      <trkpt lat="44.4511780" lon="5.8428649">
        <ele>1128.2443848</ele>
        <time>2010-05-16T14:11:33Z</time>
      </trkpt>
      <trkpt lat="44.4511681" lon="5.8428444">
        <ele>1128.2443848</ele>
        <time>2010-05-16T14:11:35Z</time>
      </trkpt>
      <trkpt lat="44.4511534" lon="5.8427096">
        <ele>1129.2055664</ele>
        <time>2010-05-16T14:11:45Z</time>
      </trkpt>
      <trkpt lat="44.4510948" lon="5.8425664">
        <ele>1129.2055664</ele>
        <time>2010-05-16T14:11:54Z</time>
      </trkpt>
      <trkpt lat="44.4511526" lon="5.8424881">
        <ele>1129.6862793</ele>
        <time>2010-05-16T14:12:10Z</time>
      </trkpt>
      <trkpt lat="44.4511834" lon="5.8424876">
        <ele>1130.6477051</ele>
        <time>2010-05-16T14:12:13Z</time>
      </trkpt>
      <trkpt lat="44.4513311" lon="5.8423996">
        <ele>1132.5705566</ele>
        <time>2010-05-16T14:12:27Z</time>
      </trkpt>
      <trkpt lat="44.4513400" lon="5.8423858">
        <ele>1132.5705566</ele>
        <time>2010-05-16T14:12:28Z</time>
      </trkpt>
      <trkpt lat="44.4514892" lon="5.8422411">
        <ele>1134.4931641</ele>
        <time>2010-05-16T14:12:44Z</time>
      </trkpt>
      <trkpt lat="44.4516409" lon="5.8421894">
        <ele>1136.4157715</ele>
        <time>2010-05-16T14:12:57Z</time>
      </trkpt>
      <trkpt lat="44.4517920" lon="5.8421353">
        <ele>1138.3383789</ele>
        <time>2010-05-16T14:13:11Z</time>
      </trkpt>
      <trkpt lat="44.4518679" lon="5.8420501">
        <ele>1139.2995605</ele>
        <time>2010-05-16T14:13:24Z</time>
      </trkpt>
      <trkpt lat="44.4518773" lon="5.8420204">
        <ele>1138.8190918</ele>
        <time>2010-05-16T14:13:39Z</time>
      </trkpt>
      <trkpt lat="44.4518804" lon="5.8420252">
        <ele>1138.3383789</ele>
        <time>2010-05-16T14:13:51Z</time>
      </trkpt>
      <trkpt lat="44.4518958" lon="5.8420238">
        <ele>1138.3383789</ele>
        <time>2010-05-16T14:13:53Z</time>
      </trkpt>
      <trkpt lat="44.4519779" lon="5.8420160">
        <ele>1138.3383789</ele>
        <time>2010-05-16T14:14:06Z</time>
      </trkpt>
      <trkpt lat="44.4520405" lon="5.8419570">
        <ele>1138.3383789</ele>
        <time>2010-05-16T14:14:13Z</time>
      </trkpt>
      <trkpt lat="44.4521620" lon="5.8418791">
        <ele>1137.8576660</ele>
        <time>2010-05-16T14:14:27Z</time>
      </trkpt>
      <trkpt lat="44.4521927" lon="5.8418946">
        <ele>1136.4157715</ele>
        <time>2010-05-16T14:14:41Z</time>
      </trkpt>
      <trkpt lat="44.4521933" lon="5.8418911">
        <ele>1135.9350586</ele>
        <time>2010-05-16T14:15:02Z</time>
      </trkpt>
      <trkpt lat="44.4521913" lon="5.8418867">
        <ele>1136.4157715</ele>
        <time>2010-05-16T14:15:12Z</time>
      </trkpt>
      <trkpt lat="44.4522026" lon="5.8418349">
        <ele>1137.8576660</ele>
        <time>2010-05-16T14:15:17Z</time>
      </trkpt>
      <trkpt lat="44.4522388" lon="5.8417864">
        <ele>1136.8962402</ele>
        <time>2010-05-16T14:15:29Z</time>
      </trkpt>
      <trkpt lat="44.4522428" lon="5.8417798">
        <ele>1137.8576660</ele>
        <time>2010-05-16T14:15:58Z</time>
      </trkpt>
      <trkpt lat="44.4522395" lon="5.8417787">
        <ele>1137.8576660</ele>
        <time>2010-05-16T14:18:22Z</time>
      </trkpt>
      <trkpt lat="44.4522355" lon="5.8417761">
        <ele>1137.3769531</ele>
        <time>2010-05-16T14:19:20Z</time>
      </trkpt>
      <trkpt lat="44.4522454" lon="5.8417807">
        <ele>1137.3769531</ele>
        <time>2010-05-16T14:20:32Z</time>
      </trkpt>
      <trkpt lat="44.4522446" lon="5.8417792">
        <ele>1136.8962402</ele>
        <time>2010-05-16T14:22:38Z</time>
      </trkpt>
      <trkpt lat="44.4522430" lon="5.8417798">
        <ele>1134.9738770</ele>
        <time>2010-05-16T14:23:44Z</time>
      </trkpt>
      <trkpt lat="44.4522442" lon="5.8417812">
        <ele>1134.4931641</ele>
        <time>2010-05-16T14:24:31Z</time>
      </trkpt>
      <trkpt lat="44.4522441" lon="5.8417810">
        <ele>1135.4543457</ele>
        <time>2010-05-16T14:25:07Z</time>
      </trkpt>
      <trkpt lat="44.4522423" lon="5.8417802">
        <ele>1136.4157715</ele>
        <time>2010-05-16T14:25:28Z</time>
      </trkpt>
      <trkpt lat="44.4522668" lon="5.8417825">
        <ele>1136.8962402</ele>
        <time>2010-05-16T14:26:06Z</time>
      </trkpt>
      <trkpt lat="44.4522406" lon="5.8418083">
        <ele>1136.4157715</ele>
        <time>2010-05-16T14:26:50Z</time>
      </trkpt>
      <trkpt lat="44.4521868" lon="5.8419052">
        <ele>1135.4543457</ele>
        <time>2010-05-16T14:27:03Z</time>
      </trkpt>
      <trkpt lat="44.4521808" lon="5.8419071">
        <ele>1135.4543457</ele>
        <time>2010-05-16T14:27:09Z</time>
      </trkpt>
      <trkpt lat="44.4521644" lon="5.8419087">
        <ele>1135.4543457</ele>
        <time>2010-05-16T14:27:11Z</time>
      </trkpt>
      <trkpt lat="44.4520876" lon="5.8419618">
        <ele>1135.4543457</ele>
        <time>2010-05-16T14:27:19Z</time>
      </trkpt>
      <trkpt lat="44.4520700" lon="5.8419767">
        <ele>1135.4543457</ele>
        <time>2010-05-16T14:27:21Z</time>
      </trkpt>
      <trkpt lat="44.4520491" lon="5.8419866">
        <ele>1135.4543457</ele>
        <time>2010-05-16T14:27:23Z</time>
      </trkpt>
      <trkpt lat="44.4519599" lon="5.8420443">
        <ele>1136.8962402</ele>
        <time>2010-05-16T14:27:32Z</time>
      </trkpt>
      <trkpt lat="44.4519031" lon="5.8420346">
        <ele>1136.8962402</ele>
        <time>2010-05-16T14:27:45Z</time>
      </trkpt>
      <trkpt lat="44.4518877" lon="5.8420097">
        <ele>1135.9350586</ele>
        <time>2010-05-16T14:28:00Z</time>
      </trkpt>
      <trkpt lat="44.4518607" lon="5.8421022">
        <ele>1135.9350586</ele>
        <time>2010-05-16T14:28:18Z</time>
      </trkpt>
      <trkpt lat="44.4518405" lon="5.8421295">
        <ele>1134.9738770</ele>
        <time>2010-05-16T14:28:34Z</time>
      </trkpt>
      <trkpt lat="44.4517761" lon="5.8421596">
        <ele>1134.4931641</ele>
        <time>2010-05-16T14:28:46Z</time>
      </trkpt>
      <trkpt lat="44.4517426" lon="5.8421776">
        <ele>1134.0124512</ele>
        <time>2010-05-16T14:28:49Z</time>
      </trkpt>
      <trkpt lat="44.4516375" lon="5.8422107">
        <ele>1132.5705566</ele>
        <time>2010-05-16T14:28:59Z</time>
      </trkpt>
      <trkpt lat="44.4515287" lon="5.8422542">
        <ele>1131.6088867</ele>
        <time>2010-05-16T14:29:10Z</time>
      </trkpt>
      <trkpt lat="44.4514209" lon="5.8423643">
        <ele>1130.6477051</ele>
        <time>2010-05-16T14:29:24Z</time>
      </trkpt>
      <trkpt lat="44.4513390" lon="5.8424333">
        <ele>1129.2055664</ele>
        <time>2010-05-16T14:29:33Z</time>
      </trkpt>
      <trkpt lat="44.4513137" lon="5.8424552">
        <ele>1128.7250977</ele>
        <time>2010-05-16T14:29:36Z</time>
      </trkpt>
      <trkpt lat="44.4512206" lon="5.8424912">
        <ele>1127.7636719</ele>
        <time>2010-05-16T14:29:46Z</time>
      </trkpt>
      <trkpt lat="44.4511029" lon="5.8425116">
        <ele>1126.8024902</ele>
        <time>2010-05-16T14:29:57Z</time>
      </trkpt>
      <trkpt lat="44.4510530" lon="5.8425043">
        <ele>1126.8024902</ele>
        <time>2010-05-16T14:30:02Z</time>
      </trkpt>
      <trkpt lat="44.4510007" lon="5.8425253">
        <ele>1126.3217773</ele>
        <time>2010-05-16T14:30:07Z</time>
      </trkpt>
      <trkpt lat="44.4509758" lon="5.8425764">
        <ele>1126.3217773</ele>
        <time>2010-05-16T14:30:12Z</time>
      </trkpt>
      <trkpt lat="44.4509963" lon="5.8426503">
        <ele>1126.3217773</ele>
        <time>2010-05-16T14:30:17Z</time>
      </trkpt>
      <trkpt lat="44.4510245" lon="5.8427375">
        <ele>1125.8410645</ele>
        <time>2010-05-16T14:30:23Z</time>
      </trkpt>
      <trkpt lat="44.4510360" lon="5.8428351">
        <ele>1125.8410645</ele>
        <time>2010-05-16T14:30:30Z</time>
      </trkpt>
      <trkpt lat="44.4510705" lon="5.8429415">
        <ele>1124.8798828</ele>
        <time>2010-05-16T14:30:38Z</time>
      </trkpt>
      <trkpt lat="44.4511712" lon="5.8430167">
        <ele>1123.4379883</ele>
        <time>2010-05-16T14:30:47Z</time>
      </trkpt>
      <trkpt lat="44.4512192" lon="5.8430547">
        <ele>1123.9184570</ele>
        <time>2010-05-16T14:30:51Z</time>
      </trkpt>
      <trkpt lat="44.4512808" lon="5.8431127">
        <ele>1123.4379883</ele>
        <time>2010-05-16T14:30:56Z</time>
      </trkpt>
      <trkpt lat="44.4513070" lon="5.8431945">
        <ele>1122.9572754</ele>
        <time>2010-05-16T14:31:02Z</time>
      </trkpt>
      <trkpt lat="44.4513353" lon="5.8432891">
        <ele>1122.9572754</ele>
        <time>2010-05-16T14:31:10Z</time>
      </trkpt>
      <trkpt lat="44.4513267" lon="5.8433683">
        <ele>1122.4765625</ele>
        <time>2010-05-16T14:31:15Z</time>
      </trkpt>
      <trkpt lat="44.4513562" lon="5.8434414">
        <ele>1122.4765625</ele>
        <time>2010-05-16T14:31:20Z</time>
      </trkpt>
      <trkpt lat="44.4514715" lon="5.8434690">
        <ele>1121.9958496</ele>
        <time>2010-05-16T14:31:33Z</time>
      </trkpt>
      <trkpt lat="44.4515423" lon="5.8435119">
        <ele>1121.9958496</ele>
        <time>2010-05-16T14:31:51Z</time>
      </trkpt>
      <trkpt lat="44.4515507" lon="5.8435049">
        <ele>1122.4765625</ele>
        <time>2010-05-16T14:32:00Z</time>
      </trkpt>
      <trkpt lat="44.4516083" lon="5.8435223">
        <ele>1121.9958496</ele>
        <time>2010-05-16T14:32:12Z</time>
      </trkpt>
      <trkpt lat="44.4516437" lon="5.8434973">
        <ele>1122.9572754</ele>
        <time>2010-05-16T14:32:16Z</time>
      </trkpt>
      <trkpt lat="44.4516776" lon="5.8434144">
        <ele>1121.9958496</ele>
        <time>2010-05-16T14:32:27Z</time>
      </trkpt>
      <trkpt lat="44.4517124" lon="5.8433171">
        <ele>1122.4765625</ele>
        <time>2010-05-16T14:32:34Z</time>
      </trkpt>
      <trkpt lat="44.4519003" lon="5.8431185">
        <ele>1121.0346680</ele>
        <time>2010-05-16T14:32:53Z</time>
      </trkpt>
      <trkpt lat="44.4519498" lon="5.8430978">
        <ele>1120.5539551</ele>
        <time>2010-05-16T14:32:57Z</time>
      </trkpt>
      <trkpt lat="44.4519902" lon="5.8430851">
        <ele>1120.5539551</ele>
        <time>2010-05-16T14:33:00Z</time>
      </trkpt>
      <trkpt lat="44.4521985" lon="5.8429925">
        <ele>1119.5927734</ele>
        <time>2010-05-16T14:33:14Z</time>
      </trkpt>
      <trkpt lat="44.4522604" lon="5.8429693">
        <ele>1119.1120605</ele>
        <time>2010-05-16T14:33:18Z</time>
      </trkpt>
      <trkpt lat="44.4523606" lon="5.8429563">
        <ele>1119.1120605</ele>
        <time>2010-05-16T14:33:25Z</time>
      </trkpt>
      <trkpt lat="44.4524044" lon="5.8429577">
        <ele>1119.1120605</ele>
        <time>2010-05-16T14:33:28Z</time>
      </trkpt>
      <trkpt lat="44.4524659" lon="5.8429457">
        <ele>1118.6313477</ele>
        <time>2010-05-16T14:33:32Z</time>
      </trkpt>
      <trkpt lat="44.4525114" lon="5.8429342">
        <ele>1118.1506348</ele>
        <time>2010-05-16T14:33:35Z</time>
      </trkpt>
      <trkpt lat="44.4525940" lon="5.8428771">
        <ele>1117.6699219</ele>
        <time>2010-05-16T14:33:41Z</time>
      </trkpt>
      <trkpt lat="44.4527151" lon="5.8426318">
        <ele>1117.6699219</ele>
        <time>2010-05-16T14:33:56Z</time>
      </trkpt>
      <trkpt lat="44.4527564" lon="5.8424657">
        <ele>1117.6699219</ele>
        <time>2010-05-16T14:34:04Z</time>
      </trkpt>
      <trkpt lat="44.4527564" lon="5.8424342">
        <ele>1117.1894531</ele>
        <time>2010-05-16T14:34:06Z</time>
      </trkpt>
      <trkpt lat="44.4528145" lon="5.8423291">
        <ele>1116.7087402</ele>
        <time>2010-05-16T14:34:13Z</time>
      </trkpt>
      <trkpt lat="44.4529486" lon="5.8421176">
        <ele>1117.1894531</ele>
        <time>2010-05-16T14:34:25Z</time>
      </trkpt>
      <trkpt lat="44.4530071" lon="5.8420441">
        <ele>1117.6699219</ele>
        <time>2010-05-16T14:34:30Z</time>
      </trkpt>
      <trkpt lat="44.4531666" lon="5.8418716">
        <ele>1117.6699219</ele>
        <time>2010-05-16T14:34:45Z</time>
      </trkpt>
      <trkpt lat="44.4532402" lon="5.8418608">
        <ele>1115.7473145</ele>
        <time>2010-05-16T14:34:51Z</time>
      </trkpt>
      <trkpt lat="44.4533200" lon="5.8418183">
        <ele>1116.7087402</ele>
        <time>2010-05-16T14:34:58Z</time>
      </trkpt>
      <trkpt lat="44.4533875" lon="5.8417422">
        <ele>1117.6699219</ele>
        <time>2010-05-16T14:35:04Z</time>
      </trkpt>
      <trkpt lat="44.4534790" lon="5.8416322">
        <ele>1117.1894531</ele>
        <time>2010-05-16T14:35:15Z</time>
      </trkpt>
      <trkpt lat="44.4534908" lon="5.8415222">
        <ele>1117.1894531</ele>
        <time>2010-05-16T14:35:23Z</time>
      </trkpt>
      <trkpt lat="44.4535062" lon="5.8412720">
        <ele>1117.1894531</ele>
        <time>2010-05-16T14:35:34Z</time>
      </trkpt>
      <trkpt lat="44.4534588" lon="5.8411055">
        <ele>1116.7087402</ele>
        <time>2010-05-16T14:35:43Z</time>
      </trkpt>
      <trkpt lat="44.4533902" lon="5.8407823">
        <ele>1114.7858887</ele>
        <time>2010-05-16T14:36:00Z</time>
      </trkpt>
      <trkpt lat="44.4534070" lon="5.8406767">
        <ele>1115.2666016</ele>
        <time>2010-05-16T14:36:13Z</time>
      </trkpt>
      <trkpt lat="44.4534070" lon="5.8406767">
        <ele>1115.2666016</ele>
        <time>2010-05-16T14:36:17Z</time>
      </trkpt>
      <trkpt lat="44.4534726" lon="5.8405324">
        <ele>1113.8244629</ele>
        <time>2010-05-16T14:36:26Z</time>
      </trkpt>
      <trkpt lat="44.4535091" lon="5.8404510">
        <ele>1113.3439941</ele>
        <time>2010-05-16T14:36:31Z</time>
      </trkpt>
      <trkpt lat="44.4535726" lon="5.8403354">
        <ele>1112.3825684</ele>
        <time>2010-05-16T14:36:38Z</time>
      </trkpt>
      <trkpt lat="44.4536147" lon="5.8402706">
        <ele>1111.9020996</ele>
        <time>2010-05-16T14:36:42Z</time>
      </trkpt>
      <trkpt lat="44.4537045" lon="5.8401510">
        <ele>1110.4599609</ele>
        <time>2010-05-16T14:36:50Z</time>
      </trkpt>
      <trkpt lat="44.4537546" lon="5.8400775">
        <ele>1110.9406738</ele>
        <time>2010-05-16T14:36:54Z</time>
      </trkpt>
      <trkpt lat="44.4538027" lon="5.8400133">
        <ele>1109.9792480</ele>
        <time>2010-05-16T14:36:58Z</time>
      </trkpt>
      <trkpt lat="44.4538671" lon="5.8399040">
        <ele>1107.5761719</ele>
        <time>2010-05-16T14:37:06Z</time>
      </trkpt>
      <trkpt lat="44.4539677" lon="5.8397075">
        <ele>1106.6147461</ele>
        <time>2010-05-16T14:37:17Z</time>
      </trkpt>
      <trkpt lat="44.4539911" lon="5.8396714">
        <ele>1107.5761719</ele>
        <time>2010-05-16T14:37:19Z</time>
      </trkpt>
      <trkpt lat="44.4540694" lon="5.8396133">
        <ele>1105.6535645</ele>
        <time>2010-05-16T14:37:25Z</time>
      </trkpt>
      <trkpt lat="44.4541481" lon="5.8395645">
        <ele>1103.7309570</ele>
        <time>2010-05-16T14:37:32Z</time>
      </trkpt>
      <trkpt lat="44.4541947" lon="5.8395512">
        <ele>1103.7309570</ele>
        <time>2010-05-16T14:37:42Z</time>
      </trkpt>
      <trkpt lat="44.4542094" lon="5.8395357">
        <ele>1102.7695313</ele>
        <time>2010-05-16T14:37:47Z</time>
      </trkpt>
      <trkpt lat="44.4542169" lon="5.8395080">
        <ele>1102.2888184</ele>
        <time>2010-05-16T14:37:49Z</time>
      </trkpt>
      <trkpt lat="44.4542102" lon="5.8394874">
        <ele>1101.8083496</ele>
        <time>2010-05-16T14:37:57Z</time>
      </trkpt>
      <trkpt lat="44.4542965" lon="5.8393900">
        <ele>1102.7695313</ele>
        <time>2010-05-16T14:38:07Z</time>
      </trkpt>
      <trkpt lat="44.4543042" lon="5.8393702">
        <ele>1102.7695313</ele>
        <time>2010-05-16T14:38:08Z</time>
      </trkpt>
      <trkpt lat="44.4543420" lon="5.8393226">
        <ele>1101.3276367</ele>
        <time>2010-05-16T14:38:12Z</time>
      </trkpt>
      <trkpt lat="44.4543601" lon="5.8392878">
        <ele>1100.8469238</ele>
        <time>2010-05-16T14:38:14Z</time>
      </trkpt>
      <trkpt lat="44.4543999" lon="5.8391311">
        <ele>1100.3664551</ele>
        <time>2010-05-16T14:38:24Z</time>
      </trkpt>
      <trkpt lat="44.4543972" lon="5.8389883">
        <ele>1099.4047852</ele>
        <time>2010-05-16T14:38:32Z</time>
      </trkpt>
      <trkpt lat="44.4543876" lon="5.8389278">
        <ele>1098.4433594</ele>
        <time>2010-05-16T14:38:36Z</time>
      </trkpt>
      <trkpt lat="44.4543769" lon="5.8388634">
        <ele>1097.4821777</ele>
        <time>2010-05-16T14:38:40Z</time>
      </trkpt>
      <trkpt lat="44.4543612" lon="5.8388317">
        <ele>1097.0014648</ele>
        <time>2010-05-16T14:38:42Z</time>
      </trkpt>
      <trkpt lat="44.4543504" lon="5.8387639">
        <ele>1096.0402832</ele>
        <time>2010-05-16T14:38:46Z</time>
      </trkpt>
      <trkpt lat="44.4543456" lon="5.8387275">
        <ele>1096.5209961</ele>
        <time>2010-05-16T14:38:48Z</time>
      </trkpt>
      <trkpt lat="44.4543045" lon="5.8386148">
        <ele>1095.0788574</ele>
        <time>2010-05-16T14:38:57Z</time>
      </trkpt>
      <trkpt lat="44.4542404" lon="5.8384692">
        <ele>1094.5981445</ele>
        <time>2010-05-16T14:39:07Z</time>
      </trkpt>
      <trkpt lat="44.4542293" lon="5.8384372">
        <ele>1094.1176758</ele>
        <time>2010-05-16T14:39:09Z</time>
      </trkpt>
      <trkpt lat="44.4542196" lon="5.8383748">
        <ele>1094.1176758</ele>
        <time>2010-05-16T14:39:13Z</time>
      </trkpt>
      <trkpt lat="44.4542047" lon="5.8383109">
        <ele>1093.1562500</ele>
        <time>2010-05-16T14:39:17Z</time>
      </trkpt>
      <trkpt lat="44.4542130" lon="5.8382546">
        <ele>1092.6757813</ele>
        <time>2010-05-16T14:39:20Z</time>
      </trkpt>
      <trkpt lat="44.4542234" lon="5.8381521">
        <ele>1092.1950684</ele>
        <time>2010-05-16T14:39:27Z</time>
      </trkpt>
      <trkpt lat="44.4542249" lon="5.8379790">
        <ele>1089.7917480</ele>
        <time>2010-05-16T14:39:37Z</time>
      </trkpt>
      <trkpt lat="44.4542285" lon="5.8379435">
        <ele>1089.7917480</ele>
        <time>2010-05-16T14:39:39Z</time>
      </trkpt>
      <trkpt lat="44.4542337" lon="5.8378931">
        <ele>1089.3110352</ele>
        <time>2010-05-16T14:39:42Z</time>
      </trkpt>
      <trkpt lat="44.4542027" lon="5.8377658">
        <ele>1086.9077148</ele>
        <time>2010-05-16T14:39:50Z</time>
      </trkpt>
      <trkpt lat="44.4541920" lon="5.8377176">
        <ele>1086.4272461</ele>
        <time>2010-05-16T14:39:53Z</time>
      </trkpt>
      <trkpt lat="44.4541690" lon="5.8376687">
        <ele>1085.9465332</ele>
        <time>2010-05-16T14:40:08Z</time>
      </trkpt>
      <trkpt lat="44.4541305" lon="5.8376152">
        <ele>1085.9465332</ele>
        <time>2010-05-16T14:40:12Z</time>
      </trkpt>
      <trkpt lat="44.4541059" lon="5.8375480">
        <ele>1085.4658203</ele>
        <time>2010-05-16T14:40:21Z</time>
      </trkpt>
      <trkpt lat="44.4541018" lon="5.8374787">
        <ele>1084.9853516</ele>
        <time>2010-05-16T14:40:27Z</time>
      </trkpt>
      <trkpt lat="44.4541025" lon="5.8374372">
        <ele>1084.0239258</ele>
        <time>2010-05-16T14:40:46Z</time>
      </trkpt>
      <trkpt lat="44.4541149" lon="5.8373755">
        <ele>1083.5429688</ele>
        <time>2010-05-16T14:41:05Z</time>
      </trkpt>
      <trkpt lat="44.4541673" lon="5.8372523">
        <ele>1083.0622559</ele>
        <time>2010-05-16T14:41:17Z</time>
      </trkpt>
      <trkpt lat="44.4542089" lon="5.8371071">
        <ele>1081.1398926</ele>
        <time>2010-05-16T14:41:27Z</time>
      </trkpt>
      <trkpt lat="44.4542162" lon="5.8370067">
        <ele>1081.1398926</ele>
        <time>2010-05-16T14:41:40Z</time>
      </trkpt>
      <trkpt lat="44.4542155" lon="5.8369462">
        <ele>1080.1784668</ele>
        <time>2010-05-16T14:41:44Z</time>
      </trkpt>
      <trkpt lat="44.4542249" lon="5.8369004">
        <ele>1081.6203613</ele>
        <time>2010-05-16T14:41:47Z</time>
      </trkpt>
      <trkpt lat="44.4542291" lon="5.8368707">
        <ele>1084.0239258</ele>
        <time>2010-05-16T14:41:49Z</time>
      </trkpt>
      <trkpt lat="44.4542284" lon="5.8368374">
        <ele>1083.5429688</ele>
        <time>2010-05-16T14:41:51Z</time>
      </trkpt>
      <trkpt lat="44.4542288" lon="5.8368069">
        <ele>1081.6203613</ele>
        <time>2010-05-16T14:41:53Z</time>
      </trkpt>
      <trkpt lat="44.4542503" lon="5.8366348">
        <ele>1079.6977539</ele>
        <time>2010-05-16T14:42:04Z</time>
      </trkpt>
      <trkpt lat="44.4542668" lon="5.8364722">
        <ele>1080.1784668</ele>
        <time>2010-05-16T14:42:14Z</time>
      </trkpt>
      <trkpt lat="44.4542631" lon="5.8364375">
        <ele>1079.6977539</ele>
        <time>2010-05-16T14:42:16Z</time>
      </trkpt>
      <trkpt lat="44.4542705" lon="5.8364096">
        <ele>1081.6203613</ele>
        <time>2010-05-16T14:42:18Z</time>
      </trkpt>
      <trkpt lat="44.4542809" lon="5.8363853">
        <ele>1079.6977539</ele>
        <time>2010-05-16T14:42:20Z</time>
      </trkpt>
      <trkpt lat="44.4542699" lon="5.8363328">
        <ele>1075.8525391</ele>
        <time>2010-05-16T14:42:23Z</time>
      </trkpt>
      <trkpt lat="44.4542539" lon="5.8362773">
        <ele>1074.8913574</ele>
        <time>2010-05-16T14:42:26Z</time>
      </trkpt>
      <trkpt lat="44.4542921" lon="5.8361324">
        <ele>1073.4494629</ele>
        <time>2010-05-16T14:42:34Z</time>
      </trkpt>
      <trkpt lat="44.4543375" lon="5.8360706">
        <ele>1072.9687500</ele>
        <time>2010-05-16T14:42:38Z</time>
      </trkpt>
      <trkpt lat="44.4544184" lon="5.8360066">
        <ele>1072.4880371</ele>
        <time>2010-05-16T14:42:43Z</time>
      </trkpt>
      <trkpt lat="44.4545103" lon="5.8359267">
        <ele>1069.1235352</ele>
        <time>2010-05-16T14:42:50Z</time>
      </trkpt>
      <trkpt lat="44.4545225" lon="5.8359116">
        <ele>1068.1621094</ele>
        <time>2010-05-16T14:42:51Z</time>
      </trkpt>
      <trkpt lat="44.4546366" lon="5.8357833">
        <ele>1067.6811523</ele>
        <time>2010-05-16T14:43:02Z</time>
      </trkpt>
      <trkpt lat="44.4547607" lon="5.8357182">
        <ele>1067.2006836</ele>
        <time>2010-05-16T14:43:11Z</time>
      </trkpt>
      <trkpt lat="44.4548102" lon="5.8357169">
        <ele>1065.7587891</ele>
        <time>2010-05-16T14:43:14Z</time>
      </trkpt>
      <trkpt lat="44.4549296" lon="5.8357205">
        <ele>1062.3940430</ele>
        <time>2010-05-16T14:43:22Z</time>
      </trkpt>
      <trkpt lat="44.4550543" lon="5.8356915">
        <ele>1060.4714355</ele>
        <time>2010-05-16T14:43:32Z</time>
      </trkpt>
      <trkpt lat="44.4551158" lon="5.8356792">
        <ele>1059.5102539</ele>
        <time>2010-05-16T14:43:40Z</time>
      </trkpt>
      <trkpt lat="44.4552024" lon="5.8356526">
        <ele>1059.0295410</ele>
        <time>2010-05-16T14:43:49Z</time>
      </trkpt>
      <trkpt lat="44.4553168" lon="5.8356037">
        <ele>1058.0683594</ele>
        <time>2010-05-16T14:43:58Z</time>
      </trkpt>
      <trkpt lat="44.4554115" lon="5.8355604">
        <ele>1057.5876465</ele>
        <time>2010-05-16T14:44:06Z</time>
      </trkpt>
      <trkpt lat="44.4555402" lon="5.8354430">
        <ele>1056.1455078</ele>
        <time>2010-05-16T14:44:19Z</time>
      </trkpt>
      <trkpt lat="44.4555636" lon="5.8353724">
        <ele>1055.1843262</ele>
        <time>2010-05-16T14:44:23Z</time>
      </trkpt>
      <trkpt lat="44.4556049" lon="5.8351921">
        <ele>1053.7424316</ele>
        <time>2010-05-16T14:44:33Z</time>
      </trkpt>
      <trkpt lat="44.4556496" lon="5.8350271">
        <ele>1052.7810059</ele>
        <time>2010-05-16T14:44:42Z</time>
      </trkpt>
      <trkpt lat="44.4556495" lon="5.8349917">
        <ele>1051.8195801</ele>
        <time>2010-05-16T14:44:44Z</time>
      </trkpt>
      <trkpt lat="44.4556714" lon="5.8348494">
        <ele>1051.3388672</ele>
        <time>2010-05-16T14:44:51Z</time>
      </trkpt>
      <trkpt lat="44.4556769" lon="5.8347581">
        <ele>1050.3776855</ele>
        <time>2010-05-16T14:44:56Z</time>
      </trkpt>
      <trkpt lat="44.4557600" lon="5.8345564">
        <ele>1048.9355469</ele>
        <time>2010-05-16T14:45:08Z</time>
      </trkpt>
      <trkpt lat="44.4557857" lon="5.8345094">
        <ele>1048.4548340</ele>
        <time>2010-05-16T14:45:11Z</time>
      </trkpt>
      <trkpt lat="44.4558981" lon="5.8343900">
        <ele>1046.0517578</ele>
        <time>2010-05-16T14:45:22Z</time>
      </trkpt>
      <trkpt lat="44.4559082" lon="5.8343797">
        <ele>1046.0517578</ele>
        <time>2010-05-16T14:45:23Z</time>
      </trkpt>
      <trkpt lat="44.4560173" lon="5.8342440">
        <ele>1044.1291504</ele>
        <time>2010-05-16T14:45:34Z</time>
      </trkpt>
      <trkpt lat="44.4560801" lon="5.8341373">
        <ele>1042.6872559</ele>
        <time>2010-05-16T14:45:43Z</time>
      </trkpt>
      <trkpt lat="44.4561398" lon="5.8340753">
        <ele>1041.2451172</ele>
        <time>2010-05-16T14:45:49Z</time>
      </trkpt>
      <trkpt lat="44.4561847" lon="5.8339440">
        <ele>1040.7644043</ele>
        <time>2010-05-16T14:45:59Z</time>
      </trkpt>
      <trkpt lat="44.4561966" lon="5.8339067">
        <ele>1039.8032227</ele>
        <time>2010-05-16T14:46:06Z</time>
      </trkpt>
      <trkpt lat="44.4562292" lon="5.8339289">
        <ele>1040.2839355</ele>
        <time>2010-05-16T14:46:16Z</time>
      </trkpt>
      <trkpt lat="44.4562464" lon="5.8339159">
        <ele>1040.7644043</ele>
        <time>2010-05-16T14:46:39Z</time>
      </trkpt>
      <trkpt lat="44.4562444" lon="5.8339141">
        <ele>1040.7644043</ele>
        <time>2010-05-16T14:47:04Z</time>
      </trkpt>
      <trkpt lat="44.4562425" lon="5.8339111">
        <ele>1039.8032227</ele>
        <time>2010-05-16T14:47:29Z</time>
      </trkpt>
      <trkpt lat="44.4562333" lon="5.8339109">
        <ele>1039.8032227</ele>
        <time>2010-05-16T14:48:13Z</time>
      </trkpt>
      <trkpt lat="44.4562333" lon="5.8339109">
        <ele>1040.2839355</ele>
        <time>2010-05-16T14:48:28Z</time>
      </trkpt>
      <trkpt lat="44.4562458" lon="5.8339165">
        <ele>1040.2839355</ele>
        <time>2010-05-16T14:48:38Z</time>
      </trkpt>
      <trkpt lat="44.4561711" lon="5.8339357">
        <ele>1039.8032227</ele>
        <time>2010-05-16T15:02:04Z</time>
      </trkpt>
      <trkpt lat="44.4561745" lon="5.8339411">
        <ele>1039.8032227</ele>
        <time>2010-05-16T15:02:14Z</time>
      </trkpt>
      <trkpt lat="44.4561550" lon="5.8339351">
        <ele>1039.8032227</ele>
        <time>2010-05-16T15:02:21Z</time>
      </trkpt>
      <trkpt lat="44.4561535" lon="5.8339207">
        <ele>1039.3225098</ele>
        <time>2010-05-16T15:02:26Z</time>
      </trkpt>
      <trkpt lat="44.4561454" lon="5.8339003">
        <ele>1038.3613281</ele>
        <time>2010-05-16T15:02:35Z</time>
      </trkpt>
      <trkpt lat="44.4562335" lon="5.8336369">
        <ele>1037.3999023</ele>
        <time>2010-05-16T15:02:43Z</time>
      </trkpt>
    </trkseg>
  </trk>

 
</gpx>
